[[{"header":{"parameterUnit":"m.s-1","parameterCategory":1,"la1":31.0,"la2":29.5877,"lo1":-88.7671,"lo2":-86.6584,"dy":0.0162,"dx":0.0185,"nx":115,"ny":88,"refTime":"2024-08-04T00:00:00:Z","depth":0,"parameterNumber":2,"parameterNumberName":"U-component_of_WINDS"},"data":[0.0,0.0,0.0,0.0,0.0,0.0,0.0,0.0,0.0,0.0,0.0,0.0,0.0,0.0,0.0,0.0,0.0,0.0,0.0,0.0,0.0,0.0,0.0,0.0,0.0,0.0,0.0,0.0,0.0,0.0,0.0,0.0,0.0,0.0,0.0,0.0,0.0,0.0,0.0,0.0,0.0,0.0,0.0,0.0,0.0,0.0,0.0,0.0,0.0,0.0,0.0,0.0,0.0,0.0,0.0,0.0,0.0,0.0,0.0,0.0,0.0,0.0,0.0,0.0,0.0,0.0,0.0,0.0,0.0,0.0,0.0,0.0,0.0,0.0,0.0,0.0,0.0,0.0,0.0,0.0,0.0,0.0,0.0,0.0,0.0,0.0,0.0,0.0,0.0,0.0,0.0,0.0,0.0,0.0,0.0,0.0,0.0,0.0,0.0,0.0,0.0,0.0,0.0,0.0,0.0,0.0,0.0,0.0,0.0,0.0,0.0,0.0,0.0,0.0,0.0,0.0,0.0,0.0,0.0,0.0,0.0,0.0,0.0,0.0,0.0,0.0,0.0,0.0,0.0,0.0,0.0,0.0,0.0,0.0,0.0,0.0,0.0,0.0,0.0,0.0,0.0,0.0,0.0,0.0,0.0,0.0,0.0,0.0,0.0,0.0,0.0,0.0,0.0,0.0,0.0,0.0,0.0,0.0,0.0,0.0,0.0,0.0,0.0,0.0,0.0,0.0,0.0,0.0,0.0,0.0,0.0,0.0,0.0,0.0,0.0,0.0,0.0,0.0,0.0,0.0,0.0,0.0,0.0,0.0,0.0,0.0,0.0,0.0,0.0,0.0,0.0,0.0,0.0,0.0,0.0,0.0,0.0,0.0,0.0,0.0,0.0,0.0,0.0,0.0,0.0,0.0,0.0,0.0,0.0,0.0,0.0,0.0,0.0,0.0,0.0,0.0,0.0,0.0,0.0,0.0,0.0,0.0,0.0,0.0,0.0,0.0,0.0,0.0,0.0,0.0,0.0,0.0,0.0,0.0,0.0,0.0,0.0,0.0,0.0,0.0,0.0,0.0,0.0,0.0,0.0,0.0,0.0,0.0,0.0,0.0,0.0,0.0,0.0,0.0,0.0,0.0,0.0,0.0,0.0,0.0,0.0,0.0,0.0,0.0,0.0,0.0,0.0,0.0,0.0,0.0,0.0,0.0,0.0,0.0,0.0,0.0,0.0,0.0,0.0,0.0,0.0,0.0,0.0,0.0,0.0,0.0,0.0,0.0,0.0,0.0,0.0,0.0,0.0,0.0,0.0,0.0,0.0,0.0,0.0,0.0,0.0,0.0,0.0,0.0,0.0,0.0,0.0,0.0,0.0,0.0,0.0,0.0,0.0,0.0,0.0,0.0,0.0,0.0,0.0,0.0,0.0,0.0,0.0,0.0,0.0,0.0,0.0,0.0,0.0,0.0,0.0,0.0,0.0,0.0,0.0,0.0,0.0,0.0,0.0,0.0,0.0,0.0,0.0,0.0,0.0,0.0,0.0,0.0,0.0,0.0,0.0,0.0,0.0,0.0,0.0,0.0,0.0,0.0,0.0,0.0,0.0,0.0,0.0,0.0,0.0,0.0,0.0,0.0,0.0,0.0,0.0,0.0,0.0,0.0,0.0,0.0,0.0,0.0,0.0,0.0,0.0,0.0,0.0,0.0,0.0,0.0,0.0,0.0,0.0,0.0,0.0,0.0,0.0,0.0,0.0,0.0,0.0,0.0,0.0,0.0,0.0,0.0,0.0,0.0,0.0,0.0,0.0,0.0,0.0,0.0,0.0,0.0,0.0,0.0,0.0,0.0,0.0,0.0,0.0,0.0,0.0,0.0,0.0,0.0,0.0,0.0,0.0,0.0,0.0,0.0,0.0,0.0,0.0,0.0,0.0,0.0,0.0,0.0,0.0,0.0,0.0,0.0,0.0,0.0,0.0,0.0,0.0,0.0,0.0,0.0,0.0,0.0,0.0,0.0,0.0,0.0,0.0,0.0,0.0,0.0,0.0,0.0,0.0,0.0,0.0,0.0,0.0,0.0,0.0,0.0,0.0,0.0,0.0,0.0,0.0,0.0,0.0,0.0,0.0,0.0,0.0,0.0,0.0,0.0,0.0,0.0,0.0,0.0,0.0,0.0,0.0,0.0,0.0,0.0,0.0,0.0,0.0,0.0,0.0,0.0,0.0,0.0,0.0,0.0,0.0,0.0,0.0,0.0,0.0,0.0,0.0,0.0,0.0,0.0,0.0,0.0,0.0,0.0,0.0,0.0,0.0,0.0,0.0,0.0,0.0,0.0,0.0,0.0,0.0,0.0,0.0,0.0,0.0,0.0,0.0,0.0,0.0,0.0,0.0,0.0,0.0,0.0,0.0,0.0,0.0,0.0,0.0,0.0,0.0,0.0,0.0,0.0,0.0,0.0,0.0,0.0,0.0,0.0,0.0,0.0,0.0,0.0,0.0,0.0,0.0,0.0,0.0,0.0,0.0,0.0,0.0,0.0,0.0,0.0,0.0,0.0,0.0,0.0,0.0,0.0,0.0,0.0,0.0,0.0,0.0,0.0,0.0,0.0,0.0,0.0,0.0,0.0,0.0,0.0,0.0,0.0,0.0,0.0,0.0,0.0,0.0,0.0,0.0,0.0,0.0,0.0,0.0,0.0,0.0,0.0,0.0,0.0,0.0,0.0,0.0,0.0,0.0,0.0,0.0,0.0,0.0,0.0,0.0,0.0,0.0,0.0,0.0,0.0,0.0,0.0,0.0,0.0,0.0,0.0,0.0,0.0,0.0,0.0,0.0,0.0,0.0,0.0,0.0,0.0,0.0,0.0,0.0,0.0,0.0,0.0,0.0,0.0,0.0,0.0,0.0,0.0,0.0,0.0,0.0,0.0,0.0,0.0,0.0,0.0,0.0,0.0,0.0,0.0,0.0,0.0,0.0,0.0,0.0,0.0,0.0,0.0,0.0,0.0,0.0,0.0,0.0,0.0,0.0,0.0,0.0,0.0,0.0,0.0,0.0,0.0,0.0,0.0,0.0,0.0,0.0,0.0,0.0,0.0,0.0,0.0,0.0,0.0,0.0,0.0,0.0,0.0,0.0,0.0,0.0,0.0,0.0,0.0,0.0,0.0,0.0,0.0,0.0,0.0,0.0,0.0,0.0,0.0,0.0,0.0,0.0,0.0,0.0,0.0,0.0,0.0,0.0,0.0,0.0,0.0,0.0,0.0,0.0,0.0,0.0,0.0,0.0,0.0,0.0,0.0,0.0,0.0,0.0,0.0,0.0,0.0,0.0,0.0,0.0,0.0,0.0,0.0,0.0,0.0,0.0,0.0,0.0,0.0,0.0,0.0,0.0,0.0,0.0,0.0,0.0,0.0,0.0,0.0,0.0,0.0,0.0,0.0,0.0,0.0,0.0,0.0,0.0,0.0,0.0,0.0,0.0,0.0,0.0,0.0,0.0,0.0,0.0,0.0,0.0,0.0,0.0,0.0,0.0,0.0,0.0,0.0,0.0,0.0,0.0,0.0,0.0,0.0,0.0,0.0,0.0,0.0,0.0,0.0,0.0,0.0,0.0,0.0,0.0,0.0,0.0,0.0,0.0,0.0,0.0,0.0,0.0,0.0,0.0,0.0,0.0,0.0,0.0,0.0,0.0,0.0,0.0,0.0,0.0,0.0,0.0,0.0,0.0,0.0,0.0,0.0,0.0,0.0,0.0,0.0,0.0,0.0,0.0,0.0,0.0,0.0,0.0,0.0,0.0,0.0,0.0,0.0,0.0,0.0,0.0,0.0,0.0,0.0,0.0,0.0,0.0,0.0,0.0,0.0,0.0,0.0,0.0,0.0,0.0,0.0,0.0,0.0,0.0,0.0,0.0,0.0,0.0,0.0,0.0,0.0,0.0,0.0,0.0,0.0,0.0,0.0,0.0,0.0,0.0,0.0,0.0,0.0,0.0,0.0,0.0,0.0,0.0,0.0,0.0,0.0,0.0,0.0,0.0,0.0,0.0,0.0,0.0,0.0,0.0,0.0,0.0,0.0,0.0,0.0,0.0,0.0,0.0,0.0,0.0,0.0,0.0,0.0,0.0,0.0,0.0,0.0,0.0,0.0,0.0,0.0,0.0,0.0,0.0,0.0,0.0,0.0,0.0,0.0,0.0,0.0,0.0,0.0,0.0,0.0,0.0,0.0,0.0,0.0,0.0,0.0,0.0,0.0,0.0,0.0,0.0,0.0,0.0,0.0,2.3795,0.0,0.0,0.0,0.0,0.0,0.0,0.0,0.0,0.0,0.0,0.0,0.0,0.0,0.0,0.0,0.0,0.0,0.0,0.0,0.0,0.0,0.0,0.0,0.0,0.0,0.0,0.0,0.0,0.0,0.0,0.0,0.0,0.0,0.0,0.0,0.0,0.0,0.0,0.0,0.0,0.0,0.0,0.0,0.0,0.0,0.0,0.0,0.0,0.0,0.0,0.0,0.0,0.0,0.0,0.0,0.0,0.0,0.0,0.0,0.0,0.0,0.0,0.0,0.0,0.0,0.0,0.0,0.0,0.0,0.0,0.0,0.0,0.0,0.0,0.0,0.0,0.0,0.0,0.0,0.0,0.0,0.0,0.0,0.0,0.0,0.0,0.0,0.0,0.0,0.0,0.0,0.0,0.0,0.0,0.0,0.0,0.0,0.0,0.0,0.0,0.0,0.0,0.0,0.0,0.0,0.0,0.0,0.0,0.0,0.0,2.3795,2.3795,2.3795,2.3795,2.3795,0.0,0.0,0.0,0.0,0.0,0.0,0.0,0.0,0.0,0.0,0.0,0.0,0.0,0.0,0.0,0.0,0.0,0.0,0.0,0.0,0.0,0.0,0.0,0.0,0.0,0.0,0.0,0.0,0.0,0.0,0.0,0.0,0.0,0.0,0.0,0.0,0.0,0.0,0.0,0.0,0.0,0.0,0.0,0.0,0.0,0.0,0.0,0.0,0.0,0.0,0.0,0.0,0.0,0.0,0.0,0.0,0.0,0.0,0.0,0.0,0.0,0.0,0.0,0.0,0.0,0.0,0.0,0.0,0.0,0.0,0.0,0.0,0.0,0.0,0.0,0.0,0.0,0.0,0.0,0.0,0.0,0.0,0.0,0.0,0.0,0.0,0.0,0.0,0.0,0.0,0.0,0.0,0.0,0.0,0.0,0.0,0.0,0.0,0.0,0.0,0.0,0.0,0.0,0.0,0.0,0.0,0.0,0.0,0.0,0.0,0.0,0.0,2.4882,2.4882,2.4882,0.0,0.0,0.0,0.0,0.0,0.0,0.0,0.0,0.0,0.0,0.0,0.0,0.0,0.0,0.0,0.0,0.0,0.0,0.0,0.0,0.0,0.0,0.0,0.0,0.0,0.0,0.0,0.0,0.0,0.0,0.0,0.0,0.0,0.0,0.0,0.0,0.0,0.0,0.0,0.0,0.0,0.0,0.0,0.0,0.0,0.0,0.0,0.0,0.0,0.0,0.0,0.0,0.0,0.0,0.0,0.0,0.0,0.0,0.0,0.0,0.0,0.0,0.0,0.0,0.0,0.0,0.0,0.0,0.0,0.0,0.0,0.0,0.0,0.0,0.0,0.0,0.0,0.0,0.0,0.0,0.0,0.0,0.0,0.0,0.0,0.0,0.0,0.0,0.0,0.0,0.0,0.0,0.0,0.0,0.0,0.0,0.0,0.0,0.0,0.0,0.0,0.0,0.0,0.0,0.0,0.0,0.0,0.0,0.0,0.0,2.5208,2.8069,2.8141,0.0,2.8178,0.0,0.0,0.0,0.0,0.0,0.0,0.0,0.0,0.0,0.0,0.0,0.0,0.0,0.0,0.0,0.0,0.0,0.0,0.0,0.0,0.0,0.0,0.0,0.0,0.0,0.0,0.0,0.0,0.0,0.0,0.0,0.0,0.0,0.0,0.0,0.0,0.0,0.0,0.0,0.0,0.0,0.0,0.0,0.0,0.0,0.0,0.0,0.0,0.0,0.0,0.0,0.0,0.0,0.0,0.0,0.0,0.0,0.0,0.0,0.0,0.0,0.0,0.0,0.0,0.0,0.0,0.0,0.0,0.0,0.0,0.0,0.0,0.0,0.0,0.0,0.0,0.0,0.0,0.0,0.0,0.0,0.0,0.0,0.0,0.0,0.0,0.0,0.0,0.0,0.0,0.0,0.0,0.0,0.0,0.0,0.0,0.0,0.0,0.0,0.0,0.0,0.0,0.0,0.0,0.0,0.0,0.0,0.0,0.0,0.0,0.0,2.7164,2.72,2.7417,0.0,0.0,0.0,0.0,0.0,0.0,0.0,0.0,0.0,0.0,0.0,0.0,0.0,0.0,0.0,0.0,0.0,0.0,0.0,0.0,0.0,0.0,0.0,0.0,0.0,0.0,0.0,0.0,0.0,0.0,0.0,0.0,0.0,0.0,0.0,0.0,0.0,0.0,0.0,0.0,0.0,0.0,0.0,0.0,0.0,0.0,0.0,0.0,0.0,0.0,0.0,0.0,0.0,0.0,0.0,0.0,0.0,0.0,0.0,0.0,0.0,0.0,0.0,0.0,0.0,0.0,0.0,0.0,0.0,0.0,0.0,0.0,0.0,0.0,0.0,0.0,0.0,0.0,0.0,0.0,0.0,0.0,0.0,0.0,0.0,0.0,0.0,0.0,0.0,0.0,0.0,0.0,0.0,0.0,0.0,0.0,0.0,0.0,0.0,0.0,0.0,0.0,0.0,0.0,0.0,0.0,0.0,0.0,0.0,0.0,2.58,0.0,2.7514,2.7743,2.7598,2.7091,0.0,0.0,0.0,0.0,0.0,0.0,0.0,0.0,0.0,0.0,0.0,0.0,0.0,0.0,0.0,0.0,0.0,0.0,0.0,0.0,0.0,0.0,0.0,0.0,0.0,0.0,0.0,0.0,0.0,0.0,0.0,0.0,0.0,0.0,0.0,0.0,0.0,0.0,0.0,0.0,0.0,0.0,0.0,0.0,0.0,0.0,0.0,0.0,0.0,0.0,0.0,0.0,0.0,0.0,0.0,0.0,0.0,0.0,0.0,0.0,0.0,0.0,0.0,0.0,0.0,0.0,0.0,0.0,0.0,0.0,0.0,0.0,0.0,0.0,0.0,0.0,0.0,0.0,0.0,0.0,0.0,0.0,0.0,0.0,0.0,0.0,0.0,0.0,0.0,0.0,0.0,0.0,0.0,0.0,0.0,0.0,0.0,0.0,0.0,0.0,0.0,0.0,0.0,0.0,0.0,0.0,0.0,0.0,0.0,2.7825,2.7898,3.0704,3.151,3.0133,0.0,0.0,0.0,0.0,0.0,0.0,0.0,0.0,0.0,0.0,0.0,0.0,0.0,0.0,0.0,0.0,0.0,0.0,0.0,0.0,0.0,0.0,0.0,0.0,0.0,0.0,0.0,0.0,0.0,0.0,0.0,0.0,0.0,0.0,0.0,0.0,0.0,0.0,0.0,0.0,0.0,0.0,0.0,0.0,0.0,0.0,0.0,0.0,0.0,0.0,0.0,0.0,0.0,0.0,0.0,0.0,0.0,0.0,0.0,0.0,0.0,0.0,0.0,0.0,0.0,0.0,0.0,0.0,0.0,0.0,0.0,0.0,0.0,0.0,0.0,0.0,0.0,0.0,0.0,0.0,0.0,0.0,0.0,0.0,0.0,0.0,0.0,0.0,0.0,0.0,0.0,0.0,0.0,0.0,0.0,0.0,0.0,0.0,0.0,0.0,0.0,0.0,0.0,0.0,0.0,0.0,0.0,0.0,0.0,2.3529,2.4994,2.8503,3.389,3.001,2.7852,0.0,0.0,0.0,0.0,0.0,0.0,0.0,0.0,0.0,0.0,0.0,0.0,0.0,0.0,0.0,0.0,0.0,0.0,0.0,0.0,0.0,0.0,0.0,0.0,0.0,0.0,0.0,0.0,0.0,0.0,0.0,0.0,0.0,0.0,0.0,0.0,0.0,0.0,0.0,0.0,0.0,0.0,0.0,0.0,0.0,0.0,0.0,0.0,0.0,0.0,0.0,0.0,0.0,0.0,0.0,0.0,0.0,0.0,0.0,0.0,0.0,0.0,0.0,0.0,0.0,0.0,0.0,0.0,0.0,0.0,0.0,0.0,0.0,0.0,0.0,0.0,0.0,0.0,0.0,0.0,0.0,0.0,0.0,0.0,0.0,0.0,0.0,0.0,0.0,0.0,0.0,0.0,0.0,0.0,0.0,0.0,0.0,0.0,0.0,0.0,0.0,0.0,0.0,0.0,0.0,0.0,0.0,0.0,0.0,2.2634,0.0,3.0271,0.0,2.932,2.6677,0.0,0.0,0.0,0.0,0.0,0.0,0.0,0.0,0.0,0.0,0.0,0.0,0.0,0.0,0.0,0.0,0.0,0.0,0.0,0.0,0.0,0.0,0.0,0.0,0.0,0.0,0.0,0.0,0.0,0.0,0.0,0.0,0.0,0.0,0.0,0.0,0.0,0.0,0.0,0.0,0.0,0.0,0.0,0.0,0.0,0.0,0.0,0.0,0.0,0.0,0.0,0.0,0.0,0.0,0.0,0.0,0.0,0.0,0.0,0.0,0.0,0.0,0.0,0.0,0.0,0.0,0.0,0.0,0.0,0.0,0.0,0.0,0.0,0.0,0.0,0.0,0.0,0.0,0.0,0.0,0.0,0.0,0.0,0.0,0.0,0.0,0.0,0.0,0.0,0.0,0.0,0.0,0.0,0.0,0.0,0.0,0.0,0.0,0.0,0.0,0.0,0.0,0.0,0.0,0.0,0.0,0.0,0.0,2.2837,2.8765,3.2393,3.2928,3.0332,2.9953,2.698,0.0,0.0,0.0,0.0,0.0,0.0,0.0,0.0,0.0,0.0,0.0,0.0,0.0,0.0,0.0,0.0,0.0,0.0,0.0,0.0,0.0,0.0,0.0,0.0,0.0,0.0,0.0,0.0,0.0,0.0,0.0,0.0,0.0,0.0,0.0,0.0,0.0,0.0,0.0,0.0,0.0,0.0,0.0,0.0,0.0,0.0,0.0,0.0,0.0,0.0,0.0,0.0,0.0,0.0,0.0,0.0,0.0,0.0,0.0,0.0,0.0,0.0,0.0,0.0,0.0,0.0,0.0,0.0,0.0,0.0,0.0,0.0,0.0,0.0,0.0,0.0,0.0,0.0,0.0,0.0,0.0,0.0,0.0,0.0,0.0,0.0,0.0,0.0,0.0,0.0,0.0,0.0,0.0,0.0,0.0,0.0,0.0,0.0,0.0,0.0,0.0,0.0,0.0,0.0,0.0,0.0,0.0,0.0,0.0,2.7581,3.0002,3.2237,3.3991,2.9719,2.7393,0.0,0.0,0.0,0.0,0.0,0.0,0.0,0.0,0.0,0.0,0.0,0.0,0.0,0.0,0.0,0.0,0.0,0.0,0.0,0.0,0.0,0.0,0.0,0.0,0.0,0.0,0.0,0.0,0.0,0.0,0.0,0.0,0.0,0.0,0.0,0.0,0.0,0.0,0.0,0.0,0.0,0.0,0.0,0.0,0.0,0.0,0.0,0.0,0.0,0.0,0.0,0.0,0.0,0.0,0.0,0.0,0.0,0.0,0.0,0.0,0.0,0.0,0.0,0.0,0.0,0.0,0.0,0.0,0.0,0.0,0.0,0.0,0.0,0.0,0.0,0.0,0.0,0.0,0.0,0.0,0.0,0.0,0.0,0.0,0.0,0.0,0.0,0.0,0.0,0.0,0.0,0.0,0.0,0.0,0.0,0.0,0.0,0.0,0.0,0.0,0.0,0.0,0.0,0.0,0.0,0.0,0.0,0.0,0.0,2.9886,3.2083,3.4002,3.5483,3.0585,2.8139,2.8546,0.0,0.0,0.0,0.0,0.0,0.0,0.0,0.0,0.0,0.0,0.0,0.0,0.0,0.0,0.0,0.0,0.0,0.0,0.0,0.0,0.0,0.0,0.0,0.0,0.0,0.0,0.0,0.0,0.0,0.0,0.0,0.0,0.0,0.0,0.0,0.0,0.0,0.0,0.0,0.0,0.0,0.0,0.0,0.0,0.0,0.0,0.0,0.0,0.0,0.0,0.0,0.0,0.0,0.0,0.0,0.0,0.0,0.0,0.0,0.0,0.0,0.0,0.0,0.0,0.0,0.0,0.0,0.0,0.0,0.0,0.0,0.0,0.0,0.0,0.0,0.0,0.0,0.0,0.0,0.0,0.0,0.0,0.0,0.0,0.0,0.0,0.0,0.0,0.0,0.0,0.0,0.0,0.0,0.0,0.0,0.0,0.0,0.0,0.0,0.0,0.0,0.0,0.0,0.0,0.0,0.0,0.0,0.0,3.4652,3.7605,3.7859,3.5157,3.248,2.9352,0.0,0.0,0.0,0.0,0.0,0.0,0.0,0.0,0.0,0.0,0.0,0.0,0.0,0.0,0.0,0.0,0.0,0.0,0.0,0.0,0.0,0.0,0.0,0.0,0.0,0.0,0.0,0.0,0.0,0.0,0.0,0.0,0.0,0.0,0.0,0.0,0.0,0.0,0.0,0.0,0.0,0.0,0.0,0.0,0.0,0.0,0.0,0.0,0.0,0.0,0.0,0.0,0.0,0.0,0.0,0.0,0.0,0.0,0.0,0.0,0.0,0.0,0.0,0.0,0.0,0.0,0.0,0.0,0.0,0.0,0.0,0.0,0.0,0.0,0.0,0.0,0.0,0.0,0.0,0.0,0.0,0.0,0.0,0.0,0.0,0.0,0.0,0.0,0.0,0.0,0.0,0.0,0.0,0.0,0.0,0.0,0.0,0.0,0.0,0.0,0.0,0.0,0.0,0.0,0.0,0.0,0.0,0.0,0.0,3.4407,3.8402,4.0342,3.9765,3.5047,3.1942,0.0,0.0,0.0,0.0,0.0,0.0,0.0,0.0,0.0,0.0,0.0,0.0,0.0,0.0,0.0,0.0,0.0,0.0,0.0,0.0,0.0,0.0,0.0,0.0,0.0,0.0,0.0,0.0,0.0,0.0,0.0,0.0,0.0,0.0,0.0,0.0,0.0,0.0,0.0,0.0,0.0,0.0,0.0,0.0,0.0,0.0,0.0,0.0,0.0,0.0,0.0,0.0,0.0,0.0,0.0,0.0,0.0,0.0,0.0,0.0,0.0,0.0,0.0,0.0,0.0,0.0,0.0,0.0,0.0,0.0,0.0,0.0,0.0,0.0,0.0,0.0,0.0,0.0,0.0,0.0,0.0,0.0,0.0,0.0,0.0,0.0,0.0,0.0,0.0,0.0,0.0,0.0,0.0,0.0,0.0,0.0,0.0,0.0,0.0,0.0,0.0,0.0,0.0,0.0,0.0,0.0,0.0,0.0,3.3928,3.6112,3.972,4.1694,4.1931,3.7398,3.3967,0.0,0.0,0.0,0.0,0.0,0.0,0.0,0.0,0.0,0.0,0.0,0.0,0.0,0.0,0.0,0.0,0.0,0.0,0.0,0.0,0.0,0.0,0.0,0.0,0.0,0.0,0.0,0.0,0.0,0.0,0.0,0.0,0.0,0.0,0.0,0.0,0.0,0.0,0.0,0.0,0.0,0.0,0.0,0.0,0.0,0.0,0.0,0.0,0.0,0.0,0.0,0.0,0.0,0.0,0.0,0.0,0.0,0.0,0.0,0.0,0.0,0.0,0.0,0.0,0.0,0.0,0.0,0.0,0.0,0.0,0.0,0.0,0.0,0.0,0.0,0.0,0.0,0.0,0.0,0.0,0.0,0.0,0.0,0.0,0.0,0.0,0.0,0.0,0.0,0.0,0.0,0.0,0.0,0.0,0.0,0.0,0.0,0.0,0.0,0.0,0.0,0.0,0.0,0.0,0.0,0.0,0.0,0.0,3.5754,3.8611,4.1038,4.2287,4.218,3.9254,3.5471,0.0,0.0,0.0,0.0,0.0,0.0,0.0,0.0,0.0,0.0,0.0,0.0,0.0,0.0,0.0,0.0,0.0,0.0,0.0,0.0,0.0,0.0,0.0,0.0,0.0,0.0,0.0,0.0,0.0,0.0,0.0,0.0,0.0,0.0,0.0,0.0,0.0,0.0,0.0,0.0,0.0,0.0,0.0,0.0,0.0,0.0,0.0,0.0,0.0,0.0,0.0,0.0,0.0,0.0,0.0,0.0,0.0,0.0,0.0,0.0,0.0,0.0,0.0,0.0,0.0,0.0,0.0,0.0,0.0,0.0,0.0,0.0,0.0,0.0,0.0,0.0,0.0,0.0,0.0,0.0,0.0,0.0,0.0,0.0,0.0,0.0,0.0,0.0,0.0,0.0,0.0,0.0,0.0,0.0,0.0,0.0,0.0,0.0,0.0,0.0,0.0,0.0,0.0,0.0,0.0,0.0,0.0,0.0,3.5969,3.7826,4.0753,4.2287,4.2251,3.9218,3.6256,0.0,0.0,0.0,0.0,0.0,0.0,0.0,0.0,0.0,0.0,0.0,0.0,0.0,0.0,0.0,0.0,0.0,0.0,0.0,0.0,0.0,0.0,0.0,0.0,0.0,0.0,0.0,0.0,0.0,0.0,0.0,0.0,0.0,0.0,0.0,0.0,0.0,0.0,0.0,0.0,0.0,0.0,0.0,0.0,0.0,0.0,0.0,0.0,3.3019,0.0,0.0,0.0,0.0,0.0,0.0,0.0,0.0,0.0,0.0,0.0,0.0,0.0,0.0,0.0,0.0,0.0,0.0,0.0,0.0,0.0,0.0,0.0,0.0,0.0,0.0,0.0,0.0,0.0,0.0,0.0,0.0,0.0,0.0,0.0,0.0,0.0,0.0,0.0,0.0,0.0,0.0,0.0,0.0,0.0,0.0,0.0,0.0,0.0,0.0,0.0,0.0,0.0,0.0,0.0,0.0,0.0,0.0,0.0,3.6934,3.9182,4.1252,4.2287,4.2216,4.021,3.7324,0.0,0.0,0.0,0.0,0.0,0.0,0.0,0.0,0.0,0.0,0.0,0.0,0.0,0.0,0.0,0.0,0.0,0.0,0.0,0.0,0.0,0.0,0.0,0.0,0.0,0.0,0.0,0.0,0.0,0.0,0.0,0.0,0.0,0.0,0.0,0.0,0.0,0.0,0.0,0.0,0.0,0.0,0.0,0.0,0.0,0.0,0.0,0.0,0.0,0.0,0.0,0.0,0.0,0.0,0.0,0.0,0.0,0.0,0.0,0.0,0.0,0.0,0.0,0.0,0.0,0.0,0.0,0.0,0.0,0.0,0.0,0.0,0.0,0.0,0.0,0.0,0.0,0.0,0.0,0.0,0.0,0.0,0.0,0.0,0.0,0.0,0.0,0.0,0.0,0.0,0.0,0.0,0.0,0.0,0.0,0.0,0.0,0.0,0.0,0.0,0.0,0.0,0.0,0.0,0.0,0.0,0.0,3.4545,3.7862,4.1069,4.1889,4.2246,4.221,4.1215,3.8199,3.3051,0.0,0.0,0.0,0.0,0.0,0.0,0.0,0.0,0.0,0.0,0.0,0.0,0.0,0.0,0.0,0.0,0.0,0.0,0.0,0.0,0.0,0.0,0.0,0.0,0.0,0.0,0.0,0.0,0.0,0.0,0.0,0.0,0.0,0.0,0.0,0.0,0.0,0.0,2.9502,3.2812,0.0,0.0,0.0,0.0,0.0,0.0,0.0,0.0,3.6033,0.0,0.0,0.0,0.0,0.0,0.0,0.0,0.0,0.0,0.0,0.0,0.0,0.0,0.0,0.0,0.0,0.0,0.0,0.0,0.0,0.0,0.0,0.0,0.0,0.0,0.0,0.0,0.0,0.0,0.0,0.0,0.0,0.0,0.0,0.0,0.0,0.0,0.0,0.0,0.0,0.0,0.0,0.0,0.0,0.0,0.0,0.0,0.0,0.0,0.0,0.0,0.0,0.0,0.0,0.0,0.0,3.4536,3.5119,3.7466,4.164,4.1924,4.1959,4.1924,4.0832,3.7802,3.2857,0.0,0.0,0.0,0.0,0.0,0.0,0.0,0.0,0.0,0.0,0.0,0.0,0.0,0.0,0.0,0.0,0.0,0.0,0.0,0.0,0.0,0.0,0.0,0.0,0.0,0.0,0.0,0.0,0.0,0.0,0.0,0.0,0.0,0.0,0.0,0.0,0.0,0.0,0.0,3.5626,3.7091,0.0,0.0,0.0,0.0,0.0,0.0,0.0,0.0,3.6107,0.0,0.0,0.0,0.0,0.0,0.0,0.0,0.0,0.0,0.0,0.0,0.0,0.0,0.0,0.0,0.0,0.0,0.0,0.0,0.0,0.0,0.0,0.0,0.0,0.0,0.0,0.0,0.0,0.0,0.0,0.0,0.0,0.0,0.0,0.0,0.0,0.0,0.0,0.0,0.0,0.0,0.0,0.0,0.0,0.0,0.0,0.0,0.0,0.0,0.0,0.0,0.0,0.0,0.0,0.0,3.3341,3.5223,3.7735,4.092,4.1311,4.1311,4.1024,3.9295,3.6382,0.0,0.0,0.0,0.0,0.0,0.0,0.0,0.0,0.0,0.0,0.0,0.0,0.0,0.0,0.0,0.0,0.0,0.0,0.0,0.0,0.0,0.0,0.0,0.0,0.0,0.0,0.0,0.0,0.0,0.0,0.0,0.0,0.0,0.0,0.0,0.0,0.0,0.0,0.0,0.0,3.6104,3.7579,3.7611,0.0,0.0,0.0,0.0,0.0,0.0,3.8051,3.7713,0.0,0.0,0.0,0.0,0.0,0.0,0.0,0.0,0.0,0.0,0.0,0.0,0.0,0.0,0.0,0.0,0.0,0.0,0.0,0.0,0.0,0.0,0.0,0.0,0.0,0.0,0.0,0.0,0.0,0.0,0.0,0.0,0.0,0.0,0.0,0.0,0.0,0.0,0.0,0.0,0.0,0.0,0.0,0.0,0.0,0.0,0.0,0.0,0.0,0.0,0.0,0.0,0.0,0.0,0.0,3.1773,3.4864,3.7694,4.0114,4.0625,4.0625,4.0182,3.8057,3.5227,0.0,0.0,0.0,0.0,0.0,0.0,0.0,0.0,0.0,0.0,0.0,0.0,0.0,0.0,0.0,0.0,0.0,0.0,0.0,0.0,0.0,0.0,0.0,0.0,0.0,0.0,0.0,0.0,0.0,0.0,0.0,0.0,0.0,0.0,0.0,0.0,0.0,0.0,0.0,0.0,0.0,3.839,3.893,3.9204,0.0,0.0,0.0,0.0,3.9701,4.0393,0.0,0.0,0.0,0.0,0.0,0.0,0.0,0.0,0.0,0.0,0.0,0.0,0.0,0.0,0.0,0.0,0.0,0.0,0.0,0.0,0.0,0.0,0.0,0.0,0.0,0.0,0.0,0.0,0.0,0.0,0.0,0.0,0.0,0.0,0.0,0.0,0.0,0.0,0.0,0.0,0.0,0.0,0.0,0.0,0.0,0.0,0.0,0.0,0.0,0.0,0.0,0.0,0.0,0.0,0.0,0.0,3.1448,3.3748,3.6537,3.9833,4.0086,4.012,4.0036,3.825,3.5476,0.0,0.0,0.0,0.0,0.0,0.0,0.0,0.0,0.0,0.0,0.0,0.0,0.0,0.0,0.0,0.0,0.0,0.0,0.0,0.0,0.0,0.0,0.0,0.0,0.0,0.0,0.0,0.0,0.0,0.0,0.0,0.0,0.0,0.0,0.0,0.0,0.0,0.0,0.0,0.0,0.0,4.0702,3.9567,4.0238,4.1058,0.0,0.0,4.1519,4.3361,4.3727,0.0,0.0,0.0,0.0,0.0,0.0,0.0,0.0,0.0,0.0,0.0,0.0,0.0,0.0,0.0,0.0,0.0,0.0,0.0,0.0,0.0,0.0,0.0,0.0,0.0,0.0,0.0,0.0,0.0,0.0,0.0,0.0,0.0,0.0,0.0,0.0,0.0,0.0,0.0,0.0,0.0,0.0,0.0,0.0,0.0,0.0,0.0,0.0,0.0,0.0,0.0,0.0,0.0,0.0,0.0,2.6387,3.1021,3.4039,3.6703,3.8983,3.9295,3.9295,3.9082,3.6355,3.3694,0.0,0.0,0.0,0.0,0.0,0.0,0.0,0.0,0.0,0.0,0.0,0.0,0.0,0.0,0.0,0.0,0.0,0.0,0.0,0.0,0.0,0.0,0.0,0.0,0.0,0.0,0.0,0.0,0.0,0.0,0.0,0.0,0.0,0.0,0.0,0.0,0.0,0.0,0.0,0.0,0.0,0.0,4.1678,4.2892,0.0,0.0,0.0,4.4131,4.5123,0.0,0.0,0.0,0.0,0.0,0.0,0.0,0.0,0.0,0.0,0.0,0.0,0.0,0.0,0.0,0.0,0.0,0.0,0.0,0.0,0.0,0.0,0.0,0.0,0.0,0.0,0.0,0.0,0.0,0.0,0.0,0.0,0.0,0.0,0.0,0.0,0.0,0.0,0.0,0.0,0.0,0.0,0.0,0.0,0.0,0.0,0.0,0.0,0.0,0.0,0.0,0.0,0.0,0.0,0.0,0.0,0.0,3.0657,3.4267,3.6819,3.8197,3.8488,3.8455,3.8084,3.5215,0.0,0.0,0.0,0.0,0.0,0.0,0.0,0.0,0.0,0.0,0.0,0.0,0.0,0.0,0.0,0.0,0.0,0.0,0.0,0.0,0.0,0.0,0.0,0.0,0.0,0.0,0.0,2.1062,0.0,0.0,0.0,0.0,0.0,0.0,0.0,0.0,0.0,0.0,0.0,0.0,0.0,0.0,4.2574,4.3506,4.5147,4.6287,0.0,0.0,4.6484,4.6515,4.6487,4.5211,0.0,0.0,0.0,0.0,0.0,0.0,0.0,0.0,0.0,0.0,0.0,0.0,0.0,0.0,0.0,0.0,0.0,0.0,0.0,0.0,0.0,0.0,0.0,0.0,0.0,0.0,0.0,0.0,0.0,0.0,0.0,0.0,0.0,0.0,0.0,0.0,0.0,0.0,0.0,0.0,0.0,0.0,0.0,0.0,0.0,0.0,0.0,0.0,0.0,0.0,0.0,0.0,0.0,0.0,0.0,3.0616,3.3834,3.6253,3.7822,3.7653,3.7476,3.7445,3.6014,3.3649,0.0,0.0,0.0,0.0,0.0,0.0,0.0,0.0,0.0,0.0,0.0,0.0,0.0,0.0,0.0,0.0,0.0,0.0,0.0,0.0,0.0,0.0,0.0,0.0,0.0,0.0,0.0,0.0,0.0,0.0,0.0,0.0,0.0,0.0,0.0,0.0,0.0,0.0,0.0,0.0,0.0,4.4292,4.4659,4.6257,4.773,0.0,0.0,4.8253,4.7939,4.9523,4.8673,4.255,0.0,0.0,0.0,0.0,0.0,0.0,0.0,0.0,0.0,0.0,0.0,0.0,0.0,0.0,0.0,0.0,0.0,0.0,0.0,0.0,0.0,0.0,0.0,0.0,0.0,0.0,0.0,0.0,0.0,0.0,0.0,0.0,0.0,0.0,0.0,0.0,0.0,0.0,0.0,0.0,0.0,0.0,0.0,0.0,0.0,0.0,0.0,0.0,0.0,0.0,0.0,0.0,0.0,2.5705,3.0031,3.3578,3.6115,3.7531,3.7476,3.7385,3.7385,3.6032,3.3943,0.0,0.0,0.0,0.0,0.0,0.0,0.0,0.0,0.0,0.0,0.0,0.0,0.0,0.0,0.0,0.0,0.0,0.0,0.0,0.0,0.0,0.0,0.0,0.0,0.0,0.0,0.0,0.0,2.4997,2.5745,2.5479,0.0,0.0,0.0,0.0,0.0,0.0,0.0,0.0,0.0,0.0,4.5245,4.6977,4.8278,0.0,0.0,4.9596,4.9635,4.9977,4.9159,4.754,4.4625,4.3557,0.0,0.0,0.0,0.0,0.0,0.0,0.0,0.0,0.0,0.0,0.0,0.0,0.0,0.0,0.0,0.0,0.0,0.0,0.0,0.0,0.0,0.0,0.0,0.0,0.0,0.0,0.0,0.0,0.0,0.0,0.0,0.0,0.0,0.0,0.0,0.0,0.0,0.0,0.0,0.0,0.0,0.0,0.0,0.0,0.0,0.0,0.0,0.0,0.0,0.0,0.0,0.0,2.5599,2.9673,3.3266,3.5828,3.7207,3.7178,3.7118,3.7087,3.599,3.4187,0.0,0.0,0.0,0.0,0.0,0.0,0.0,0.0,0.0,0.0,0.0,0.0,0.0,0.0,0.0,0.0,0.0,0.0,0.0,0.0,0.0,0.0,0.0,0.0,0.0,0.0,0.0,0.0,2.5981,2.642,2.5836,0.0,0.0,0.0,0.0,0.0,0.0,0.0,0.0,0.0,0.0,4.6711,4.8809,4.9975,5.0685,5.0685,5.083,5.0936,5.1001,4.9714,4.8144,4.6352,0.0,0.0,0.0,0.0,0.0,0.0,0.0,0.0,0.0,0.0,0.0,0.0,0.0,0.0,0.0,0.0,0.0,0.0,0.0,0.0,0.0,0.0,0.0,0.0,0.0,0.0,0.0,0.0,0.0,0.0,1.1541,0.0,0.0,0.0,0.0,0.0,0.0,0.0,0.0,0.0,0.0,0.0,0.0,0.0,0.0,0.0,0.0,0.0,0.0,0.0,0.0,0.0,0.0,2.5799,2.9673,3.2926,3.5301,3.6937,3.6693,3.6538,3.6538,3.5891,3.4399,3.208,0.0,0.0,0.0,0.0,0.0,0.0,0.0,0.0,0.0,0.0,0.0,0.0,0.0,0.0,0.0,0.0,0.0,0.0,0.0,0.0,0.0,0.0,0.0,0.0,0.0,0.0,2.5533,2.6118,2.6354,0.0,0.0,0.0,0.0,0.0,0.0,0.0,0.0,0.0,0.0,4.6684,4.8875,4.9913,5.1165,5.1882,5.1915,5.2416,5.2265,5.0894,5.191,5.1487,0.0,0.0,0.0,0.0,0.0,0.0,0.0,0.0,0.0,0.0,0.0,0.0,0.0,0.0,0.0,0.0,0.0,0.0,0.0,0.0,0.0,0.0,0.0,0.0,0.0,0.0,0.0,1.8046,1.7292,0.0,0.0,0.0,0.0,0.0,0.0,0.0,0.0,0.0,0.0,0.0,2.5146,2.5574,0.0,0.0,0.0,0.0,0.0,0.0,0.0,0.0,0.0,0.0,0.0,0.0,2.6167,2.9627,3.2874,3.5182,3.6631,3.6538,3.6507,3.6507,3.6261,3.5081,3.2719,0.0,0.0,0.0,0.0,0.0,0.0,0.0,0.0,0.0,0.0,0.0,0.0,0.0,0.0,0.0,0.0,0.0,0.0,0.0,0.0,0.0,0.0,0.0,0.0,0.0,2.4888,0.0,0.0,0.0,0.0,0.0,0.0,0.0,0.0,0.0,0.0,0.0,4.2938,4.6253,4.7977,4.9336,5.0617,5.1917,5.2606,0.0,0.0,0.0,0.0,0.0,0.0,0.0,0.0,0.0,0.0,0.0,0.0,0.0,0.0,5.1933,4.7652,4.6433,4.6097,4.6318,0.0,0.0,0.0,0.0,0.0,0.0,0.0,0.0,0.0,0.0,0.0,0.0,0.0,0.0,2.1246,0.0,1.9971,0.0,0.0,0.0,0.0,0.0,0.0,0.0,0.0,2.6658,2.8142,2.8523,2.9713,2.9773,0.0,3.0421,2.8342,0.0,0.0,0.0,0.0,0.0,0.0,0.0,0.0,2.7252,3.0328,3.3326,3.5368,3.6445,3.6507,3.6507,3.6507,3.6261,3.5363,3.3599,3.1507,2.9454,0.0,0.0,0.0,0.0,0.0,0.0,0.0,0.0,0.0,0.0,0.0,0.0,0.0,0.0,0.0,0.0,0.0,0.0,0.0,0.0,0.0,0.0,0.0,2.6004,0.0,0.0,0.0,0.0,0.0,0.0,0.0,0.0,0.0,4.11,4.3084,4.5859,4.9433,4.9961,5.0652,5.2421,0.0,0.0,0.0,0.0,0.0,0.0,0.0,5.3029,5.3253,5.3018,5.3197,5.4358,5.5994,5.705,5.6651,0.0,0.0,5.2324,5.0996,5.0673,5.0923,5.0975,5.1149,5.1833,5.2657,5.3375,0.0,0.0,0.0,0.0,0.0,0.0,0.0,0.0,2.4021,2.4257,0.0,2.3366,0.0,0.0,0.0,0.0,0.0,2.4351,0.0,0.0,3.0117,3.1511,3.1541,3.1659,3.1988,3.2587,3.3487,3.2491,2.9516,2.473,0.0,0.0,0.0,0.0,0.0,0.0,2.9024,3.1725,3.4222,3.5799,3.6476,3.6507,3.6507,3.6476,3.5891,3.5214,3.4596,3.3685,3.2258,3.013,2.7934,0.0,0.0,0.0,0.0,0.0,0.0,0.0,0.0,0.0,0.0,0.0,0.0,0.0,0.0,0.0,0.0,0.0,0.0,0.0,0.0,2.6756,0.0,0.0,0.0,0.0,0.0,0.0,0.0,0.0,0.0,0.0,4.4614,4.6613,4.9466,5.3074,0.0,0.0,0.0,0.0,5.5002,5.527,5.6833,5.7534,5.6211,5.7239,5.7487,5.5783,0.0,0.0,5.7061,5.8296,5.9001,5.7614,5.8654,5.9451,5.8962,5.7332,5.6497,5.7119,5.6746,5.6715,5.7399,5.8412,5.9378,2.8217,0.0,0.0,0.0,0.0,2.6449,2.7695,2.9805,2.9292,2.8596,2.7731,2.741,0.0,0.0,0.0,0.0,0.0,0.0,2.8411,3.0051,3.1501,3.2736,3.3634,3.4143,3.4203,3.3933,3.4663,3.394,3.1717,3.0188,2.7188,2.2797,0.0,0.0,0.0,0.0,3.068,3.2869,3.4657,3.5799,3.6476,3.6507,3.6507,3.6507,3.6322,3.6107,3.5922,3.5239,3.4089,3.2509,3.066,0.0,0.0,0.0,0.0,0.0,0.0,0.0,0.0,0.0,0.0,0.0,0.0,0.0,0.0,0.0,0.0,0.0,0.0,0.0,2.7981,2.9002,3.0171,0.0,0.0,0.0,0.0,0.0,0.0,0.0,0.0,0.0,5.0713,5.0681,5.1415,0.0,0.0,5.4336,5.5796,5.6617,5.706,5.7253,0.0,0.0,0.0,5.7005,5.7232,5.7882,5.9607,6.0767,6.0075,6.1247,6.2,6.1163,6.1839,6.2456,6.2156,6.0431,5.9147,5.9672,6.0074,6.0321,6.0568,6.136,6.1902,3.1849,3.0195,2.9077,2.9046,2.9873,2.9762,3.068,3.2387,3.1905,3.1516,3.1213,3.0697,2.9388,2.7597,2.6941,0.0,0.0,0.0,3.0762,3.2543,3.3036,3.3844,3.4861,3.531,3.528,3.4921,3.5326,3.4904,3.3694,3.3756,3.1652,2.7667,0.0,0.0,2.813,3.0339,3.2419,3.4198,3.5306,3.6076,3.6476,3.6507,3.6507,3.6507,3.6507,3.6507,3.6507,3.6107,3.5368,3.426,3.2478,3.0261,0.0,0.0,0.0,0.0,0.0,0.0,0.0,0.0,0.0,0.0,0.0,2.299,2.172,0.0,0.0,0.0,2.6454,2.9154,3.2008,3.3305,0.0,0.0,0.0,0.0,0.0,0.0,0.0,4.9526,5.1425,5.3434,5.5613,5.5172,5.5103,5.6525,5.6304,5.6493,5.7984,0.0,5.8733,5.8831,5.9722,6.0147,5.958,5.8932,5.8777,5.9471,6.09,6.1785,6.1586,6.2599,6.3192,6.2911,6.3173,6.3735,6.3698,6.26,6.1691,6.1877,6.2254,6.2579,6.261,6.3164,6.3656,3.415,3.3913,3.2129,3.1436,3.1597,3.2241,3.2573,3.2736,3.2766,3.3395,3.4352,3.3215,3.2464,3.2109,3.067,0.0,3.1409,3.2104,3.3152,3.4562,3.4562,3.4891,3.5489,3.5489,3.5489,3.5489,3.5499,3.5529,3.5489,3.5559,3.4783,3.2946,3.1712,3.149,3.2287,3.2986,3.4053,3.5553,3.6168,3.6476,3.6507,3.6507,3.6507,3.6507,3.6445,3.6415,3.6415,3.6353,3.6045,3.5368,3.3521,3.1743,3.0047,0.0,0.0,0.0,0.0,0.0,0.0,0.0,0.0,0.0,0.0,0.0,0.0,0.0,0.0,0.0,3.1058,0.0,3.6847,3.8731,0.0,0.0,0.0,4.4365,4.6465,4.8643,5.1089,5.4045,0.0,0.0,5.9361,0.0,5.9655,6.0662,5.937,5.9016,6.0738,6.0387,6.0081,6.0198,6.1177,6.2029,6.2016,6.1725,6.1109,6.0509,6.1145,6.1652,6.1777,6.2644,6.3185,6.3067,6.3464,6.4015,6.4027,6.4457,6.4577,6.3891,6.3871,6.3872,6.3903,6.4334,6.4764,3.4633,3.464,3.4352,3.3937,3.3514,3.3878,3.4267,3.4771,3.4801,3.4681,3.4442,3.4143,3.3696,3.3156,3.2764,3.3005,3.3728,3.3878,3.4448,3.522,3.525,3.534,3.5489,3.5489,3.5489,3.5489,3.5459,3.5459,3.5489,3.5554,3.5314,3.4865,3.4535,3.3818,3.2846,3.4088,3.5126,3.6013,3.6322,3.6507,3.6507,3.6507,3.6507,3.6476,3.5984,3.5707,3.5707,3.5214,3.4876,3.4691,3.3737,3.253,3.1093,2.7721,0.0,0.0,0.0,0.0,0.0,0.0,0.0,0.0,0.0,2.9228,2.5447,0.0,3.2895,0.0,3.5252,3.8288,4.0949,4.2049,0.0,0.0,4.8179,4.978,5.2437,5.3822,5.4972,5.613,5.7515,5.8853,6.0013,6.0671,6.1308,6.2019,6.0732,6.0204,6.1627,6.1524,6.1442,6.1941,6.2437,6.2589,6.2365,6.2044,6.1754,6.0689,6.1145,6.1738,6.2268,6.3027,6.386,6.4601,6.5397,6.5901,6.5878,6.5696,6.5388,6.5232,6.5249,6.5157,6.4751,6.4795,6.4918,3.4698,3.4735,3.4935,3.486,3.4505,3.4793,3.516,3.5489,3.5489,3.531,3.4921,3.4921,3.4678,3.4256,3.4256,3.4498,3.4921,3.4857,3.5001,3.5359,3.5454,3.5454,3.5359,3.5454,3.5489,3.5489,3.5489,3.5489,3.5489,3.5489,3.5489,3.5519,3.5133,3.4634,3.4089,3.497,3.5704,3.6196,3.6352,3.6414,3.6507,3.6507,3.6353,3.6045,3.5984,3.5645,3.506,3.4968,3.4629,3.4014,3.3336,3.2598,3.1828,2.9243,2.7442,0.0,0.0,0.0,0.0,0.0,0.0,0.0,0.0,0.0,0.0,0.0,3.6326,3.7595,4.0428,4.3394,4.6214,4.7378,4.9092,5.1765,5.2604,5.3821,5.5967,5.6693,5.7582,5.8833,5.9751,6.057,6.129,6.1816,6.2217,6.2659,6.213,6.1825,6.2123,6.2191,6.2353,6.2944,6.3226,6.3213,6.3045,6.3406,6.3121,6.1782,6.1968,6.264,6.2692,6.3586,6.4555,6.5073,6.5901,6.6374,6.5947,6.6054,6.5947,6.5483,6.57,6.5731,6.5108,6.5134,6.5349,3.4563,3.4496,3.4735,3.4868,3.4935,3.5294,3.5424,3.5489,3.5489,3.5424,3.5424,3.5454,3.5359,3.5198,3.5228,3.5294,3.5424,3.5294,3.5228,3.5228,3.5359,3.5359,3.5228,3.5454,3.5519,3.5489,3.5489,3.5489,3.5489,3.5489,3.5454,3.5359,3.4677,3.461,3.5228,3.5429,3.5752,3.6133,3.6196,3.6289,3.6414,3.6476,3.6199,3.5676,3.6014,3.5676,3.4568,3.4937,3.466,3.346,3.2906,3.2659,3.2628,3.0843,2.9867,0.0,2.9418,0.0,0.0,0.0,0.0,0.0,0.0,0.0,0.0,3.8309,4.0065,4.2911,4.5905,4.8714,5.1285,5.2807,5.4228,5.5683,5.6094,5.6741,5.792,5.8366,5.9321,6.1367,6.1673,6.1979,6.2479,6.2615,6.2649,6.2819,6.3103,6.3159,6.2821,6.2876,6.3114,6.3599,6.3734,6.4016,6.4328,6.5005,6.4745,6.3036,6.3068,6.3517,6.3052,6.4019,6.4919,6.4988,6.5753,6.6161,6.5218,6.587,6.6054,6.5297,6.5731,6.5978,6.528,6.5491,6.5985,3.4563,3.4631,3.4698,3.4831,3.4935,3.5001,3.5228,3.5489,3.5294,3.5294,3.5294,3.5228,3.5228,3.5228,3.5359,3.5294,3.5001,3.5294,3.5359,3.5198,3.5228,3.5359,3.5424,3.5448,3.5514,3.5489,3.5489,3.5489,3.5489,3.5489,3.5133,3.4543,3.438,3.4177,3.3934,0.0,0.0,0.0,3.6133,3.6196,3.6289,3.6414,3.6415,3.6292,3.5368,0.0,3.4475,3.4044,3.3675,3.3429,3.3829,0.0,0.0,0.0,0.0,0.0,0.0,0.0,0.0,0.0,0.0,0.0,4.0094,4.0177,3.9752,4.4497,4.7684,4.7797,5.0488,5.2469,5.301,5.3856,5.4972,5.6427,5.7103,5.792,5.8948,6.0028,6.0935,6.1393,6.1961,6.229,6.2425,6.2459,6.2696,6.3238,6.3429,6.37,6.414,6.4187,6.4288,6.441,6.485,6.5194,6.5138,6.5282,6.5114,6.3862,6.3385,6.3563,6.3956,6.3953,6.4564,6.5249,6.5714,6.6054,6.6192,6.6054,6.5808,6.5592,6.5406,6.5108,6.5029,6.5744,6.643,3.4877,0.0,3.4589,3.4553,0.0,3.4802,3.4935,3.5228,3.5228,3.5133,3.5067,3.5162,3.5162,3.5067,3.5133,3.5228,3.5228,3.5294,3.5228,3.5067,3.5294,3.5294,3.5228,3.5419,3.5484,3.5489,3.5489,3.5489,3.5489,3.5133,3.4905,3.4905,3.3768,3.3394,3.3905,3.4495,3.5171,3.5973,3.6133,3.6289,3.6352,3.6414,3.6322,3.5984,0.0,0.0,0.0,0.0,0.0,0.0,0.0,0.0,0.0,0.0,0.0,3.583,3.5734,3.6133,3.7219,3.8716,4.0469,4.2256,4.4724,4.5604,4.4131,4.8471,5.102,5.0757,5.2741,5.4194,5.46,5.5243,5.6122,5.7205,5.7983,5.8727,5.958,6.0664,6.1434,6.1849,6.2222,6.2415,6.2415,6.2753,6.3091,6.3497,6.4174,6.4715,6.5019,6.4816,6.4715,6.5087,6.5764,6.6171,6.6048,6.6062,6.568,6.4819,6.4695,6.4739,6.4784,6.4695,6.4889,6.5544,6.57,6.57,6.5731,6.5731,6.5592,6.5406,6.5297,6.5342,6.543,6.6127,6.6796,3.4933,3.501,3.4337,3.4342,3.4748,3.4748,3.4952,3.5192,0.0,0.0,0.0,3.503,3.5001,3.4868,3.4868,3.5067,3.5359,3.5228,3.5067,3.4935,3.5228,3.5228,3.5001,3.5228,3.5424,3.5454,3.5489,3.5489,3.5489,3.4839,3.4677,3.4868,3.3326,3.3127,3.4387,3.5016,3.5595,3.6273,3.6435,3.6562,3.6783,3.6783,3.6569,3.6014,3.6415,3.6138,3.506,3.5553,3.5306,3.4229,3.4814,3.5491,3.6168,3.6722,3.7892,3.9739,4.0416,4.0878,4.1247,4.2786,4.4044,4.4651,4.8263,4.9856,4.8531,5.096,5.2503,5.2536,5.3788,5.4905,5.5649,5.6393,5.707,5.7814,5.8693,5.9438,6.0047,6.096,6.1738,6.2279,6.2381,6.2415,6.2415,6.3024,6.3565,6.3835,6.4783,6.5764,6.5764,6.5459,6.5324,6.5831,6.6373,6.6779,6.6846,6.6897,6.6608,6.568,6.6163,6.6303,6.5606,6.5401,6.5544,6.5498,6.5592,6.5375,6.5156,6.5375,6.5483,6.5077,6.539,6.5778,6.6046,6.6611,6.7227,3.3963,3.3957,3.3805,3.4203,3.4933,3.4961,3.5497,3.6248,3.5234,3.4765,3.4765,3.4765,3.4765,3.4765,3.4868,3.4868,3.4831,3.4868,3.5001,0.0,3.4898,3.4964,3.5162,3.5001,3.5067,3.5228,3.5454,3.5489,3.5489,3.5359,3.4706,3.3716,3.3747,3.4209,3.4933,3.5192,3.5983,3.7436,3.7637,3.7801,3.7801,3.8034,3.82,3.8077,3.7584,3.7277,3.7092,3.7153,3.7123,3.6938,3.7584,3.8231,3.8908,3.9031,3.977,4.1155,4.1401,4.2202,4.3864,4.4295,4.5809,4.8827,5.087,5.1322,5.0007,5.1927,5.3348,5.3348,5.4126,5.4905,5.5649,5.6393,5.7137,5.7881,5.9133,5.9979,6.0114,6.1366,6.2245,6.2381,6.2415,6.2415,6.2516,6.3091,6.3802,6.441,6.5222,6.5933,6.6406,6.6576,6.6542,6.6643,6.6745,6.6812,6.688,6.7387,6.7247,6.6311,6.7314,6.7579,6.5879,6.59,6.5985,6.5156,6.5077,6.5156,6.539,6.5235,6.5266,6.5313,6.5637,6.5985,6.655,6.7258,6.7812,3.3993,3.4146,3.3727,3.3853,3.4293,3.4293,3.4845,3.5625,3.5153,3.5004,3.5195,3.5195,3.5019,3.4698,3.4765,3.4802,3.4802,3.4868,3.4898,3.4898,3.4802,3.4898,3.503,3.4957,3.5267,3.5896,3.632,3.6537,3.647,3.5692,3.5317,3.5386,3.4939,3.4815,3.5096,3.5479,3.6533,3.8012,3.8091,3.8111,3.8111,3.8376,3.8508,3.8508,3.82,3.8046,3.8046,3.8046,3.8046,3.8046,3.9031,3.9739,4.0047,4.0685,4.1546,4.2602,4.2959,4.3697,4.5033,4.5803,4.7279,4.9777,5.1025,5.1598,5.1263,5.2597,5.3518,5.3551,5.4532,5.5344,5.5716,5.6731,5.7543,5.7848,5.9201,6.008,6.025,6.1467,6.2381,6.2415,6.2415,6.255,6.2956,6.3632,6.4377,6.5087,6.5831,6.644,6.6779,6.6812,6.6812,6.6812,6.6812,6.6812,6.6846,6.7421,6.7656,6.7221,6.792,6.8097,6.7199,6.6946,6.6322,6.5915,6.5297,6.4967,6.5204,6.5046,6.5077,6.5218,6.5713,6.6088,6.6796,6.7689,6.852,3.3918,3.4179,3.3636,3.3511,3.3882,3.4012,3.4476,3.5085,3.5161,3.5345,3.5623,3.5758,3.5419,3.4864,3.4835,3.4815,3.4831,3.4802,3.489,3.497,3.5037,3.5096,3.5213,3.503,3.5497,3.6611,3.7464,3.7605,3.702,3.5899,3.5812,3.6574,3.5441,3.4927,3.5217,3.5891,3.6974,3.8288,3.8439,3.8537,3.8605,3.8836,3.897,3.897,3.897,3.897,3.897,3.9123,3.9216,3.9277,4.0355,4.1063,4.1247,4.2057,4.3008,4.3956,4.4358,4.5033,4.6018,4.7367,4.8618,4.9805,5.0767,5.1688,5.229,5.3004,5.3585,5.3856,5.4938,5.575,5.6089,5.7103,5.7949,5.8186,5.9302,6.0182,6.0452,6.1569,6.2415,6.2415,6.2415,6.2685,6.3429,6.414,6.4918,6.5797,6.6474,6.6779,6.6812,6.6812,6.6812,6.6812,6.6812,6.6812,6.688,6.7624,6.8046,6.7873,6.8674,6.8738,6.8207,6.7176,6.6638,6.6205,6.5406,6.4998,6.4888,6.4888,6.5011,6.5226,6.5811,6.6427,6.735,6.8335,6.9197,3.2846,3.2882,3.3054,3.3623,3.4354,3.5036,3.5411,3.5491,3.5518,3.5691,3.5921,3.6173,3.588,3.5398,3.5339,3.5117,3.4785,3.4563,3.4952,3.5654,3.5477,3.5729,3.6166,3.5354,3.5554,3.691,3.8311,3.8038,3.6474,3.6172,3.5747,3.4936,3.41,3.4447,3.5598,3.6364,3.7272,3.819,3.9086,3.9657,3.9798,4.0147,4.0324,4.0355,4.0324,4.0355,4.0293,4.097,4.1309,4.137,4.1986,4.2663,4.3187,4.3402,4.4048,4.5249,4.5464,4.6049,4.7281,4.8809,4.9694,5.0026,5.1252,5.2125,5.229,5.3004,5.3822,5.4464,5.5207,5.5953,5.6664,5.7408,5.8152,5.8761,5.9573,6.0385,6.1095,6.1907,6.2415,6.2415,6.2415,6.2685,6.3497,6.4309,6.5222,6.6406,6.6711,6.6812,6.6812,6.6812,6.6812,6.6812,6.6812,6.688,6.7015,6.8064,6.8479,6.8002,6.9501,6.9556,6.8241,6.7673,6.7497,6.5991,6.5187,6.5108,6.4888,6.4918,6.5146,6.5617,6.6313,6.7196,6.8366,6.9166,6.969,3.2463,3.2723,3.281,3.3154,3.3641,3.3953,3.4454,3.4841,3.4868,3.5197,3.5751,3.5864,3.5929,3.5938,3.5938,3.5834,3.563,3.5532,3.5408,3.5425,3.521,3.5135,3.5068,3.56,3.5918,3.618,3.7329,3.7502,3.6721,3.6589,3.5892,3.474,3.4686,3.5117,3.5736,3.6056,3.6844,3.8202,3.8694,3.9277,3.991,4.0261,4.0401,4.0501,4.0909,4.1155,4.1247,4.1832,4.2202,4.2232,4.2817,4.331,4.3556,4.425,4.4926,4.5588,4.6357,4.7108,4.7978,4.8697,4.9309,4.9868,5.0493,5.1038,5.1572,5.2715,5.3766,5.4489,5.5295,5.6021,5.6731,5.7476,5.8186,5.893,5.9674,6.0419,6.1231,6.1941,6.2415,6.2415,6.2415,6.2888,6.4005,6.5189,6.6102,6.6745,6.6812,6.6812,6.6812,6.6812,6.6812,6.688,6.7151,6.7455,6.7523,6.8335,6.8884,6.9278,7.0299,7.0296,6.8993,6.8667,6.8403,6.6205,6.5808,6.5406,6.4998,6.5288,6.5688,6.619,6.6928,6.7812,6.8705,6.9105,6.9536,3.2421,3.266,3.2624,3.2723,3.2982,3.2982,3.3411,3.3979,3.4063,3.4538,3.5224,3.5224,3.5562,3.6031,3.62,3.6028,3.5638,3.5827,3.5549,3.4994,3.4946,3.4727,3.4612,3.5521,3.5947,3.5787,3.592,3.617,3.6369,3.6239,3.5575,3.4647,3.5032,3.544,3.5736,3.5896,3.6766,3.8127,3.8692,3.9327,4.0141,4.0578,4.0821,4.0839,4.1494,4.1894,4.1894,4.2468,4.2806,4.2879,4.342,4.385,4.4172,4.491,4.5507,4.6203,4.7138,4.7916,4.8355,4.8552,4.8852,4.9501,4.971,5.0214,5.1069,5.2235,5.356,5.4678,5.5255,5.6006,5.7036,5.7746,5.849,5.9235,5.9979,6.0757,6.1535,6.211,6.2415,6.2415,6.2618,6.326,6.4681,6.5933,6.6779,6.6812,6.6812,6.6812,6.6812,6.6812,6.6812,6.6846,6.7251,6.7536,6.7877,6.8425,6.9254,6.9883,7.0411,6.9982,6.9283,6.909,6.8403,6.5808,6.6098,6.5915,6.517,6.5411,6.618,6.6642,6.7381,6.8274,6.8766,6.8982,6.9659,3.2804,3.2731,3.2509,3.2599,3.2723,3.2723,3.2896,3.324,3.3154,3.3666,3.4397,3.4481,3.4897,3.5598,3.5808,3.5176,3.4175,3.4854,3.501,3.4706,3.4733,3.5031,3.5547,3.5656,3.5683,3.5573,3.4607,3.4525,3.5278,3.4868,3.4481,3.4397,3.4481,3.4895,3.5629,3.635,3.726,3.8225,3.9445,4.0337,4.0721,4.1485,4.1809,4.1669,4.2202,4.2571,4.2633,4.3039,4.3407,4.3556,4.3899,4.4433,4.5325,4.5432,4.5997,4.7292,4.7978,4.8324,4.8521,4.8604,4.8604,4.8769,4.9452,5.0165,5.0798,5.1789,5.3168,5.5156,5.5314,5.6088,5.7527,5.8349,5.9092,5.9802,6.0723,6.1467,6.2212,6.2313,6.2381,6.2516,6.3024,6.4005,6.5392,6.6305,6.6745,6.6812,6.6812,6.6728,6.6643,6.6728,6.6728,6.6608,6.6577,6.6779,6.7685,6.8361,6.9018,6.9736,6.9523,6.8502,6.7871,6.7292,6.6385,6.5592,6.5483,6.5437,6.5121,6.5596,6.655,6.7258,6.8058,6.8797,6.8858,6.9443,7.0028,3.2578,3.329,3.3048,3.298,3.3195,3.2872,3.2896,3.3068,3.3093,3.324,3.3496,3.3581,3.3725,3.4011,3.4711,3.4982,3.4925,3.5292,3.5033,3.455,3.4495,3.4354,3.4011,3.3991,3.41,3.421,3.3814,3.3923,3.4428,3.4314,3.423,3.4397,3.4397,3.4748,3.5372,3.5702,3.6743,3.8394,3.9154,3.9974,4.1235,4.2063,4.25,4.2659,4.3021,4.3144,4.31,4.3639,4.4113,4.4464,4.4739,4.5135,4.5727,4.6345,4.6875,4.7562,4.8149,4.8469,4.8271,4.8438,4.8604,4.8635,4.9285,4.9854,5.0328,5.1663,5.3067,5.3856,5.4875,5.6014,5.7453,5.853,5.9077,5.9365,6.0482,6.1603,6.2178,6.2415,6.2415,6.2584,6.3429,6.4613,6.5444,6.6339,6.6812,6.6812,6.6812,6.6525,6.6062,6.6354,6.6354,6.5525,6.6105,6.6898,6.6494,6.7784,6.8798,6.9357,6.9376,6.8271,6.7599,6.7497,6.6806,6.5483,6.5187,6.5421,6.5386,6.5842,6.6796,6.8027,6.8828,6.8735,6.8889,6.9259,6.9843,3.1941,3.2816,3.2759,3.298,3.3473,3.3217,3.3146,3.3258,3.3345,3.3244,3.3119,3.3093,3.3093,3.3154,3.3751,3.4204,3.4815,3.5061,3.4759,3.4063,3.3979,3.3641,3.3189,3.3157,3.3157,3.3335,3.3411,3.3663,3.3953,3.4089,3.436,3.4685,3.4685,3.5142,3.5811,3.5976,3.6926,3.8475,3.9191,4.022,4.1466,4.2496,4.3166,4.3427,4.3808,4.3884,4.3624,4.4159,4.4552,4.4929,4.5172,4.5566,4.6152,4.6932,4.7479,4.7819,4.8218,4.8385,4.8218,4.8438,4.8727,4.8943,4.9404,4.9805,5.0383,5.1732,5.2659,5.3397,5.4166,5.5522,5.6711,5.7793,5.8764,5.9498,6.0852,6.1806,6.2313,6.2144,6.2186,6.2724,6.3741,6.4802,6.5497,6.6272,6.6372,6.5942,6.6062,6.5855,6.5204,6.5293,6.5603,6.4467,6.5348,6.6191,6.6388,6.7297,6.8046,6.8666,6.8107,6.7362,6.7189,6.7189,6.6774,6.5592,6.528,6.5544,6.5978,6.6293,6.7227,6.852,6.8643,6.8427,6.8643,6.8889,6.9659,3.1096,3.1704,3.1613,3.2371,3.3421,3.3601,3.372,3.3568,3.3809,3.3621,3.3219,3.3144,3.3144,3.3154,3.324,3.324,3.3411,3.4063,3.3979,3.324,3.324,3.3154,3.3068,3.3129,3.3104,3.3154,3.33,3.3471,3.3802,3.4108,3.451,3.5122,3.5312,3.5917,3.7331,3.716,3.767,3.8699,3.9947,4.0804,4.1186,4.2624,4.3536,4.3814,4.4455,4.4643,4.4281,4.4546,4.478,4.5092,4.5251,4.574,4.6569,4.7202,4.7764,4.8019,4.8133,4.8218,4.8438,4.8552,4.8828,4.9466,4.9712,5.0297,5.1251,5.1739,5.243,5.3444,5.3859,5.4378,5.528,5.6626,5.8281,6.074,6.1379,6.1929,6.1997,6.1513,6.155,6.2813,6.3752,6.464,6.5354,6.5855,6.5767,6.4753,6.472,6.4934,6.411,6.4175,6.4247,6.4417,6.4863,6.5432,6.6071,6.678,6.724,6.7465,6.6565,6.5808,6.6098,6.6205,6.5884,6.5029,6.5276,6.5571,6.6344,6.6765,6.735,6.8274,6.815,6.8335,6.8643,6.9012,6.9628,3.0751,3.1484,3.1174,3.1825,3.2935,3.2724,3.3116,3.3999,3.418,3.397,3.3696,3.3646,3.3445,3.3144,3.3093,3.3093,3.3154,3.3411,3.3326,3.3205,3.3093,3.3093,3.3093,3.3093,3.3093,3.3068,3.3154,3.3528,3.4005,3.4315,3.4882,3.5522,3.5774,3.6236,3.714,3.7166,3.7739,3.8874,3.9526,4.0322,4.1522,4.2216,4.3108,4.4198,4.4469,4.47,4.5132,4.5263,4.5432,4.5883,4.6124,4.6515,4.7202,4.7503,4.7624,4.7624,4.788,4.8049,4.8218,4.8301,4.8806,4.962,5.0112,5.0759,5.1621,5.2144,5.2541,5.3082,5.3113,5.3694,5.5405,5.6169,5.7172,5.8249,5.9565,6.0567,6.0567,6.0312,6.0707,6.1816,6.2464,6.3031,6.4021,6.4753,6.4571,6.3891,6.3952,6.3891,6.3196,6.3581,6.3772,6.3091,6.39,6.4789,6.525,6.569,6.6048,6.6491,6.5884,6.5187,6.5406,6.5406,6.5108,6.5011,6.5288,6.5811,6.6611,6.7165,6.7658,6.8212,6.852,6.8705,6.8858,6.9197,6.9628,2.9828,3.0927,3.0627,3.1406,3.2892,3.2665,3.3197,3.4293,3.4569,3.4454,3.4095,3.4109,3.4022,3.3696,3.3495,3.352,3.3646,3.3495,3.3495,3.3571,3.3194,3.3093,3.3119,3.3319,3.3395,3.3445,3.3596,3.396,3.4527,3.4754,3.53,3.603,3.6348,3.6724,3.7273,3.7351,3.7896,3.8675,3.9033,3.9848,4.117,4.199,4.2977,4.4146,4.475,4.5327,4.583,4.604,4.6281,4.6352,4.6671,4.7031,4.7422,4.7452,4.7452,4.7568,4.7794,4.8049,4.8164,4.8462,4.8974,4.9818,5.058,5.1256,5.1871,5.2455,5.2698,5.2729,5.2975,5.3771,5.5246,5.5806,5.6244,5.6933,5.862,5.9323,5.9266,5.9669,6.0193,6.1193,6.1805,6.2421,6.2907,6.3517,6.3196,6.2712,6.2746,6.2746,6.2184,6.2568,6.2268,6.2414,6.3338,6.3978,6.4367,6.4659,6.4936,6.5297,6.5483,6.5218,6.5108,6.5108,6.4918,6.5072,6.5319,6.5965,6.6704,6.7073,6.7504,6.812,6.8797,6.8674,6.8674,6.8858,6.9351,2.8688,2.9723,2.9807,3.0906,3.2755,3.3009,3.3445,3.4316,3.4858,3.4725,3.4487,3.466,3.47,3.4575,3.4123,3.4173,3.455,3.4173,3.4148,3.4223,3.3771,3.3345,3.342,3.3771,3.3947,3.4022,3.4399,3.4765,3.5046,3.5315,3.584,3.6535,3.6884,3.7299,3.7717,3.7874,3.7874,3.8254,3.8809,3.95,4.0314,4.1849,4.3197,4.3921,4.525,4.6062,4.6441,4.683,4.689,4.6561,4.695,4.7219,4.7309,4.7309,4.7396,4.7568,4.7825,4.8171,4.8431,4.895,4.9591,5.0319,5.09,5.1573,5.2183,5.2518,5.2852,5.2914,5.3406,5.4022,5.4854,5.5347,5.5995,5.6865,5.8148,5.8728,5.8398,5.9457,6.0036,6.0456,6.1567,6.2331,6.1828,6.2504,6.1933,6.1093,6.1246,6.1246,6.1062,6.1371,6.1625,6.2271,6.3148,6.3857,6.4408,6.4641,6.4888,6.4998,6.5187,6.5108,6.4998,6.4888,6.4888,6.5103,6.5596,6.6211,6.6765,6.7227,6.775,6.8489,6.8705,6.8489,6.8581,6.8889,6.9443,2.8174,2.8708,2.8708,2.9513,3.0639,3.0845,3.2107,3.3707,3.4195,3.4461,3.4873,3.5236,3.5036,3.4726,3.46,3.46,3.47,3.4575,3.455,3.4675,3.4474,3.4299,3.4299,3.4424,3.45,3.455,3.4726,3.4926,3.5395,3.5669,3.6223,3.6944,3.7221,3.7508,3.79,3.7926,3.8135,3.8449,3.8661,3.9481,4.0583,4.1242,4.2514,4.4443,4.5055,4.5843,4.6894,4.7219,4.7249,4.71,4.7189,4.7309,4.7309,4.7309,4.7339,4.7486,4.8076,4.8434,4.8641,4.9361,5.0117,5.0725,5.0968,5.1454,5.2245,5.2825,5.3161,5.3468,5.4052,5.4669,5.5253,5.5592,5.6053,5.6704,5.7463,5.7809,5.7928,5.8239,5.8833,5.9756,6.0222,6.0484,6.0815,6.0855,6.0739,6.0228,6.0272,6.0617,6.0486,6.1065,6.186,6.2425,6.3238,6.4022,6.4512,6.4715,6.4888,6.4888,6.4998,6.4998,6.4888,6.4888,6.4888,6.498,6.5965,6.6673,6.7196,6.7658,6.8304,6.8858,6.8797,6.8705,6.892,6.9197,6.9843,2.7853,2.8174,2.8301,2.89,2.9828,2.9932,3.1051,3.2577,3.3078,3.3632,3.4486,3.4915,3.5145,3.5244,3.5086,3.5203,3.5378,3.5177,3.5203,3.5429,3.5429,3.5152,3.4876,3.4901,3.5077,3.5102,3.5303,3.5604,3.583,3.6134,3.6523,3.6938,3.732,3.7598,3.7716,3.8161,3.837,3.871,3.8945,3.9623,4.0695,4.1221,4.2546,4.4276,4.496,4.5933,4.7076,4.7309,4.7309,4.7309,4.7309,4.7309,4.7309,4.7309,4.7429,4.7668,4.8263,4.8709,4.9101,4.9732,5.0366,5.0759,5.1001,5.1729,5.2429,5.304,5.3438,5.4114,5.4607,5.5066,5.5497,5.5835,5.626,5.6874,5.6997,5.715,5.7549,5.8101,5.8583,5.9185,5.954,5.971,6.0031,5.9849,5.9773,5.9667,5.9773,6.0031,6.0334,6.1278,6.2086,6.2585,6.3122,6.3751,6.4259,6.4524,6.4777,6.4777,6.4888,6.4888,6.4888,6.4888,6.4888,6.5165,6.6211,6.7012,6.735,6.7812,6.852,6.8889,6.8889,6.892,6.9074,6.9566,7.0213,2.753,2.7853,2.8174,2.8794,2.9618,2.9723,3.0328,3.1359,3.1768,3.2454,3.3429,3.4068,3.4776,3.5763,3.5431,3.5787,3.6282,3.5712,3.5931,3.6107,3.6157,3.5805,3.5203,3.5454,3.5629,3.568,3.6157,3.6257,3.6351,3.6564,3.6684,3.6854,3.7278,3.7516,3.7883,3.834,3.8721,3.9076,3.9468,3.9965,4.0676,4.1363,4.2412,4.3808,4.5211,4.596,4.6814,4.7222,4.7309,4.7309,4.7309,4.7309,4.7309,4.7339,4.7668,4.8295,4.8653,4.9221,4.9673,5.0306,5.0698,5.0879,5.1361,5.1997,5.2761,5.3222,5.3868,5.4573,5.5122,5.5363,5.5577,5.6066,5.6647,5.7198,5.7281,5.7495,5.7577,5.8328,5.8984,5.8971,5.9652,5.9713,5.9636,5.9422,5.9422,5.9345,5.9482,5.9693,6.0193,6.1014,6.188,6.2526,6.2971,6.3437,6.3802,6.4188,6.4412,6.4666,6.4666,6.4777,6.4888,6.4888,6.4888,6.5288,6.6211,6.6735,6.7042,6.7689,6.8612,6.8889,6.8889,6.8889,6.8982,6.9782,7.049,2.7206,2.753,2.7853,2.8067,2.8368,2.8581,2.9303,3.0224,3.0535,3.1257,3.2376,3.3476,3.4091,3.4483,3.5041,3.5808,3.6003,3.5924,3.6093,3.6332,3.6358,3.6282,3.6006,3.6107,3.6157,3.6207,3.6282,3.6358,3.6452,3.6477,3.6546,3.6785,3.7311,3.7775,3.8256,3.8817,3.9433,3.9894,4.0174,4.0514,4.0958,4.1261,4.2074,4.3273,4.484,4.5779,4.6255,4.6901,4.7309,4.7309,4.7339,4.7399,4.7459,4.7788,4.8147,4.8625,4.9464,5.0095,5.0184,5.0847,5.1269,5.1143,5.1623,5.2257,5.2722,5.3736,5.4413,5.4927,5.5408,5.5841,5.6091,5.6511,5.6998,5.7364,5.7861,5.8231,5.8352,5.8563,5.9092,5.9516,5.9622,5.9529,5.9529,5.9375,5.9267,5.9129,5.9279,5.9567,6.0186,6.0927,6.176,6.2634,6.3049,6.3403,6.3607,6.3963,6.4188,6.4331,6.4412,6.4554,6.4666,6.4888,6.4777,6.5349,6.6088,6.6519,6.6919,6.7904,6.8889,6.8889,6.8889,6.8889,6.9135,6.9936,7.0582,2.7098,2.7206,2.7745,2.7853,2.796,2.8194,2.8601,2.9112,2.9323,3.0037,3.1051,3.1949,3.2577,3.3078,3.3773,3.4385,3.5307,3.5978,3.6263,3.6358,3.6358,3.6358,3.6358,3.6358,3.6358,3.6383,3.6358,3.6358,3.6408,3.6609,3.6855,3.6975,3.7602,3.812,3.8633,3.9194,3.9803,4.0285,4.0723,4.101,4.1272,4.1324,4.1769,4.2958,4.4656,4.5779,4.5869,4.6726,4.7222,4.7399,4.7578,4.7758,4.7788,4.8117,4.8536,4.9284,4.9824,5.0513,5.0783,5.1113,5.1443,5.1648,5.2007,5.2738,5.335,5.4274,5.4795,5.5341,5.5698,5.5962,5.6434,5.6577,5.7001,5.7789,5.8187,5.852,5.8714,5.8911,5.9108,5.9469,5.9422,5.9315,5.9237,5.9387,5.9518,5.9608,6.0176,6.0416,6.0954,6.1747,6.1995,6.2709,6.3153,6.3478,6.3592,6.3766,6.388,6.4106,6.4106,6.4218,6.4331,6.4554,6.4777,6.5299,6.5965,6.6581,6.7104,6.815,6.8858,6.8889,6.8889,6.8889,6.9228,6.9997,7.0521,2.7082,2.7082,2.7549,2.7745,2.7853,2.8087,2.8301,2.8281,2.8301,2.89,2.9618,3.0016,3.103,3.1644,3.2151,3.3055,3.4385,3.5763,3.6358,3.6288,3.6358,3.6358,3.6383,3.6433,3.6508,3.6458,3.6383,3.6383,3.6634,3.691,3.7136,3.7459,3.8086,3.8608,3.9056,3.9664,4.0197,4.0598,4.101,4.1246,4.1298,4.1324,4.1769,4.2598,4.4003,4.5144,4.5508,4.6373,4.7165,4.7489,4.7997,4.8356,4.8566,4.8656,4.8985,5.0152,5.0331,5.0661,5.105,5.1319,5.1648,5.2187,5.2486,5.3121,5.4127,5.4586,5.5016,5.5439,5.5792,5.6022,5.6515,5.6937,5.748,5.8203,5.8565,5.8744,5.9057,5.9099,5.9177,5.9069,5.9207,5.9207,5.9417,5.9518,5.9817,6.0206,6.0805,6.1343,6.1852,6.2181,6.2391,6.266,6.3189,6.3309,6.3424,6.3424,6.3652,6.3766,6.3766,6.388,6.3993,6.4218,6.4504,6.5003,6.5637,6.6344,6.7227,6.812,6.8643,6.8797,6.8889,6.8889,6.9382,7.009,7.0521,2.7179,2.716,2.7138,2.7314,2.753,2.7872,2.8125,2.8301,2.834,2.8408,2.8727,2.9513,3.0016,3.0432,3.1359,3.2476,3.3773,3.5259,3.6168,3.6098,3.6313,3.6433,3.6483,3.6397,3.6668,3.686,3.6855,3.6855,3.6985,3.7161,3.7563,3.7914,3.8541,3.9019,3.9571,4.0156,4.0563,4.0937,4.1219,4.1298,4.1324,4.1298,4.1398,4.1769,4.2985,4.3909,4.4656,4.5537,4.6697,4.7969,4.8237,4.8865,4.9553,4.9793,5.0002,5.0301,5.072,5.105,5.1319,5.1738,5.2007,5.2426,5.3114,5.3773,5.4381,5.474,5.511,5.5411,5.5861,5.6281,5.6576,5.7213,5.7933,5.8444,5.8804,5.9027,5.9069,5.9099,5.9099,5.9099,5.9099,5.9219,5.9518,5.9847,6.0266,6.0685,6.1224,6.1702,6.2151,6.2361,6.245,6.272,6.3049,6.3194,6.3194,6.3194,6.3309,6.3538,6.3538,6.3652,6.3766,6.3993,6.434,6.4605,6.5525,6.6436,6.735,6.8089,6.8551,6.8828,6.8858,6.8889,6.9382,6.9905,7.0582,2.749,2.7453,2.7605,2.7845,2.8066,2.8397,2.8726,2.8906,2.8711,2.8613,2.8662,2.8913,2.9112,2.9217,2.9533,3.0949,3.2878,3.4385,3.5283,3.5741,3.6347,3.6593,3.6593,3.6455,3.6922,3.7538,3.7855,3.7804,3.7638,3.7965,3.8165,3.8492,3.9019,3.9499,3.993,4.0337,4.0694,4.0997,4.1198,4.1324,4.1324,4.1324,4.1324,4.1597,4.2235,4.3273,4.4284,4.5235,4.6577,4.8,4.8596,4.9314,4.994,5.0541,5.072,5.078,5.105,5.1409,5.1648,5.2097,5.2456,5.3234,5.3922,5.4371,5.467,5.4999,5.5179,5.5329,5.5777,5.6419,5.6852,5.7678,5.8278,5.8697,5.9027,5.9069,5.9099,5.9099,5.9129,5.9159,5.9159,5.9368,5.9787,6.0206,6.0715,6.1194,6.1672,6.2091,6.248,6.257,6.266,6.281,6.3079,6.3079,6.3079,6.3079,6.3079,6.3309,6.3424,6.3424,6.3538,6.3652,6.3766,6.394,6.5011,6.6055,6.6989,6.772,6.8274,6.8797,6.8858,6.8951,6.9259,6.972,7.049,2.7893,2.7893,2.8029,2.8333,2.8672,2.8897,2.9215,2.9492,2.9199,2.9062,2.9004,2.873,2.8643,2.8525,2.896,3.0078,3.2082,3.3561,3.4868,3.5917,3.6578,3.6849,3.6801,3.6899,3.727,3.8091,3.8943,3.9168,3.8416,3.8517,3.8843,3.9094,3.9521,3.98,4.0058,4.0262,4.0593,4.0896,4.1097,4.1198,4.1324,4.1324,4.1324,4.1298,4.2065,4.2889,4.3843,4.5068,4.6206,4.7668,4.8743,4.9672,5.0084,5.0837,5.1199,5.1229,5.1349,5.1738,5.2067,5.2636,5.3204,5.3922,5.4281,5.47,5.497,5.5149,5.5209,5.5299,5.5957,5.6555,5.7034,5.7842,5.8501,5.889,5.9069,5.9099,5.9099,5.9159,5.9249,5.9279,5.9279,5.9578,6.0027,6.0805,6.1373,6.1672,6.2151,6.248,6.2839,6.2869,6.2929,6.2989,6.3079,6.3079,6.3079,6.3079,6.3079,6.3194,6.3194,6.3309,6.3309,6.3309,6.3424,6.3652,6.4122,6.5132,6.6239,6.7327,6.815,6.8643,6.8797,6.8982,6.9135,6.9813,7.0675,2.8315,2.8278,2.793,2.8219,2.8691,2.8842,2.9141,2.9609,2.9551,2.9492,2.9492,2.9394,2.9141,2.9065,2.9611,3.0831,3.2295,3.3561,3.4964,3.6078,3.6722,3.702,3.7194,3.7661,3.7885,3.849,3.9243,3.9295,3.8944,3.8894,3.9145,3.9496,3.9597,3.98,3.9981,4.0185,4.0389,4.0795,4.0896,4.1097,4.1324,4.1324,4.1324,4.1298,4.155,4.2145,4.3369,4.4657,4.5884,4.6671,4.8875,4.9833,4.989,5.0639,5.1105,5.1409,5.1708,5.2127,5.2426,5.3174,5.3862,5.4341,5.47,5.5029,5.5179,5.5269,5.5329,5.5239,5.6256,5.6974,5.7393,5.8261,5.886,5.9039,5.9099,5.9129,5.9159,5.9398,5.9488,5.9967,6.0146,6.0116,6.0326,6.1224,6.2032,6.2301,6.26,6.2899,6.3079,6.3079,6.3079,6.3079,6.3079,6.3079,6.3079,6.3079,6.3079,6.3079,6.3079,6.3079,6.3194,6.3194,6.3309,6.3454,6.3864,6.4456,6.5681,6.6882,6.7942,6.8489,6.8705,6.8828,6.892,6.9782,7.0828,2.6765,2.7617,2.8282,2.8793,2.9373,2.9373,2.9738,3.0159,3.0039,2.9922,2.9863,2.9648,2.9453,2.9459,2.9808,3.0586,3.172,3.2572,3.3817,3.5512,3.6137,3.6716,3.7502,3.8099,3.8576,3.896,3.939,3.9647,3.9396,3.932,3.9496,3.9622,3.9697,3.9697,3.9878,4.0058,4.016,4.0465,4.0694,4.0997,4.1198,4.1324,4.1324,4.135,4.1638,4.2319,4.3345,4.4858,4.6026,4.6756,4.847,4.9326,4.9436,4.964,4.9922,5.1733,5.1787,5.2112,5.2778,5.3713,5.4281,5.47,5.5029,5.5149,5.5269,5.5538,5.5748,5.5765,5.6974,5.7543,5.7752,5.853,5.8919,5.9099,5.9099,5.9398,5.9518,5.9668,5.9937,6.0475,6.0984,6.0984,6.1044,6.1613,6.2331,6.266,6.281,6.2959,6.3079,6.3079,6.3079,6.3079,6.3079,6.3079,6.3079,6.3079,6.3079,6.3079,6.3079,6.3079,6.3079,6.3194,6.3194,6.3309,6.3484,6.4341,6.5329,6.6314,6.7219,6.8003,6.8643,6.8766,6.8982,6.9997,7.1013,2.4778,2.6034,2.7744,2.8975,2.9804,2.9804,3.0138,3.0704,3.0392,3.0256,3.0254,2.9961,2.9746,2.9668,2.9702,3.0309,3.1422,3.1443,3.2728,3.4196,3.5192,3.6144,3.7096,3.7983,3.8704,3.9154,3.9486,3.9669,3.9697,3.9672,3.9647,3.9697,3.9697,3.9697,3.9775,3.9878,4.0083,4.0287,4.0694,4.0997,4.1224,4.1324,4.1402,4.1611,4.2,4.262,4.3614,4.5101,4.6178,4.62,4.7631,4.8591,4.8539,4.8723,4.9252,5.0697,5.1106,5.186,5.2771,5.3803,5.457,5.4999,5.5239,5.5269,5.5538,5.5957,5.6346,5.6362,5.7393,5.7962,5.8261,5.871,5.9009,5.9099,5.9129,5.9548,5.9907,6.0057,6.0446,6.1134,6.1642,6.1972,6.2061,6.2241,6.26,6.2959,6.3079,6.3079,6.3079,6.3079,6.3079,6.3079,6.3079,6.3079,6.3079,6.3079,6.3079,6.3079,6.3079,6.3079,6.3079,6.3079,6.3194,6.3194,6.3309,6.387,6.4789,6.5626,6.6497,6.7378,6.8168,6.8531,6.9079,7.0213,7.1259,2.2827,2.3186,2.5912,2.7984,2.9431,2.9568,2.9903,3.0392,3.0451,3.0548,3.0723,3.0391,3.0156,3.0098,3.0015,3.0538,3.1899,3.1899,3.2865,3.3809,3.4604,3.5308,3.6449,3.7523,3.8334,3.881,3.9327,3.9536,3.9644,3.9594,3.9697,3.9697,3.9697,3.9697,3.9697,3.98,3.9981,4.0287,4.0694,4.0997,4.1224,4.1402,4.1611,4.2004,4.2186,4.2524,4.3152,4.4819,4.5348,4.4809,4.6633,4.7567,4.741,4.7751,4.8602,4.9643,5.0332,5.1261,5.241,5.3845,5.4899,5.5179,5.5299,5.5508,5.5897,5.6107,5.6466,5.7064,5.7872,5.8171,5.8411,5.865,5.9039,5.9159,5.9279,5.9757,6.0116,6.0386,6.0864,6.1702,6.2211,6.248,6.263,6.269,6.272,6.3049,6.3079,6.3079,6.3079,6.3079,6.3079,6.3079,6.3079,6.3079,6.3079,6.3079,6.3079,6.3079,6.3079,6.3079,6.3079,6.3079,6.3079,6.3079,6.3224,6.3779,6.4341,6.5243,6.6148,6.6938,6.7634,6.8505,6.9325,7.0185,7.1444,2.1447,2.2702,2.3807,2.5896,2.8343,2.9194,2.9686,3.0039,3.0274,3.0626,3.0879,3.0703,3.0625,3.0566,3.0508,3.0679,3.1277,3.1297,3.2199,3.2943,3.3438,3.4447,3.5931,3.7185,3.8192,3.8518,3.8988,3.9327,3.9387,3.949,3.9594,3.9697,3.9697,3.9697,3.9697,3.9697,4.0006,4.0185,4.0389,4.0593,4.1075,4.1487,4.1748,4.2134,4.3023,4.3258,4.3809,4.523,4.5129,4.5156,4.6265,4.6478,4.6458,4.6946,4.7807,4.8986,4.9633,5.0457,5.1761,5.3268,5.4304,5.5197,5.5538,5.5897,5.6183,5.6825,5.7334,5.7872,5.8291,5.862,5.88,5.8949,5.9129,5.9219,5.9488,5.9967,6.0475,6.0835,6.1373,6.2271,6.26,6.2839,6.2929,6.3019,6.3049,6.3079,6.3079,6.3079,6.3079,6.3079,6.3079,6.3079,6.3079,6.3079,6.3079,6.3079,6.3079,6.3079,6.3079,6.3079,6.3079,6.3079,6.3079,6.3079,6.3254,6.3665,6.4201,6.4808,6.5709,6.6581,6.7755,6.8842,6.9574,7.037,7.1536,2.0449,2.1699,2.2327,2.4409,2.7366,2.8343,2.9194,2.9804,3.0039,3.0392,3.0762,3.0879,3.0898,3.0898,3.0879,3.0859,3.0956,3.1092,3.1441,3.1903,3.2342,3.3459,3.4891,3.6196,3.7006,3.7679,3.8421,3.8736,3.9362,3.9283,3.949,3.9594,3.9697,3.9697,3.9697,3.9697,3.9903,4.0083,4.0185,4.0517,4.1079,4.1517,4.2294,4.2683,4.3467,4.3885,4.4201,4.5077,4.5236,4.5154,4.5608,4.6036,4.6088,4.6405,4.721,4.8244,4.9172,4.9633,5.0988,5.2216,5.3413,5.4363,5.458,5.5352,5.6437,5.7136,5.7291,5.8411,5.886,5.9099,5.9129,5.9099,5.9308,5.9458,5.9727,6.0176,6.1044,6.1613,6.2181,6.2839,6.2959,6.3019,6.3019,6.3079,6.3079,6.3079,6.3079,6.3079,6.3079,6.3079,6.3079,6.3079,6.3079,6.3079,6.3079,6.3079,6.3079,6.3079,6.3079,6.3079,6.3079,6.3079,6.3079,6.3079,6.3284,6.3549,6.409,6.4928,6.565,6.6372,6.7516,6.8483,6.9822,7.0617,7.1476,1.9699,1.9954,2.1699,2.4178,2.6641,2.7021,2.7984,2.9194,2.9568,2.9922,3.0509,3.0762,3.0898,3.0898,3.0898,3.0898,3.0898,3.0898,3.0995,3.1228,3.1344,3.1903,3.2892,3.4134,3.5223,3.6619,3.7548,3.8494,3.905,3.9154,3.9387,3.9594,3.9697,3.9697,3.9697,3.9697,3.9878,4.0083,4.0134,4.0747,4.1467,4.1802,4.2501,4.331,4.3859,4.4118,4.4594,4.4725,4.4938,4.4883,4.5354,4.5731,4.5752,4.6612,4.7276,4.7547,4.81,4.8851,4.9901,5.1017,5.2193,5.3328,5.369,5.4288,5.6161,5.6868,5.6939,5.7761,5.8605,5.8912,5.9021,5.9189,5.9548,5.9937,6.0236,6.0655,6.1553,6.2181,6.272,6.2989,6.3019,6.3079,6.3079,6.3079,6.3079,6.3079,6.3079,6.3079,6.3079,6.3079,6.3079,6.3079,6.3079,6.3079,6.3079,6.3079,6.3079,6.3079,6.3079,6.3079,6.3079,6.3079,6.3079,6.3079,6.3284,6.3519,6.418,6.5049,6.5802,6.6643,6.7034,6.8031,6.9519,7.074,7.1353,1.9456,1.9699,2.0589,2.2076,2.4178,2.6277,2.7383,2.7984,2.8957,2.9804,3.0392,3.0509,3.0762,3.0879,3.0898,3.0898,3.0898,3.0898,3.0898,3.0898,3.0898,3.1672,3.2416,3.2612,3.3359,3.5223,3.6805,3.7536,3.7501,3.8396,3.9154,3.9362,3.9594,3.9697,3.9697,3.9722,3.9926,4.0278,4.0484,4.079,4.1639,4.2128,4.2725,4.3566,4.3903,4.4297,4.4587,4.4722,4.4639,4.4879,4.5401,4.5689,4.5898,4.6813,4.7336,4.7466,4.7858,4.8262,4.8859,4.9683,5.0867,5.2045,5.2966,5.3585,5.5077,5.5623,5.6051,5.6707,5.7581,5.7868,5.8332,5.9368,5.9976,6.0715,6.1104,6.1463,6.2091,6.254,6.2959,6.3019,6.3079,6.3079,6.3079,6.3079,6.3079,6.3079,6.3079,6.3079,6.3079,6.3079,6.3079,6.3079,6.3079,6.3079,6.3079,6.3079,6.3079,6.3079,6.3079,6.3079,6.3079,6.3079,6.2933,6.2817,6.3139,6.3434,6.4393,6.5323,6.6222,6.6911,6.6846,6.7877,6.9518,7.0403,7.0953,1.92,1.9456,1.9839,2.0589,2.209,2.4548,2.5912,2.652,2.8104,2.9076,2.9549,3.0138,3.0645,3.0782,3.0898,3.0898,3.0898,3.0898,3.0898,3.0898,3.0898,3.1344,3.1572,3.1506,3.2303,3.3957,3.5511,3.6472,3.6858,3.8056,3.8841,3.9258,3.9569,3.9697,3.9747,3.9898,4.0149,4.0475,4.0626,4.116,4.1853,4.2449,4.2971,4.3579,4.4054,4.4313,4.4505,4.4639,4.4718,4.5005,4.5532,4.6003,4.6395,4.697,4.7571,4.778,4.7911,4.8277,4.8682,4.8891,5.0291,5.1646,5.2294,5.3121,5.3999,5.4618,5.5094,5.5524,5.6136,5.6795,5.7571,5.8771,5.9693,6.0314,6.1248,6.1575,6.1845,6.229,6.2874,6.2933,6.3079,6.3079,6.3079,6.3079,6.3079,6.3079,6.3079,6.3079,6.3079,6.3079,6.3079,6.3079,6.3079,6.3079,6.3079,6.3079,6.3079,6.3079,6.3079,6.2963,6.3079,6.3079,6.2817,6.2761,6.3086,6.365,6.4696,6.5651,6.5601,6.5823,6.6059,6.7337,6.942,7.0153,7.0391,1.9072,1.92,1.9444,1.9839,2.0475,2.2327,2.3822,2.5178,2.6866,2.7727,2.8086,2.9667,3.0509,3.0762,3.0898,3.0898,3.0898,3.0898,3.0898,3.0898,3.0898,3.1112,3.1033,3.1087,3.1681,3.2591,3.3828,3.4934,3.6248,3.7524,3.8396,3.9154,3.9465,3.9594,3.9823,4.0224,4.0526,4.0777,4.1153,4.1739,4.246,4.2587,4.3194,4.3643,4.3958,4.4203,4.4396,4.4531,4.4843,4.5396,4.6081,4.6682,4.7257,4.7858,4.8068,4.8172,4.8172,4.8486,4.8904,4.9087,4.9808,5.0989,5.1144,5.2252,5.3186,5.3645,5.3844,5.4396,5.4964,5.5535,5.6345,5.7302,5.8377,5.948,6.0589,6.0999,6.1379,6.1821,6.2555,6.2847,6.3079,6.3079,6.3079,6.3079,6.2817,6.3079,6.3079,6.3079,6.3079,6.3079,6.3079,6.3079,6.3079,6.3079,6.3079,6.3079,6.3079,6.3079,6.2701,6.2585,6.2817,6.2701,6.2087,6.1968,6.2972,6.3624,6.3965,6.426,6.4294,6.4512,6.4871,6.6696,6.8794,6.9423,6.9901,1.9072,1.92,1.9456,1.9699,1.9839,2.0843,2.2716,2.5056,2.652,2.7366,2.7727,2.9194,3.002,3.0509,3.0509,3.0645,3.0879,3.0898,3.0898,3.0898,3.0898,3.0898,3.0976,3.0897,3.1149,3.1397,3.2076,3.2875,3.4137,3.5859,3.8056,3.9154,3.9362,3.9465,3.9919,4.0626,4.0902,4.1254,4.1656,4.2267,4.267,4.2907,4.328,4.3577,4.3653,4.3848,4.4203,4.4364,4.4811,4.5526,4.6186,4.6734,4.731,4.7858,4.8172,4.8172,4.8224,4.8433,4.9008,4.9453,5.0002,5.0734,5.11,5.1433,5.2242,5.2418,5.2492,5.3132,5.3903,5.4445,5.548,5.6531,5.7398,5.841,5.9594,6.0157,6.0445,6.0595,6.1316,6.2204,6.2438,6.2321,6.2438,6.2585,6.2321,6.2817,6.3079,6.2817,6.3079,6.3079,6.3079,6.3079,6.3079,6.3079,6.2963,6.2933,6.3079,6.3079,6.2321,6.1821,6.2087,6.1821,6.1077,6.1097,6.1681,6.2121,6.2565,6.2705,6.2613,6.3367,6.3857,6.5983,6.7747,6.8236,6.8854,1.9072,1.9072,1.9328,1.9584,1.9839,2.0348,2.1853,2.3574,2.4917,2.5896,2.6866,2.8086,2.9313,3.0157,3.0392,3.0509,3.0645,3.0898,3.0898,3.0898,3.0898,3.0898,3.0898,3.0898,3.0995,3.0878,3.1106,3.1901,3.3035,3.5201,3.7394,3.8291,3.8816,3.9511,4.0095,4.0827,4.1379,4.1756,4.2158,4.261,4.2836,4.2986,4.3184,4.327,4.3295,4.3628,4.4145,4.4248,4.4823,4.5839,4.6499,4.696,4.7456,4.8015,4.8172,4.8172,4.8198,4.8669,4.9296,4.9688,5.0315,5.0917,5.1387,5.1616,5.1669,5.1793,5.1872,5.2023,5.2784,5.3503,5.4646,5.5796,5.6631,5.7442,5.8257,5.9161,5.9189,5.9189,6.0079,6.1077,6.1316,6.1316,6.1436,6.1555,6.1703,6.1821,6.1703,6.1465,6.2087,6.2817,6.2963,6.3079,6.2963,6.2933,6.2701,6.2204,6.1939,6.1555,6.0808,6.0566,6.1077,6.0952,6.0214,6.0059,6.0202,6.0746,6.1622,6.1024,6.0947,6.1764,6.2446,6.3707,6.5403,6.6596,6.7199,1.9072,1.9072,1.9072,1.9456,2.0106,2.0361,2.0856,2.1235,2.2591,2.3807,2.5391,2.6866,2.8343,2.9313,2.9903,3.0274,3.0509,3.0645,3.0898,3.0898,3.0898,3.0898,3.0898,3.0898,3.0898,3.0897,3.1146,3.1566,3.3035,3.4648,3.5968,3.6965,3.8291,3.9118,3.9848,4.0871,4.153,4.2032,4.2484,4.2911,4.2936,4.2986,4.3073,4.3295,4.3295,4.3346,4.4079,4.4575,4.5001,4.6047,4.6794,4.7198,4.7821,4.8146,4.8172,4.8277,4.8303,4.8904,4.9531,4.9976,5.0603,5.1178,5.1596,5.1596,5.1596,5.1596,5.1596,5.1727,5.2464,5.2991,5.4007,5.4975,5.5746,5.6359,5.6936,5.7706,5.8088,5.834,5.9189,5.9957,6.0079,6.0079,6.0202,6.0323,6.0566,6.0566,6.0595,6.0323,6.0687,6.1703,6.1939,6.2204,6.1939,6.1555,6.1316,6.0808,6.0323,5.9806,5.9313,5.9436,5.9929,5.9815,5.9501,5.9321,5.9172,6.0043,6.0566,6.0016,5.9985,6.0728,6.1329,6.1372,6.2641,6.4333,6.5501,1.9072,1.9072,1.9072,1.9328,1.9711,2.0106,2.0361,2.0729,2.1348,2.2341,2.3931,2.6017,2.7486,2.8206,2.9431,2.9922,3.0392,3.0509,3.0645,3.0898,3.0898,3.0898,3.0898,3.0898,3.0898,3.0879,3.1053,3.1456,3.253,3.3551,3.4447,3.553,3.7012,3.8393,3.9223,4.035,4.1706,4.2258,4.2685,4.2961,4.2986,4.2986,4.3098,4.3073,4.3098,4.3437,4.4,4.4418,4.536,4.6398,4.6515,4.7043,4.7769,4.8055,4.8172,4.825,4.8564,4.9165,4.974,5.0263,5.0864,5.1282,5.1596,5.1596,5.1596,5.1596,5.1675,5.1805,5.2171,5.2772,5.3476,5.4261,5.4892,5.5419,5.5736,5.634,5.6963,5.7578,5.8313,5.8439,5.8564,5.869,5.8815,5.894,5.9313,5.9436,5.9436,5.9313,5.9313,5.9834,5.9711,5.9834,6.0051,5.9806,5.956,5.9436,5.9064,5.8592,5.8088,5.8313,5.8843,5.8712,5.8489,5.8295,5.8334,5.9227,5.952,5.9096,5.9202,5.99,6.0167,6.0447,6.0721,6.214,6.3163,1.8956,1.9072,1.9072,1.9328,1.9571,1.9839,2.0094,2.0602,2.0856,2.1348,2.2591,2.4794,2.652,2.7366,2.8838,2.9686,3.0039,3.0392,3.0645,3.0782,3.0898,3.0898,3.0898,3.0898,3.0898,3.0898,3.0898,3.1325,3.2018,3.2685,3.3459,3.4357,3.6018,3.7746,3.868,4.0488,4.1957,4.2509,4.2836,4.2961,4.2986,4.2986,4.2986,4.2986,4.3174,4.3538,4.4055,4.4472,4.5387,4.6515,4.7082,4.7341,4.7769,4.8055,4.8172,4.8355,4.8721,4.9322,4.9871,5.0472,5.1047,5.1413,5.1596,5.1596,5.1596,5.1596,5.1596,5.1779,5.2559,5.329,5.353,5.4315,5.484,5.526,5.5339,5.571,5.5973,5.6209,5.6574,5.6574,5.6704,5.6704,5.6834,5.6834,5.7221,5.7834,5.7961,5.7961,5.7961,5.7961,5.7834,5.7834,5.8186,5.8313,5.8214,5.8088,5.7834,5.735,5.6834,5.705,5.7239,5.741,5.738,5.7709,5.7983,5.8298,5.8533,5.8497,5.8523,5.9061,5.9263,5.9372,5.9803,6.0405,6.1794,1.8828,1.9072,1.9072,1.92,1.9584,1.9571,1.9966,2.0475,2.0602,2.0729,2.1475,2.3698,2.5407,2.6762,2.8343,2.9076,2.9686,2.9903,3.0392,3.0762,3.0782,3.0879,3.0898,3.0898,3.0898,3.0898,3.0898,3.0898,3.1112,3.1787,3.2592,3.3523,3.5558,3.795,3.9046,4.082,4.2333,4.2488,4.2737,4.2986,4.2986,4.2986,4.2986,4.2986,4.3037,4.3538,4.4093,4.4712,4.5501,4.6437,4.7393,4.7548,4.7652,4.7821,4.8055,4.8355,4.893,4.9427,4.9923,5.0577,5.11,5.1465,5.157,5.1596,5.1596,5.1596,5.1596,5.2062,5.2817,5.3448,5.3817,5.4288,5.4785,5.5099,5.5099,5.5099,5.5232,5.5206,5.5206,5.5232,5.5206,5.5339,5.5339,5.5206,5.5604,5.6209,5.6471,5.634,5.634,5.6471,5.634,5.6601,5.6963,5.6963,5.6834,5.6834,5.6704,5.6209,5.5895,5.5733,5.5909,5.6893,5.7472,5.7913,5.8131,5.834,5.8444,5.8497,5.8523,5.8523,5.8941,5.9359,5.996,6.0588,6.1215,1.8828,1.9072,1.9072,1.92,1.92,1.9456,1.9839,2.0234,2.0488,2.0729,2.1348,2.2577,2.3683,2.407,2.652,2.7624,2.8206,2.8938,2.9903,3.0392,3.0509,3.0645,3.0762,3.0898,3.0898,3.0898,3.0898,3.0898,3.0898,3.1228,3.1364,3.1752,3.4815,3.641,3.6538,3.8891,4.1657,4.1776,4.24,4.2737,4.2849,4.2961,4.2986,4.2986,4.2986,4.3614,4.4217,4.4518,4.5481,4.6442,4.7154,4.7324,4.7442,4.7703,4.7938,4.8316,4.8916,4.9584,5.0106,5.0838,5.1387,5.1544,5.1596,5.1596,5.1596,5.1596,5.1648,5.1805,5.2559,5.3241,5.3713,5.4524,5.5072,5.5099,5.5099,5.5099,5.5099,5.5099,5.5099,5.5099,5.5099,5.5232,5.5232,5.5099,5.5232,5.5578,5.5578,5.5604,5.5604,5.5339,5.5099,5.5472,5.5973,5.5604,5.5472,5.571,5.5578,5.5206,5.5255,5.57,5.6301,5.7085,5.766,5.8052,5.8261,5.8444,5.8523,5.8523,5.8523,5.8575,5.9045,5.9516,6.0117,6.0771,6.1398]},{"header":{"parameterUnit":"m.s-1","parameterCategory":1,"la1":31.0,"la2":29.5877,"lo1":-88.7671,"lo2":-86.6584,"dy":0.0162,"dx":0.0185,"nx":115,"ny":88,"refTime":"2024-08-04T00:00:00:Z","depth":0,"parameterNumber":3,"parameterNumberName":"V-component_of_WINDS"},"data":[0.0,0.0,0.0,0.0,0.0,0.0,0.0,0.0,0.0,0.0,0.0,0.0,0.0,0.0,0.0,0.0,0.0,0.0,0.0,0.0,0.0,0.0,0.0,0.0,0.0,0.0,0.0,0.0,0.0,0.0,0.0,0.0,0.0,0.0,0.0,0.0,0.0,0.0,0.0,0.0,0.0,0.0,0.0,0.0,0.0,0.0,0.0,0.0,0.0,0.0,0.0,0.0,0.0,0.0,0.0,0.0,0.0,0.0,0.0,0.0,0.0,0.0,0.0,0.0,0.0,0.0,0.0,0.0,0.0,0.0,0.0,0.0,0.0,0.0,0.0,0.0,0.0,0.0,0.0,0.0,0.0,0.0,0.0,0.0,0.0,0.0,0.0,0.0,0.0,0.0,0.0,0.0,0.0,0.0,0.0,0.0,0.0,0.0,0.0,0.0,0.0,0.0,0.0,0.0,0.0,0.0,0.0,0.0,0.0,0.0,0.0,0.0,0.0,0.0,0.0,0.0,0.0,0.0,0.0,0.0,0.0,0.0,0.0,0.0,0.0,0.0,0.0,0.0,0.0,0.0,0.0,0.0,0.0,0.0,0.0,0.0,0.0,0.0,0.0,0.0,0.0,0.0,0.0,0.0,0.0,0.0,0.0,0.0,0.0,0.0,0.0,0.0,0.0,0.0,0.0,0.0,0.0,0.0,0.0,0.0,0.0,0.0,0.0,0.0,0.0,0.0,0.0,0.0,0.0,0.0,0.0,0.0,0.0,0.0,0.0,0.0,0.0,0.0,0.0,0.0,0.0,0.0,0.0,0.0,0.0,0.0,0.0,0.0,0.0,0.0,0.0,0.0,0.0,0.0,0.0,0.0,0.0,0.0,0.0,0.0,0.0,0.0,0.0,0.0,0.0,0.0,0.0,0.0,0.0,0.0,0.0,0.0,0.0,0.0,0.0,0.0,0.0,0.0,0.0,0.0,0.0,0.0,0.0,0.0,0.0,0.0,0.0,0.0,0.0,0.0,0.0,0.0,0.0,0.0,0.0,0.0,0.0,0.0,0.0,0.0,0.0,0.0,0.0,0.0,0.0,0.0,0.0,0.0,0.0,0.0,0.0,0.0,0.0,0.0,0.0,0.0,0.0,0.0,0.0,0.0,0.0,0.0,0.0,0.0,0.0,0.0,0.0,0.0,0.0,0.0,0.0,0.0,0.0,0.0,0.0,0.0,0.0,0.0,0.0,0.0,0.0,0.0,0.0,0.0,0.0,0.0,0.0,0.0,0.0,0.0,0.0,0.0,0.0,0.0,0.0,0.0,0.0,0.0,0.0,0.0,0.0,0.0,0.0,0.0,0.0,0.0,0.0,0.0,0.0,0.0,0.0,0.0,0.0,0.0,0.0,0.0,0.0,0.0,0.0,0.0,0.0,0.0,0.0,0.0,0.0,0.0,0.0,0.0,0.0,0.0,0.0,0.0,0.0,0.0,0.0,0.0,0.0,0.0,0.0,0.0,0.0,0.0,0.0,0.0,0.0,0.0,0.0,0.0,0.0,0.0,0.0,0.0,0.0,0.0,0.0,0.0,0.0,0.0,0.0,0.0,0.0,0.0,0.0,0.0,0.0,0.0,0.0,0.0,0.0,0.0,0.0,0.0,0.0,0.0,0.0,0.0,0.0,0.0,0.0,0.0,0.0,0.0,0.0,0.0,0.0,0.0,0.0,0.0,0.0,0.0,0.0,0.0,0.0,0.0,0.0,0.0,0.0,0.0,0.0,0.0,0.0,0.0,0.0,0.0,0.0,0.0,0.0,0.0,0.0,0.0,0.0,0.0,0.0,0.0,0.0,0.0,0.0,0.0,0.0,0.0,0.0,0.0,0.0,0.0,0.0,0.0,0.0,0.0,0.0,0.0,0.0,0.0,0.0,0.0,0.0,0.0,0.0,0.0,0.0,0.0,0.0,0.0,0.0,0.0,0.0,0.0,0.0,0.0,0.0,0.0,0.0,0.0,0.0,0.0,0.0,0.0,0.0,0.0,0.0,0.0,0.0,0.0,0.0,0.0,0.0,0.0,0.0,0.0,0.0,0.0,0.0,0.0,0.0,0.0,0.0,0.0,0.0,0.0,0.0,0.0,0.0,0.0,0.0,0.0,0.0,0.0,0.0,0.0,0.0,0.0,0.0,0.0,0.0,0.0,0.0,0.0,0.0,0.0,0.0,0.0,0.0,0.0,0.0,0.0,0.0,0.0,0.0,0.0,0.0,0.0,0.0,0.0,0.0,0.0,0.0,0.0,0.0,0.0,0.0,0.0,0.0,0.0,0.0,0.0,0.0,0.0,0.0,0.0,0.0,0.0,0.0,0.0,0.0,0.0,0.0,0.0,0.0,0.0,0.0,0.0,0.0,0.0,0.0,0.0,0.0,0.0,0.0,0.0,0.0,0.0,0.0,0.0,0.0,0.0,0.0,0.0,0.0,0.0,0.0,0.0,0.0,0.0,0.0,0.0,0.0,0.0,0.0,0.0,0.0,0.0,0.0,0.0,0.0,0.0,0.0,0.0,0.0,0.0,0.0,0.0,0.0,0.0,0.0,0.0,0.0,0.0,0.0,0.0,0.0,0.0,0.0,0.0,0.0,0.0,0.0,0.0,0.0,0.0,0.0,0.0,0.0,0.0,0.0,0.0,0.0,0.0,0.0,0.0,0.0,0.0,0.0,0.0,0.0,0.0,0.0,0.0,0.0,0.0,0.0,0.0,0.0,0.0,0.0,0.0,0.0,0.0,0.0,0.0,0.0,0.0,0.0,0.0,0.0,0.0,0.0,0.0,0.0,0.0,0.0,0.0,0.0,0.0,0.0,0.0,0.0,0.0,0.0,0.0,0.0,0.0,0.0,0.0,0.0,0.0,0.0,0.0,0.0,0.0,0.0,0.0,0.0,0.0,0.0,0.0,0.0,0.0,0.0,0.0,0.0,0.0,0.0,0.0,0.0,0.0,0.0,0.0,0.0,0.0,0.0,0.0,0.0,0.0,0.0,0.0,0.0,0.0,0.0,0.0,0.0,0.0,0.0,0.0,0.0,0.0,0.0,0.0,0.0,0.0,0.0,0.0,0.0,0.0,0.0,0.0,0.0,0.0,0.0,0.0,0.0,0.0,0.0,0.0,0.0,0.0,0.0,0.0,0.0,0.0,0.0,0.0,0.0,0.0,0.0,0.0,0.0,0.0,0.0,0.0,0.0,0.0,0.0,0.0,0.0,0.0,0.0,0.0,0.0,0.0,0.0,0.0,0.0,0.0,0.0,0.0,0.0,0.0,0.0,0.0,0.0,0.0,0.0,0.0,0.0,0.0,0.0,0.0,0.0,0.0,0.0,0.0,0.0,0.0,0.0,0.0,0.0,0.0,0.0,0.0,0.0,0.0,0.0,0.0,0.0,0.0,0.0,0.0,0.0,0.0,0.0,0.0,0.0,0.0,0.0,0.0,0.0,0.0,0.0,0.0,0.0,0.0,0.0,0.0,0.0,0.0,0.0,0.0,0.0,0.0,0.0,0.0,0.0,0.0,0.0,0.0,0.0,0.0,0.0,0.0,0.0,0.0,0.0,0.0,0.0,0.0,0.0,0.0,0.0,0.0,0.0,0.0,0.0,0.0,0.0,0.0,0.0,0.0,0.0,0.0,0.0,0.0,0.0,0.0,0.0,0.0,0.0,0.0,0.0,0.0,0.0,0.0,0.0,0.0,0.0,0.0,0.0,0.0,0.0,0.0,0.0,0.0,0.0,0.0,0.0,0.0,0.0,0.0,0.0,0.0,0.0,0.0,0.0,0.0,0.0,0.0,0.0,0.0,0.0,0.0,0.0,0.0,0.0,0.0,0.0,0.0,0.0,0.0,0.0,0.0,0.0,0.0,0.0,0.0,0.0,0.0,0.0,0.0,0.0,0.0,0.0,0.0,0.0,0.0,0.0,0.0,0.0,0.0,0.0,0.0,0.0,0.0,0.0,0.0,0.0,0.0,0.0,0.0,0.0,0.0,0.0,0.0,0.0,0.0,0.0,0.0,0.0,0.0,0.0,0.0,0.0,0.0,0.0,0.0,0.0,0.0,0.0,0.0,0.0,0.0,0.0,0.0,0.0,0.0,0.0,0.0,0.0,0.0,0.0,0.0,0.0,0.0,0.0,0.0,0.0,0.0,0.0,0.0,0.0,0.0,0.0,0.0,0.0,0.0,0.0,0.0,0.0,0.0,0.0,0.0,0.0,0.0,0.0,0.0,0.0,0.0,0.0,0.0,-0.9614,0.0,0.0,0.0,0.0,0.0,0.0,0.0,0.0,0.0,0.0,0.0,0.0,0.0,0.0,0.0,0.0,0.0,0.0,0.0,0.0,0.0,0.0,0.0,0.0,0.0,0.0,0.0,0.0,0.0,0.0,0.0,0.0,0.0,0.0,0.0,0.0,0.0,0.0,0.0,0.0,0.0,0.0,0.0,0.0,0.0,0.0,0.0,0.0,0.0,0.0,0.0,0.0,0.0,0.0,0.0,0.0,0.0,0.0,0.0,0.0,0.0,0.0,0.0,0.0,0.0,0.0,0.0,0.0,0.0,0.0,0.0,0.0,0.0,0.0,0.0,0.0,0.0,0.0,0.0,0.0,0.0,0.0,0.0,0.0,0.0,0.0,0.0,0.0,0.0,0.0,0.0,0.0,0.0,0.0,0.0,0.0,0.0,0.0,0.0,0.0,0.0,0.0,0.0,0.0,0.0,0.0,0.0,0.0,0.0,0.0,-0.9614,-0.9614,-0.9614,-0.9614,-0.9614,0.0,0.0,0.0,0.0,0.0,0.0,0.0,0.0,0.0,0.0,0.0,0.0,0.0,0.0,0.0,0.0,0.0,0.0,0.0,0.0,0.0,0.0,0.0,0.0,0.0,0.0,0.0,0.0,0.0,0.0,0.0,0.0,0.0,0.0,0.0,0.0,0.0,0.0,0.0,0.0,0.0,0.0,0.0,0.0,0.0,0.0,0.0,0.0,0.0,0.0,0.0,0.0,0.0,0.0,0.0,0.0,0.0,0.0,0.0,0.0,0.0,0.0,0.0,0.0,0.0,0.0,0.0,0.0,0.0,0.0,0.0,0.0,0.0,0.0,0.0,0.0,0.0,0.0,0.0,0.0,0.0,0.0,0.0,0.0,0.0,0.0,0.0,0.0,0.0,0.0,0.0,0.0,0.0,0.0,0.0,0.0,0.0,0.0,0.0,0.0,0.0,0.0,0.0,0.0,0.0,0.0,0.0,0.0,0.0,0.0,0.0,0.0,-1.0053,-1.0053,-1.0053,0.0,0.0,0.0,0.0,0.0,0.0,0.0,0.0,0.0,0.0,0.0,0.0,0.0,0.0,0.0,0.0,0.0,0.0,0.0,0.0,0.0,0.0,0.0,0.0,0.0,0.0,0.0,0.0,0.0,0.0,0.0,0.0,0.0,0.0,0.0,0.0,0.0,0.0,0.0,0.0,0.0,0.0,0.0,0.0,0.0,0.0,0.0,0.0,0.0,0.0,0.0,0.0,0.0,0.0,0.0,0.0,0.0,0.0,0.0,0.0,0.0,0.0,0.0,0.0,0.0,0.0,0.0,0.0,0.0,0.0,0.0,0.0,0.0,0.0,0.0,0.0,0.0,0.0,0.0,0.0,0.0,0.0,0.0,0.0,0.0,0.0,0.0,0.0,0.0,0.0,0.0,0.0,0.0,0.0,0.0,0.0,0.0,0.0,0.0,0.0,0.0,0.0,0.0,0.0,0.0,0.0,0.0,0.0,0.0,0.0,-1.0185,-1.1341,-1.137,0.0,-1.1385,0.0,0.0,0.0,0.0,0.0,0.0,0.0,0.0,0.0,0.0,0.0,0.0,0.0,0.0,0.0,0.0,0.0,0.0,0.0,0.0,0.0,0.0,0.0,0.0,0.0,0.0,0.0,0.0,0.0,0.0,0.0,0.0,0.0,0.0,0.0,0.0,0.0,0.0,0.0,0.0,0.0,0.0,0.0,0.0,0.0,0.0,0.0,0.0,0.0,0.0,0.0,0.0,0.0,0.0,0.0,0.0,0.0,0.0,0.0,0.0,0.0,0.0,0.0,0.0,0.0,0.0,0.0,0.0,0.0,0.0,0.0,0.0,0.0,0.0,0.0,0.0,0.0,0.0,0.0,0.0,0.0,0.0,0.0,0.0,0.0,0.0,0.0,0.0,0.0,0.0,0.0,0.0,0.0,0.0,0.0,0.0,0.0,0.0,0.0,0.0,0.0,0.0,0.0,0.0,0.0,0.0,0.0,0.0,0.0,0.0,0.0,-1.0975,-1.0989,-1.1077,0.0,0.0,0.0,0.0,0.0,0.0,0.0,0.0,0.0,0.0,0.0,0.0,0.0,0.0,0.0,0.0,0.0,0.0,0.0,0.0,0.0,0.0,0.0,0.0,0.0,0.0,0.0,0.0,0.0,0.0,0.0,0.0,0.0,0.0,0.0,0.0,0.0,0.0,0.0,0.0,0.0,0.0,0.0,0.0,0.0,0.0,0.0,0.0,0.0,0.0,0.0,0.0,0.0,0.0,0.0,0.0,0.0,0.0,0.0,0.0,0.0,0.0,0.0,0.0,0.0,0.0,0.0,0.0,0.0,0.0,0.0,0.0,0.0,0.0,0.0,0.0,0.0,0.0,0.0,0.0,0.0,0.0,0.0,0.0,0.0,0.0,0.0,0.0,0.0,0.0,0.0,0.0,0.0,0.0,0.0,0.0,0.0,0.0,0.0,0.0,0.0,0.0,0.0,0.0,0.0,0.0,0.0,0.0,0.0,0.0,-0.9518,0.0,-1.1046,-1.1209,-1.115,-1.0946,0.0,0.0,0.0,0.0,0.0,0.0,0.0,0.0,0.0,0.0,0.0,0.0,0.0,0.0,0.0,0.0,0.0,0.0,0.0,0.0,0.0,0.0,0.0,0.0,0.0,0.0,0.0,0.0,0.0,0.0,0.0,0.0,0.0,0.0,0.0,0.0,0.0,0.0,0.0,0.0,0.0,0.0,0.0,0.0,0.0,0.0,0.0,0.0,0.0,0.0,0.0,0.0,0.0,0.0,0.0,0.0,0.0,0.0,0.0,0.0,0.0,0.0,0.0,0.0,0.0,0.0,0.0,0.0,0.0,0.0,0.0,0.0,0.0,0.0,0.0,0.0,0.0,0.0,0.0,0.0,0.0,0.0,0.0,0.0,0.0,0.0,0.0,0.0,0.0,0.0,0.0,0.0,0.0,0.0,0.0,0.0,0.0,0.0,0.0,0.0,0.0,0.0,0.0,0.0,0.0,0.0,0.0,0.0,0.0,-1.0681,-1.0709,-1.2327,-1.2731,-1.2175,0.0,0.0,0.0,0.0,0.0,0.0,0.0,0.0,0.0,0.0,0.0,0.0,0.0,0.0,0.0,0.0,0.0,0.0,0.0,0.0,0.0,0.0,0.0,0.0,0.0,0.0,0.0,0.0,0.0,0.0,0.0,0.0,0.0,0.0,0.0,0.0,0.0,0.0,0.0,0.0,0.0,0.0,0.0,0.0,0.0,0.0,0.0,0.0,0.0,0.0,0.0,0.0,0.0,0.0,0.0,0.0,0.0,0.0,0.0,0.0,0.0,0.0,0.0,0.0,0.0,0.0,0.0,0.0,0.0,0.0,0.0,0.0,0.0,0.0,0.0,0.0,0.0,0.0,0.0,0.0,0.0,0.0,0.0,0.0,0.0,0.0,0.0,0.0,0.0,0.0,0.0,0.0,0.0,0.0,0.0,0.0,0.0,0.0,0.0,0.0,0.0,0.0,0.0,0.0,0.0,0.0,0.0,0.0,0.0,-0.8448,-0.9221,-1.0657,-1.2755,-1.1746,-1.1253,0.0,0.0,0.0,0.0,0.0,0.0,0.0,0.0,0.0,0.0,0.0,0.0,0.0,0.0,0.0,0.0,0.0,0.0,0.0,0.0,0.0,0.0,0.0,0.0,0.0,0.0,0.0,0.0,0.0,0.0,0.0,0.0,0.0,0.0,0.0,0.0,0.0,0.0,0.0,0.0,0.0,0.0,0.0,0.0,0.0,0.0,0.0,0.0,0.0,0.0,0.0,0.0,0.0,0.0,0.0,0.0,0.0,0.0,0.0,0.0,0.0,0.0,0.0,0.0,0.0,0.0,0.0,0.0,0.0,0.0,0.0,0.0,0.0,0.0,0.0,0.0,0.0,0.0,0.0,0.0,0.0,0.0,0.0,0.0,0.0,0.0,0.0,0.0,0.0,0.0,0.0,0.0,0.0,0.0,0.0,0.0,0.0,0.0,0.0,0.0,0.0,0.0,0.0,0.0,0.0,0.0,0.0,0.0,0.0,-0.7573,0.0,-1.1393,0.0,-1.1255,-1.0508,0.0,0.0,0.0,0.0,0.0,0.0,0.0,0.0,0.0,0.0,0.0,0.0,0.0,0.0,0.0,0.0,0.0,0.0,0.0,0.0,0.0,0.0,0.0,0.0,0.0,0.0,0.0,0.0,0.0,0.0,0.0,0.0,0.0,0.0,0.0,0.0,0.0,0.0,0.0,0.0,0.0,0.0,0.0,0.0,0.0,0.0,0.0,0.0,0.0,0.0,0.0,0.0,0.0,0.0,0.0,0.0,0.0,0.0,0.0,0.0,0.0,0.0,0.0,0.0,0.0,0.0,0.0,0.0,0.0,0.0,0.0,0.0,0.0,0.0,0.0,0.0,0.0,0.0,0.0,0.0,0.0,0.0,0.0,0.0,0.0,0.0,0.0,0.0,0.0,0.0,0.0,0.0,0.0,0.0,0.0,0.0,0.0,0.0,0.0,0.0,0.0,0.0,0.0,0.0,0.0,0.0,0.0,0.0,-0.72,-1.0045,-1.2516,-1.2971,-1.1341,-1.1348,-1.0155,0.0,0.0,0.0,0.0,0.0,0.0,0.0,0.0,0.0,0.0,0.0,0.0,0.0,0.0,0.0,0.0,0.0,0.0,0.0,0.0,0.0,0.0,0.0,0.0,0.0,0.0,0.0,0.0,0.0,0.0,0.0,0.0,0.0,0.0,0.0,0.0,0.0,0.0,0.0,0.0,0.0,0.0,0.0,0.0,0.0,0.0,0.0,0.0,0.0,0.0,0.0,0.0,0.0,0.0,0.0,0.0,0.0,0.0,0.0,0.0,0.0,0.0,0.0,0.0,0.0,0.0,0.0,0.0,0.0,0.0,0.0,0.0,0.0,0.0,0.0,0.0,0.0,0.0,0.0,0.0,0.0,0.0,0.0,0.0,0.0,0.0,0.0,0.0,0.0,0.0,0.0,0.0,0.0,0.0,0.0,0.0,0.0,0.0,0.0,0.0,0.0,0.0,0.0,0.0,0.0,0.0,0.0,0.0,0.0,-0.9161,-1.1442,-1.2699,-1.2709,-1.1632,-1.1137,0.0,0.0,0.0,0.0,0.0,0.0,0.0,0.0,0.0,0.0,0.0,0.0,0.0,0.0,0.0,0.0,0.0,0.0,0.0,0.0,0.0,0.0,0.0,0.0,0.0,0.0,0.0,0.0,0.0,0.0,0.0,0.0,0.0,0.0,0.0,0.0,0.0,0.0,0.0,0.0,0.0,0.0,0.0,0.0,0.0,0.0,0.0,0.0,0.0,0.0,0.0,0.0,0.0,0.0,0.0,0.0,0.0,0.0,0.0,0.0,0.0,0.0,0.0,0.0,0.0,0.0,0.0,0.0,0.0,0.0,0.0,0.0,0.0,0.0,0.0,0.0,0.0,0.0,0.0,0.0,0.0,0.0,0.0,0.0,0.0,0.0,0.0,0.0,0.0,0.0,0.0,0.0,0.0,0.0,0.0,0.0,0.0,0.0,0.0,0.0,0.0,0.0,0.0,0.0,0.0,0.0,0.0,0.0,0.0,-1.051,-1.2557,-1.3652,-1.3621,-1.2202,-1.1584,-1.1824,0.0,0.0,0.0,0.0,0.0,0.0,0.0,0.0,0.0,0.0,0.0,0.0,0.0,0.0,0.0,0.0,0.0,0.0,0.0,0.0,0.0,0.0,0.0,0.0,0.0,0.0,0.0,0.0,0.0,0.0,0.0,0.0,0.0,0.0,0.0,0.0,0.0,0.0,0.0,0.0,0.0,0.0,0.0,0.0,0.0,0.0,0.0,0.0,0.0,0.0,0.0,0.0,0.0,0.0,0.0,0.0,0.0,0.0,0.0,0.0,0.0,0.0,0.0,0.0,0.0,0.0,0.0,0.0,0.0,0.0,0.0,0.0,0.0,0.0,0.0,0.0,0.0,0.0,0.0,0.0,0.0,0.0,0.0,0.0,0.0,0.0,0.0,0.0,0.0,0.0,0.0,0.0,0.0,0.0,0.0,0.0,0.0,0.0,0.0,0.0,0.0,0.0,0.0,0.0,0.0,0.0,0.0,0.0,-1.3388,-1.5576,-1.5779,-1.4026,-1.304,-1.171,0.0,0.0,0.0,0.0,0.0,0.0,0.0,0.0,0.0,0.0,0.0,0.0,0.0,0.0,0.0,0.0,0.0,0.0,0.0,0.0,0.0,0.0,0.0,0.0,0.0,0.0,0.0,0.0,0.0,0.0,0.0,0.0,0.0,0.0,0.0,0.0,0.0,0.0,0.0,0.0,0.0,0.0,0.0,0.0,0.0,0.0,0.0,0.0,0.0,0.0,0.0,0.0,0.0,0.0,0.0,0.0,0.0,0.0,0.0,0.0,0.0,0.0,0.0,0.0,0.0,0.0,0.0,0.0,0.0,0.0,0.0,0.0,0.0,0.0,0.0,0.0,0.0,0.0,0.0,0.0,0.0,0.0,0.0,0.0,0.0,0.0,0.0,0.0,0.0,0.0,0.0,0.0,0.0,0.0,0.0,0.0,0.0,0.0,0.0,0.0,0.0,0.0,0.0,0.0,0.0,0.0,0.0,0.0,0.0,-1.4516,-1.6698,-1.7228,-1.5864,-1.4606,-1.3723,0.0,0.0,0.0,0.0,0.0,0.0,0.0,0.0,0.0,0.0,0.0,0.0,0.0,0.0,0.0,0.0,0.0,0.0,0.0,0.0,0.0,0.0,0.0,0.0,0.0,0.0,0.0,0.0,0.0,0.0,0.0,0.0,0.0,0.0,0.0,0.0,0.0,0.0,0.0,0.0,0.0,0.0,0.0,0.0,0.0,0.0,0.0,0.0,0.0,0.0,0.0,0.0,0.0,0.0,0.0,0.0,0.0,0.0,0.0,0.0,0.0,0.0,0.0,0.0,0.0,0.0,0.0,0.0,0.0,0.0,0.0,0.0,0.0,0.0,0.0,0.0,0.0,0.0,0.0,0.0,0.0,0.0,0.0,0.0,0.0,0.0,0.0,0.0,0.0,0.0,0.0,0.0,0.0,0.0,0.0,0.0,0.0,0.0,0.0,0.0,0.0,0.0,0.0,0.0,0.0,0.0,0.0,0.0,-1.484,-1.589,-1.7581,-1.8237,-1.7583,-1.6164,-1.4946,0.0,0.0,0.0,0.0,0.0,0.0,0.0,0.0,0.0,0.0,0.0,0.0,0.0,0.0,0.0,0.0,0.0,0.0,0.0,0.0,0.0,0.0,0.0,0.0,0.0,0.0,0.0,0.0,0.0,0.0,0.0,0.0,0.0,0.0,0.0,0.0,0.0,0.0,0.0,0.0,0.0,0.0,0.0,0.0,0.0,0.0,0.0,0.0,0.0,0.0,0.0,0.0,0.0,0.0,0.0,0.0,0.0,0.0,0.0,0.0,0.0,0.0,0.0,0.0,0.0,0.0,0.0,0.0,0.0,0.0,0.0,0.0,0.0,0.0,0.0,0.0,0.0,0.0,0.0,0.0,0.0,0.0,0.0,0.0,0.0,0.0,0.0,0.0,0.0,0.0,0.0,0.0,0.0,0.0,0.0,0.0,0.0,0.0,0.0,0.0,0.0,0.0,0.0,0.0,0.0,0.0,0.0,0.0,-1.5732,-1.7191,-1.8271,-1.8827,-1.878,-1.7477,-1.5793,0.0,0.0,0.0,0.0,0.0,0.0,0.0,0.0,0.0,0.0,0.0,0.0,0.0,0.0,0.0,0.0,0.0,0.0,0.0,0.0,0.0,0.0,0.0,0.0,0.0,0.0,0.0,0.0,0.0,0.0,0.0,0.0,0.0,0.0,0.0,0.0,0.0,0.0,0.0,0.0,0.0,0.0,0.0,0.0,0.0,0.0,0.0,0.0,0.0,0.0,0.0,0.0,0.0,0.0,0.0,0.0,0.0,0.0,0.0,0.0,0.0,0.0,0.0,0.0,0.0,0.0,0.0,0.0,0.0,0.0,0.0,0.0,0.0,0.0,0.0,0.0,0.0,0.0,0.0,0.0,0.0,0.0,0.0,0.0,0.0,0.0,0.0,0.0,0.0,0.0,0.0,0.0,0.0,0.0,0.0,0.0,0.0,0.0,0.0,0.0,0.0,0.0,0.0,0.0,0.0,0.0,0.0,0.0,-1.5827,-1.6841,-1.8144,-1.8827,-1.8812,-1.7461,-1.6142,0.0,0.0,0.0,0.0,0.0,0.0,0.0,0.0,0.0,0.0,0.0,0.0,0.0,0.0,0.0,0.0,0.0,0.0,0.0,0.0,0.0,0.0,0.0,0.0,0.0,0.0,0.0,0.0,0.0,0.0,0.0,0.0,0.0,0.0,0.0,0.0,0.0,0.0,0.0,0.0,0.0,0.0,0.0,0.0,0.0,0.0,0.0,0.0,-1.8586,0.0,0.0,0.0,0.0,0.0,0.0,0.0,0.0,0.0,0.0,0.0,0.0,0.0,0.0,0.0,0.0,0.0,0.0,0.0,0.0,0.0,0.0,0.0,0.0,0.0,0.0,0.0,0.0,0.0,0.0,0.0,0.0,0.0,0.0,0.0,0.0,0.0,0.0,0.0,0.0,0.0,0.0,0.0,0.0,0.0,0.0,0.0,0.0,0.0,0.0,0.0,0.0,0.0,0.0,0.0,0.0,0.0,0.0,0.0,-1.6348,-1.7445,-1.8367,-1.8827,-1.8796,-1.8113,-1.6911,0.0,0.0,0.0,0.0,0.0,0.0,0.0,0.0,0.0,0.0,0.0,0.0,0.0,0.0,0.0,0.0,0.0,0.0,0.0,0.0,0.0,0.0,0.0,0.0,0.0,0.0,0.0,0.0,0.0,0.0,0.0,0.0,0.0,0.0,0.0,0.0,0.0,0.0,0.0,0.0,0.0,0.0,0.0,0.0,0.0,0.0,0.0,0.0,0.0,0.0,0.0,0.0,0.0,0.0,0.0,0.0,0.0,0.0,0.0,0.0,0.0,0.0,0.0,0.0,0.0,0.0,0.0,0.0,0.0,0.0,0.0,0.0,0.0,0.0,0.0,0.0,0.0,0.0,0.0,0.0,0.0,0.0,0.0,0.0,0.0,0.0,0.0,0.0,0.0,0.0,0.0,0.0,0.0,0.0,0.0,0.0,0.0,0.0,0.0,0.0,0.0,0.0,0.0,0.0,0.0,0.0,0.0,-1.5471,-1.6857,-1.8393,-1.876,-1.892,-1.8904,-1.9109,-1.7813,-1.4889,0.0,0.0,0.0,0.0,0.0,0.0,0.0,0.0,0.0,0.0,0.0,0.0,0.0,0.0,0.0,0.0,0.0,0.0,0.0,0.0,0.0,0.0,0.0,0.0,0.0,0.0,0.0,0.0,0.0,0.0,0.0,0.0,0.0,0.0,0.0,0.0,0.0,0.0,-1.9619,-2.141,0.0,0.0,0.0,0.0,0.0,0.0,0.0,0.0,-2.1865,0.0,0.0,0.0,0.0,0.0,0.0,0.0,0.0,0.0,0.0,0.0,0.0,0.0,0.0,0.0,0.0,0.0,0.0,0.0,0.0,0.0,0.0,0.0,0.0,0.0,0.0,0.0,0.0,0.0,0.0,0.0,0.0,0.0,0.0,0.0,0.0,0.0,0.0,0.0,0.0,0.0,0.0,0.0,0.0,0.0,0.0,0.0,0.0,0.0,0.0,0.0,0.0,0.0,0.0,0.0,0.0,-1.7313,-1.6376,-1.6976,-1.9307,-1.9438,-1.9455,-1.9438,-1.9915,-1.8642,-1.5496,0.0,0.0,0.0,0.0,0.0,0.0,0.0,0.0,0.0,0.0,0.0,0.0,0.0,0.0,0.0,0.0,0.0,0.0,0.0,0.0,0.0,0.0,0.0,0.0,0.0,0.0,0.0,0.0,0.0,0.0,0.0,0.0,0.0,0.0,0.0,0.0,0.0,0.0,0.0,-2.3246,-2.3858,0.0,0.0,0.0,0.0,0.0,0.0,0.0,0.0,-2.2343,0.0,0.0,0.0,0.0,0.0,0.0,0.0,0.0,0.0,0.0,0.0,0.0,0.0,0.0,0.0,0.0,0.0,0.0,0.0,0.0,0.0,0.0,0.0,0.0,0.0,0.0,0.0,0.0,0.0,0.0,0.0,0.0,0.0,0.0,0.0,0.0,0.0,0.0,0.0,0.0,0.0,0.0,0.0,0.0,0.0,0.0,0.0,0.0,0.0,0.0,0.0,0.0,0.0,0.0,0.0,-1.708,-1.7947,-1.9124,-2.0962,-2.0709,-2.0709,-2.1016,-2.0022,-1.8338,0.0,0.0,0.0,0.0,0.0,0.0,0.0,0.0,0.0,0.0,0.0,0.0,0.0,0.0,0.0,0.0,0.0,0.0,0.0,0.0,0.0,0.0,0.0,0.0,0.0,0.0,0.0,0.0,0.0,0.0,0.0,0.0,0.0,0.0,0.0,0.0,0.0,0.0,0.0,0.0,-2.401,-2.4755,-2.4777,0.0,0.0,0.0,0.0,0.0,0.0,-2.3432,-2.368,0.0,0.0,0.0,0.0,0.0,0.0,0.0,0.0,0.0,0.0,0.0,0.0,0.0,0.0,0.0,0.0,0.0,0.0,0.0,0.0,0.0,0.0,0.0,0.0,0.0,0.0,0.0,0.0,0.0,0.0,0.0,0.0,0.0,0.0,0.0,0.0,0.0,0.0,0.0,0.0,0.0,0.0,0.0,0.0,0.0,0.0,0.0,0.0,0.0,0.0,0.0,0.0,0.0,0.0,0.0,-1.654,-1.9127,-2.111,-2.2465,-2.1943,-2.1943,-2.2503,-2.0449,-1.8534,0.0,0.0,0.0,0.0,0.0,0.0,0.0,0.0,0.0,0.0,0.0,0.0,0.0,0.0,0.0,0.0,0.0,0.0,0.0,0.0,0.0,0.0,0.0,0.0,0.0,0.0,0.0,0.0,0.0,0.0,0.0,0.0,0.0,0.0,0.0,0.0,0.0,0.0,0.0,0.0,0.0,-2.5652,-2.5402,-2.5338,0.0,0.0,0.0,0.0,-2.4329,-2.5363,0.0,0.0,0.0,0.0,0.0,0.0,0.0,0.0,0.0,0.0,0.0,0.0,0.0,0.0,0.0,0.0,0.0,0.0,0.0,0.0,0.0,0.0,0.0,0.0,0.0,0.0,0.0,0.0,0.0,0.0,0.0,0.0,0.0,0.0,0.0,0.0,0.0,0.0,0.0,0.0,0.0,0.0,0.0,0.0,0.0,0.0,0.0,0.0,0.0,0.0,0.0,0.0,0.0,0.0,0.0,0.0,-1.6986,-1.8803,-2.0777,-2.2882,-2.2911,-2.2931,-2.2999,-2.2419,-2.0585,0.0,0.0,0.0,0.0,0.0,0.0,0.0,0.0,0.0,0.0,0.0,0.0,0.0,0.0,0.0,0.0,0.0,0.0,0.0,0.0,0.0,0.0,0.0,0.0,0.0,0.0,0.0,0.0,0.0,0.0,0.0,0.0,0.0,0.0,0.0,0.0,0.0,0.0,0.0,0.0,0.0,-2.7325,-2.6563,-2.6256,-2.6283,0.0,0.0,-2.6578,-2.7757,-2.8126,0.0,0.0,0.0,0.0,0.0,0.0,0.0,0.0,0.0,0.0,0.0,0.0,0.0,0.0,0.0,0.0,0.0,0.0,0.0,0.0,0.0,0.0,0.0,0.0,0.0,0.0,0.0,0.0,0.0,0.0,0.0,0.0,0.0,0.0,0.0,0.0,0.0,0.0,0.0,0.0,0.0,0.0,0.0,0.0,0.0,0.0,0.0,0.0,0.0,0.0,0.0,0.0,0.0,0.0,0.0,-1.5234,-1.791,-2.0859,-2.3158,-2.4596,-2.4317,-2.4317,-2.4659,-2.2388,-2.0146,0.0,0.0,0.0,0.0,0.0,0.0,0.0,0.0,0.0,0.0,0.0,0.0,0.0,0.0,0.0,0.0,0.0,0.0,0.0,0.0,0.0,0.0,0.0,0.0,0.0,0.0,0.0,0.0,0.0,0.0,0.0,0.0,0.0,0.0,0.0,0.0,0.0,0.0,0.0,0.0,0.0,0.0,-2.7195,-2.8121,0.0,0.0,0.0,-2.8796,-2.8333,0.0,0.0,0.0,0.0,0.0,0.0,0.0,0.0,0.0,0.0,0.0,0.0,0.0,0.0,0.0,0.0,0.0,0.0,0.0,0.0,0.0,0.0,0.0,0.0,0.0,0.0,0.0,0.0,0.0,0.0,0.0,0.0,0.0,0.0,0.0,0.0,0.0,0.0,0.0,0.0,0.0,0.0,0.0,0.0,0.0,0.0,0.0,0.0,0.0,0.0,0.0,0.0,0.0,0.0,0.0,0.0,0.0,-1.8603,-2.2681,-2.5187,-2.6008,-2.5717,-2.5695,-2.6174,-2.3088,0.0,0.0,0.0,0.0,0.0,0.0,0.0,0.0,0.0,0.0,0.0,0.0,0.0,0.0,0.0,0.0,0.0,0.0,0.0,0.0,0.0,0.0,0.0,0.0,0.0,0.0,0.0,-1.1555,0.0,0.0,0.0,0.0,0.0,0.0,0.0,0.0,0.0,0.0,0.0,0.0,0.0,0.0,-2.8179,-2.8253,-2.9741,-3.0637,0.0,0.0,-3.0622,-2.9349,-3.0333,-3.0209,0.0,0.0,0.0,0.0,0.0,0.0,0.0,0.0,0.0,0.0,0.0,0.0,0.0,0.0,0.0,0.0,0.0,0.0,0.0,0.0,0.0,0.0,0.0,0.0,0.0,0.0,0.0,0.0,0.0,0.0,0.0,0.0,0.0,0.0,0.0,0.0,0.0,0.0,0.0,0.0,0.0,0.0,0.0,0.0,0.0,0.0,0.0,0.0,0.0,0.0,0.0,0.0,0.0,0.0,0.0,-1.867,-2.3254,-2.5859,-2.6483,-2.6857,-2.7103,-2.708,-2.5926,-2.3452,0.0,0.0,0.0,0.0,0.0,0.0,0.0,0.0,0.0,0.0,0.0,0.0,0.0,0.0,0.0,0.0,0.0,0.0,0.0,0.0,0.0,0.0,0.0,0.0,0.0,0.0,0.0,0.0,0.0,0.0,0.0,0.0,0.0,0.0,0.0,0.0,0.0,0.0,0.0,0.0,0.0,-2.8764,-2.984,-3.0327,-3.1144,0.0,0.0,-3.1486,-3.2032,-3.3247,-3.2831,-2.8566,0.0,0.0,0.0,0.0,0.0,0.0,0.0,0.0,0.0,0.0,0.0,0.0,0.0,0.0,0.0,0.0,0.0,0.0,0.0,0.0,0.0,0.0,0.0,0.0,0.0,0.0,0.0,0.0,0.0,0.0,0.0,0.0,0.0,0.0,0.0,0.0,0.0,0.0,0.0,0.0,0.0,0.0,0.0,0.0,0.0,0.0,0.0,0.0,0.0,0.0,0.0,0.0,0.0,-1.6933,-1.9596,-2.3621,-2.6119,-2.6894,-2.7103,-2.7162,-2.7162,-2.6299,-2.4323,0.0,0.0,0.0,0.0,0.0,0.0,0.0,0.0,0.0,0.0,0.0,0.0,0.0,0.0,0.0,0.0,0.0,0.0,0.0,0.0,0.0,0.0,0.0,0.0,0.0,0.0,0.0,0.0,-1.436,-1.4939,-1.5008,0.0,0.0,0.0,0.0,0.0,0.0,0.0,0.0,0.0,0.0,-2.9805,-3.0653,-3.1804,0.0,0.0,-3.3139,-3.3009,-3.3552,-3.3158,-3.2066,-3.01,-2.9379,0.0,0.0,0.0,0.0,0.0,0.0,0.0,0.0,0.0,0.0,0.0,0.0,0.0,0.0,0.0,0.0,0.0,0.0,0.0,0.0,0.0,0.0,0.0,0.0,0.0,0.0,0.0,0.0,0.0,0.0,0.0,0.0,0.0,0.0,0.0,0.0,0.0,0.0,0.0,0.0,0.0,0.0,0.0,0.0,0.0,0.0,0.0,0.0,0.0,0.0,0.0,0.0,-1.7512,-2.0204,-2.4059,-2.6511,-2.7406,-2.751,-2.7592,-2.7568,-2.6753,-2.5182,0.0,0.0,0.0,0.0,0.0,0.0,0.0,0.0,0.0,0.0,0.0,0.0,0.0,0.0,0.0,0.0,0.0,0.0,0.0,0.0,0.0,0.0,0.0,0.0,0.0,0.0,0.0,0.0,-1.5,-1.5254,-1.4543,0.0,0.0,0.0,0.0,0.0,0.0,0.0,0.0,0.0,0.0,-3.0917,-3.1849,-3.2921,-3.3547,-3.3547,-3.3326,-3.3236,-3.3279,-3.2749,-3.1866,-3.068,0.0,0.0,0.0,0.0,0.0,0.0,0.0,0.0,0.0,0.0,0.0,0.0,0.0,0.0,0.0,0.0,0.0,0.0,0.0,0.0,0.0,0.0,0.0,0.0,0.0,0.0,0.0,0.0,0.0,0.0,-0.6169,0.0,0.0,0.0,0.0,0.0,0.0,0.0,0.0,0.0,0.0,0.0,0.0,0.0,0.0,0.0,0.0,0.0,0.0,0.0,0.0,0.0,0.0,-1.8318,-2.0204,-2.4587,-2.721,-2.7834,-2.8283,-2.8419,-2.8419,-2.7915,-2.6395,-2.363,0.0,0.0,0.0,0.0,0.0,0.0,0.0,0.0,0.0,0.0,0.0,0.0,0.0,0.0,0.0,0.0,0.0,0.0,0.0,0.0,0.0,0.0,0.0,0.0,0.0,0.0,-1.4446,-1.5385,-1.5446,0.0,0.0,0.0,0.0,0.0,0.0,0.0,0.0,0.0,0.0,-3.0172,-3.1891,-3.3508,-3.3386,-3.3212,-3.3233,-3.2436,-3.156,-3.0883,-3.2437,-3.2959,0.0,0.0,0.0,0.0,0.0,0.0,0.0,0.0,0.0,0.0,0.0,0.0,0.0,0.0,0.0,0.0,0.0,0.0,0.0,0.0,0.0,0.0,0.0,0.0,0.0,0.0,0.0,-1.1221,-1.0805,0.0,0.0,0.0,0.0,0.0,0.0,0.0,0.0,0.0,0.0,0.0,-2.0092,-2.1176,0.0,0.0,0.0,0.0,0.0,0.0,0.0,0.0,0.0,0.0,0.0,0.0,-1.9275,-2.1823,-2.5111,-2.7363,-2.8235,-2.8419,-2.8522,-2.8522,-2.833,-2.6919,-2.4211,0.0,0.0,0.0,0.0,0.0,0.0,0.0,0.0,0.0,0.0,0.0,0.0,0.0,0.0,0.0,0.0,0.0,0.0,0.0,0.0,0.0,0.0,0.0,0.0,0.0,-1.3513,0.0,0.0,0.0,0.0,0.0,0.0,0.0,0.0,0.0,0.0,0.0,-2.869,-3.0759,-3.1906,-3.2965,-3.4141,-3.3877,-3.3675,0.0,0.0,0.0,0.0,0.0,0.0,0.0,0.0,0.0,0.0,0.0,0.0,0.0,0.0,-3.967,-3.5422,-3.4046,-3.3646,-3.3807,0.0,0.0,0.0,0.0,0.0,0.0,0.0,0.0,0.0,0.0,0.0,0.0,0.0,0.0,-1.4946,0.0,-1.4245,0.0,0.0,0.0,0.0,0.0,0.0,0.0,0.0,-2.1204,-2.3096,-2.3617,-2.4384,-2.4434,0.0,-2.3238,-2.126,0.0,0.0,0.0,0.0,0.0,0.0,0.0,0.0,-2.0629,-2.3167,-2.5804,-2.7633,-2.8474,-2.8522,-2.8522,-2.8522,-2.833,-2.7257,-2.5318,-2.342,-2.1597,0.0,0.0,0.0,0.0,0.0,0.0,0.0,0.0,0.0,0.0,0.0,0.0,0.0,0.0,0.0,0.0,0.0,0.0,0.0,0.0,0.0,0.0,0.0,-1.4563,0.0,0.0,0.0,0.0,0.0,0.0,0.0,0.0,0.0,-2.5558,-2.8113,-3.0787,-3.303,-3.3225,-3.3526,-3.4533,0.0,0.0,0.0,0.0,0.0,0.0,0.0,-3.4602,-3.5751,-3.6099,-3.6391,-3.7185,-3.9756,-4.183,-4.2303,0.0,0.0,-3.9608,-3.8254,-3.7839,-3.8026,-3.8413,-3.8895,-3.9415,-4.0588,-4.1701,0.0,0.0,0.0,0.0,0.0,0.0,0.0,0.0,-1.7775,-1.8113,0.0,-1.7608,0.0,0.0,0.0,0.0,0.0,-1.7855,0.0,0.0,-2.4937,-2.6559,-2.6584,-2.6565,-2.6841,-2.7344,-2.7605,-2.6664,-2.4439,-2.0296,0.0,0.0,0.0,0.0,0.0,0.0,-2.2171,-2.4234,-2.6497,-2.7969,-2.8498,-2.8522,-2.8522,-2.8498,-2.8041,-2.7512,-2.6908,-2.5269,-2.3652,-2.2194,-1.956,0.0,0.0,0.0,0.0,0.0,0.0,0.0,0.0,0.0,0.0,0.0,0.0,0.0,0.0,0.0,0.0,0.0,0.0,0.0,0.0,-1.5918,0.0,0.0,0.0,0.0,0.0,0.0,0.0,0.0,0.0,0.0,-2.8697,-3.0852,-3.3052,-3.4962,0.0,0.0,0.0,0.0,-3.2076,-3.4872,-3.2812,-3.1728,-3.3942,-3.4733,-3.5748,-3.7097,0.0,0.0,-4.014,-4.1774,-4.2867,-4.2051,-4.3799,-4.5208,-4.5653,-4.3992,-4.2962,-4.3434,-4.3151,-4.3127,-4.3647,-4.5024,-4.6391,-2.1167,0.0,0.0,0.0,0.0,-1.8953,-2.0493,-2.3078,-2.2783,-2.2342,-2.1862,-2.1512,0.0,0.0,0.0,0.0,0.0,0.0,-2.2197,-2.3904,-2.6083,-2.7469,-2.8222,-2.8649,-2.8699,-2.8473,-2.8574,-2.7854,-2.6496,-2.5219,-2.2412,-1.8215,0.0,0.0,0.0,0.0,-2.3862,-2.5565,-2.6956,-2.7969,-2.8498,-2.8522,-2.8522,-2.8522,-2.8378,-2.821,-2.8065,-2.7162,-2.6158,-2.4945,-2.2791,0.0,0.0,0.0,0.0,0.0,0.0,0.0,0.0,0.0,0.0,0.0,0.0,0.0,0.0,0.0,0.0,0.0,0.0,0.0,-1.559,-1.6325,-1.7507,0.0,0.0,0.0,0.0,0.0,0.0,0.0,0.0,0.0,-3.2934,-3.4185,-3.4843,0.0,0.0,-3.3788,-3.4024,-3.3184,-3.3277,-3.5085,0.0,0.0,0.0,-3.7374,-3.7881,-3.9781,-4.1544,-4.2748,-4.3248,-4.4295,-4.5252,-4.5465,-4.6388,-4.7064,-4.7265,-4.637,-4.5797,-4.6203,-4.6514,-4.6705,-4.6897,-4.7724,-4.8363,-2.5906,-2.3911,-2.1713,-2.1493,-2.2409,-2.2427,-2.3862,-2.611,-2.5836,-2.5635,-2.5388,-2.4969,-2.3481,-2.1272,-2.0394,0.0,0.0,0.0,-2.4579,-2.6353,-2.7476,-2.8398,-2.9252,-2.9628,-2.9603,-2.9302,-2.912,-2.8773,-2.8273,-2.8199,-2.6208,-2.2504,0.0,0.0,-2.2176,-2.3917,-2.5443,-2.6719,-2.7584,-2.8186,-2.8498,-2.8522,-2.8522,-2.8522,-2.8522,-2.8522,-2.8522,-2.821,-2.7633,-2.6767,-2.4921,-2.2803,0.0,0.0,0.0,0.0,0.0,0.0,0.0,0.0,0.0,0.0,0.0,-1.4366,-1.2922,0.0,0.0,0.0,-1.5661,-1.7002,-1.8854,-1.9423,0.0,0.0,0.0,0.0,0.0,0.0,0.0,-2.8594,-3.1513,-3.3389,-3.4247,-3.5318,-3.5784,-3.5149,-3.4166,-3.3777,-3.4326,0.0,-3.3739,-3.5875,-3.5531,-3.5962,-3.814,-3.8637,-3.9646,-4.2616,-4.3841,-4.4684,-4.5157,-4.569,-4.6335,-4.6978,-4.7604,-4.8028,-4.8657,-4.8035,-4.7551,-4.7694,-4.842,-4.8892,-4.8916,-4.9349,-4.9734,-2.9425,-2.9221,-2.4989,-2.3904,-2.4909,-2.5417,-2.6377,-2.7469,-2.7494,-2.8021,-2.8825,-2.7871,-2.6881,-2.577,-2.3747,0.0,-2.5208,-2.5652,-2.6966,-2.9001,-2.9001,-2.9277,-2.9779,-2.9779,-2.9779,-2.9779,-2.9524,-2.9549,-2.9779,-2.9574,-2.8673,-2.7279,-2.6258,-2.5728,-2.5798,-2.6238,-2.6966,-2.7777,-2.8258,-2.8498,-2.8522,-2.8522,-2.8522,-2.8522,-2.8474,-2.845,-2.845,-2.8402,-2.8162,-2.7633,-2.619,-2.4467,-2.2437,0.0,0.0,0.0,0.0,0.0,0.0,0.0,0.0,0.0,0.0,0.0,0.0,0.0,0.0,0.0,-1.9219,0.0,-2.3587,-2.3967,0.0,0.0,0.0,-2.4466,-2.6155,-2.7381,-2.8611,-2.9804,0.0,0.0,-3.3585,0.0,-3.6022,-3.609,-3.4277,-3.356,-3.5422,-3.3992,-3.3819,-3.6709,-3.5677,-3.5452,-3.8004,-3.9134,-4.1219,-4.4774,-4.6076,-4.6248,-4.6341,-4.6354,-4.6542,-4.7095,-4.7607,-4.8239,-4.9575,-4.9015,-4.8662,-4.8145,-4.901,-4.9902,-4.9926,-5.0263,-5.06,-3.0239,-3.0112,-2.8825,-2.8225,-2.8122,-2.8051,-2.85,-2.9176,-2.9202,-2.9101,-2.89,-2.8649,-2.8149,-2.7454,-2.7008,-2.7207,-2.7927,-2.8051,-2.865,-2.9553,-2.9578,-2.9654,-2.9779,-2.9779,-2.9779,-2.9779,-2.9754,-2.9754,-2.9779,-2.9702,-2.9501,-2.9126,-2.885,-2.8002,-2.6599,-2.7236,-2.794,-2.8518,-2.8505,-2.8522,-2.8522,-2.8522,-2.8522,-2.8498,-2.8114,-2.7897,-2.7897,-2.7512,-2.7248,-2.7103,-2.6358,-2.5301,-2.3966,-2.1367,0.0,0.0,0.0,0.0,0.0,0.0,0.0,0.0,0.0,-1.9254,-1.5215,0.0,-2.0555,0.0,-2.1497,-2.2892,-2.3761,-2.4277,0.0,0.0,-2.7957,-2.8308,-3.1197,-3.1231,-3.1738,-3.3394,-3.473,-3.5537,-3.5882,-3.5382,-3.5218,-3.5626,-3.4887,-3.4236,-3.4336,-3.4279,-3.4586,-3.5762,-3.623,-3.7052,-3.8405,-4.0872,-4.304,-4.5318,-4.6076,-4.6523,-4.6923,-4.7279,-4.747,-4.7584,-4.7951,-4.8321,-4.8747,-4.9058,-4.9273,-4.9156,-4.9392,-4.9772,-5.0362,-5.0624,-5.072,-3.0698,-3.0596,-3.0368,-3.0037,-2.9731,-2.9454,-2.9503,-2.9779,-2.9779,-2.9628,-2.9302,-2.9302,-2.9227,-2.9,-2.9,-2.9076,-2.9302,-2.9378,-2.9631,-2.9934,-2.9882,-2.9882,-2.9934,-2.9882,-2.9779,-2.9779,-2.9779,-2.9779,-2.9779,-2.9779,-2.9779,-2.9804,-3.0139,-2.958,-2.8226,-2.8445,-2.8655,-2.8791,-2.8657,-2.8578,-2.8522,-2.8522,-2.8402,-2.8162,-2.8114,-2.7849,-2.7392,-2.732,-2.7055,-2.6574,-2.6045,-2.5468,-2.4867,-2.2847,-2.1344,0.0,0.0,0.0,0.0,0.0,0.0,0.0,0.0,0.0,0.0,0.0,-2.3816,-2.3721,-2.4412,-2.5307,-2.628,-2.7079,-2.8486,-3.095,-3.0371,-3.0761,-3.3132,-3.2897,-3.3078,-3.4655,-3.5021,-3.5323,-3.6103,-3.551,-3.5201,-3.5451,-3.551,-3.5336,-3.4969,-3.5007,-3.5277,-3.5976,-3.6504,-3.7608,-3.9014,-4.0784,-4.2776,-4.4887,-4.5229,-4.5302,-4.6814,-4.7051,-4.7118,-4.7932,-4.8321,-4.8667,-4.9245,-4.9101,-4.9245,-4.9795,-4.9509,-4.9532,-5.0412,-5.0888,-5.1056,-3.0849,-3.0924,-3.0596,-3.0444,-3.0368,-3.0011,-2.9856,-2.9779,-2.9779,-2.9856,-2.9856,-2.9882,-2.9934,-3.0062,-3.0088,-3.0011,-2.9856,-3.0011,-3.0088,-3.0088,-2.9934,-2.9934,-3.0088,-2.9882,-2.9804,-2.9779,-2.9779,-2.9779,-2.9779,-2.9779,-2.9882,-2.9934,-3.0545,-3.062,-3.0088,-2.9729,-2.9341,-2.887,-2.8791,-2.8736,-2.8578,-2.8498,-2.8282,-2.7873,-2.8138,-2.7873,-2.7007,-2.7296,-2.7079,-2.6142,-2.5709,-2.5516,-2.5492,-2.4097,-2.3125,0.0,-2.2168,0.0,0.0,0.0,0.0,0.0,0.0,0.0,0.0,-2.6329,-2.7151,-2.7734,-2.7583,-2.8125,-2.9609,-3.0488,-3.1309,-3.2148,-3.206,-3.2266,-3.3272,-3.3359,-3.3733,-3.472,-3.4893,-3.5066,-3.5529,-3.5606,-3.5626,-3.5722,-3.6249,-3.6465,-3.6269,-3.5937,-3.6073,-3.6719,-3.6797,-3.7708,-3.9613,-4.0226,-4.1446,-4.4138,-4.4366,-4.4269,-4.6656,-4.6726,-4.695,-4.8308,-4.8655,-4.8957,-5.027,-4.9412,-4.9101,-5.0104,-4.9532,-4.9268,-5.0318,-5.0938,-5.1321,-3.0849,-3.0773,-3.0698,-3.0546,-3.0368,-3.0292,-3.0088,-2.9779,-3.0011,-3.0011,-3.0011,-3.0088,-3.0088,-3.0088,-2.9934,-3.0011,-3.0292,-3.0011,-2.9934,-3.0062,-3.0088,-2.9934,-2.9856,-3.0009,-2.9932,-2.9779,-2.9779,-2.9779,-2.9779,-2.9779,-3.0139,-3.0696,-3.082,-3.1044,-3.1368,0.0,0.0,0.0,-2.887,-2.8791,-2.8736,-2.8578,-2.845,-2.8354,-2.7633,0.0,-2.6935,-2.6598,-2.631,-2.6117,-2.643,0.0,0.0,0.0,0.0,0.0,0.0,0.0,0.0,0.0,0.0,0.0,-2.8074,-2.6845,-2.5569,-2.7268,-2.8793,-2.9434,-2.9888,-3.0293,-3.0605,-3.1094,-3.1738,-3.2578,-3.2969,-3.3272,-3.3521,-3.4309,-3.5004,-3.4911,-3.5413,-3.5782,-3.586,-3.5879,-3.6016,-3.6327,-3.6621,-3.6777,-3.7031,-3.6872,-3.693,-3.7187,-3.7441,-3.8402,-4.0309,-4.0595,-4.1084,-4.3075,-4.4796,-4.5759,-4.668,-4.8192,-4.8874,-4.9392,-4.9295,-4.9101,-4.898,-4.9101,-4.9365,-4.9652,-4.9961,-5.0412,-5.0578,-5.0675,-5.0744,-3.1959,0.0,-3.1695,-3.1386,0.0,-3.052,-3.0368,-3.0088,-3.0088,-3.0139,-3.0216,-3.0164,-3.0164,-3.0216,-3.0139,-3.0088,-3.0088,-3.0011,-3.0088,-3.0216,-3.0011,-3.0011,-3.0088,-2.9984,-2.9907,-2.9779,-2.9779,-2.9779,-2.9779,-3.0139,-3.0343,-3.0343,-3.1489,-3.1829,-3.1341,-3.1333,-3.0573,-2.9131,-2.887,-2.8736,-2.8657,-2.8578,-2.8378,-2.8114,0.0,0.0,0.0,0.0,0.0,0.0,0.0,0.0,0.0,0.0,0.0,-2.7993,-2.7544,-2.7601,-2.8302,-2.9042,-3.022,-3.2133,-3.1608,-3.0041,-2.771,-2.8694,-2.9754,-3.0048,-3.0758,-3.1289,-3.1523,-3.1894,-3.2402,-3.3027,-3.3476,-3.3906,-3.4225,-3.4848,-3.5469,-3.5529,-3.5743,-3.6035,-3.6035,-3.623,-3.6426,-3.666,-3.7051,-3.7363,-3.7539,-3.7422,-3.7363,-3.7578,-3.7969,-3.859,-3.949,-3.9694,-4.0249,-4.1693,-4.3024,-4.4494,-4.5997,-4.7654,-4.8897,-4.9391,-4.9509,-4.9509,-4.9532,-4.9532,-4.9652,-4.9961,-5.0104,-5.0365,-5.089,-5.1201,-5.1486,-3.3441,-3.2505,-3.3159,-3.2589,-3.1287,-3.1287,-3.1059,-3.0727,0.0,0.0,0.0,-3.0318,-3.0292,-3.0444,-3.0444,-3.0216,-2.9934,-3.0088,-3.0216,-3.0368,-3.0088,-3.0088,-3.0292,-3.0088,-2.9856,-2.9882,-2.9779,-2.9779,-2.9779,-3.0419,-3.0545,-3.0444,-3.2182,-3.2554,-3.151,-3.1806,-3.1216,-2.9505,-2.9242,-2.9083,-2.8867,-2.8867,-2.857,-2.8138,-2.845,-2.8234,-2.7392,-2.7777,-2.7584,-2.6743,-2.72,-2.7729,-2.8258,-2.8691,-2.9605,-3.1048,-3.1577,-3.1937,-3.2226,-3.3428,-3.4102,-3.3953,-3.3637,-3.2532,-3.0473,-3.0318,-3.0312,-3.0332,-3.1055,-3.1699,-3.2129,-3.2559,-3.2949,-3.3379,-3.3887,-3.4316,-3.4668,-3.5195,-3.5644,-3.5957,-3.6016,-3.6035,-3.6035,-3.6387,-3.6699,-3.6855,-3.7402,-3.7969,-3.7969,-3.7793,-3.7715,-3.8008,-3.832,-3.8555,-3.8594,-3.8818,-3.9235,-4.0843,-4.1544,-4.2852,-4.5301,-4.7082,-4.8279,-4.9581,-4.9652,-4.9938,-5.0222,-4.9938,-4.9795,-5.0388,-5.0175,-5.0246,-5.1369,-5.2043,-5.2524,-3.4864,-3.4706,-3.4854,-3.4353,-3.3441,-3.3468,-3.2957,-3.207,-3.1035,-3.0622,-3.0622,-3.0622,-3.0622,-3.0622,-3.0444,-3.0444,-3.0546,-3.0444,-3.0292,0.0,-3.047,-3.0394,-3.0164,-3.0292,-3.0216,-3.0088,-2.9882,-2.9779,-2.9779,-2.9934,-3.057,-3.1716,-3.2589,-3.3179,-3.3441,-3.3396,-3.2542,-3.086,-3.0614,-3.0474,-3.0474,-3.0119,-2.9845,-2.9749,-2.9364,-2.9124,-2.8979,-2.9027,-2.9003,-2.8859,-2.9364,-2.9869,-3.0398,-3.0494,-3.1072,-3.2154,-3.2346,-3.2971,-3.427,-3.4607,-3.4363,-3.3715,-3.3194,-3.2854,-3.2942,-3.1665,-3.0801,-3.0801,-3.125,-3.1699,-3.2129,-3.2559,-3.2988,-3.3418,-3.4141,-3.4629,-3.4707,-3.543,-3.5937,-3.6016,-3.6035,-3.6035,-3.6094,-3.6426,-3.6836,-3.7187,-3.7656,-3.8066,-3.834,-3.8437,-3.8418,-3.8476,-3.8535,-3.8574,-3.8613,-3.8906,-3.9612,-4.1235,-4.2062,-4.3468,-4.6344,-4.766,-4.8604,-5.0222,-5.0388,-5.0222,-4.9724,-5.0056,-5.008,-4.989,-5.0365,-5.1321,-5.1994,-5.2548,-5.298,-3.6453,-3.5826,-3.6168,-3.5674,-3.4594,-3.4594,-3.4093,-3.3221,-3.2638,-3.1935,-3.1138,-3.1138,-3.0983,-3.0698,-3.0622,-3.052,-3.052,-3.0444,-3.047,-3.047,-3.052,-3.047,-3.0318,-3.0522,-3.0522,-3.0388,-3.0612,-3.0658,-3.0738,-3.1578,-3.1939,-3.1862,-3.2867,-3.362,-3.3892,-3.4113,-3.333,-3.1755,-3.0984,-3.0587,-3.0587,-3.0253,-3.0086,-3.0086,-2.9845,-2.9725,-2.9725,-2.9725,-2.9725,-2.9725,-3.0494,-3.1048,-3.1288,-3.193,-3.2605,-3.3284,-3.3715,-3.4293,-3.5184,-3.5785,-3.5789,-3.5016,-3.4094,-3.3508,-3.345,-3.1917,-3.0898,-3.0918,-3.1484,-3.1953,-3.2168,-3.2754,-3.3223,-3.3398,-3.418,-3.4687,-3.4785,-3.5488,-3.6016,-3.6035,-3.6035,-3.6113,-3.6348,-3.6738,-3.7168,-3.7578,-3.8008,-3.8359,-3.8555,-3.8574,-3.8574,-3.8574,-3.8574,-3.8574,-3.8594,-3.8926,-3.9456,-4.0191,-4.1826,-4.3383,-4.5113,-4.6659,-4.8407,-4.9221,-5.0104,-5.053,-5.0032,-5.0364,-5.0388,-5.027,-5.0652,-5.1634,-5.2187,-5.2884,-5.3534,-3.8002,-3.6974,-3.7521,-3.7055,-3.5861,-3.5684,-3.5236,-3.4629,-3.4553,-3.3688,-3.2358,-3.1915,-3.1474,-3.0981,-3.0955,-3.0801,-3.0546,-3.052,-3.0598,-3.0803,-3.0726,-3.0778,-3.0881,-3.1265,-3.1268,-3.0994,-3.1436,-3.1694,-3.1898,-3.304,-3.3249,-3.2644,-3.3927,-3.4623,-3.4607,-3.4811,-3.4179,-3.2701,-3.1546,-3.0929,-3.0845,-3.0616,-3.0446,-3.0446,-3.0446,-3.0446,-3.0446,-3.0567,-3.0639,-3.0687,-3.1529,-3.2082,-3.2226,-3.3155,-3.3905,-3.4342,-3.4969,-3.5501,-3.5954,-3.651,-3.6803,-3.6185,-3.4891,-3.3727,-3.3152,-3.1848,-3.0937,-3.1094,-3.1719,-3.2187,-3.2383,-3.2969,-3.3457,-3.3594,-3.4238,-3.4746,-3.4902,-3.5547,-3.6035,-3.6035,-3.6035,-3.6191,-3.6621,-3.7031,-3.748,-3.7988,-3.8379,-3.8555,-3.8574,-3.8574,-3.8574,-3.8574,-3.8574,-3.8574,-3.8613,-3.9043,-3.9484,-3.9781,-4.1263,-4.2952,-4.4294,-4.6602,-4.7972,-4.8766,-4.9961,-5.0554,-5.0696,-5.0696,-5.0792,-5.096,-5.1417,-5.1898,-5.262,-5.3389,-5.4063,-3.9493,-3.9361,-3.9218,-3.8679,-3.782,-3.7082,-3.6669,-3.6592,-3.662,-3.5848,-3.4386,-3.3146,-3.2306,-3.1733,-3.168,-3.1343,-3.0776,-3.0849,-3.1059,-3.1267,-3.1526,-3.1889,-3.228,-3.2824,-3.2722,-3.2085,-3.2432,-3.2631,-3.2697,-3.2857,-3.3775,-3.5551,-3.6568,-3.6778,-3.6543,-3.5891,-3.5062,-3.4236,-3.3089,-3.2401,-3.2228,-3.1792,-3.1504,-3.1529,-3.1504,-3.1529,-3.148,-3.201,-3.2274,-3.2322,-3.2803,-3.3332,-3.3741,-3.3909,-3.4414,-3.5352,-3.5521,-3.5978,-3.694,-3.6614,-3.6271,-3.6013,-3.4246,-3.3048,-3.3152,-3.1848,-3.1074,-3.1603,-3.2035,-3.2305,-3.2715,-3.3144,-3.3574,-3.3926,-3.4394,-3.4863,-3.5273,-3.5742,-3.6035,-3.6035,-3.6035,-3.6191,-3.666,-3.7129,-3.7656,-3.834,-3.8516,-3.8574,-3.8574,-3.8574,-3.8574,-3.8574,-3.8574,-3.8613,-3.8691,-3.9297,-4.0136,-4.1468,-4.1554,-4.3043,-4.5382,-4.6293,-4.6824,-4.9054,-5.0246,-5.0412,-5.0696,-5.072,-5.1127,-5.1728,-5.2043,-5.2499,-5.3413,-5.4039,-5.4447,-3.991,-3.9696,-3.9625,-3.9337,-3.887,-3.8546,-3.8098,-3.7691,-3.772,-3.709,-3.6064,-3.5398,-3.4095,-3.2359,-3.2359,-3.2124,-3.1941,-3.1993,-3.2304,-3.2747,-3.2978,-3.3342,-3.3865,-3.3931,-3.3936,-3.3886,-3.3907,-3.4065,-3.4393,-3.442,-3.5425,-3.7092,-3.7196,-3.7005,-3.6844,-3.6531,-3.5736,-3.4397,-3.3784,-3.3104,-3.2463,-3.2025,-3.1849,-3.1785,-3.1961,-3.2154,-3.2226,-3.2683,-3.2971,-3.2996,-3.3452,-3.3837,-3.403,-3.4727,-3.5258,-3.5617,-3.6218,-3.697,-3.7823,-3.7536,-3.6989,-3.6231,-3.5356,-3.4425,-3.3332,-3.2621,-3.2626,-3.3391,-3.2734,-3.2344,-3.2754,-3.3184,-3.3594,-3.4023,-3.4453,-3.4883,-3.5351,-3.5762,-3.6035,-3.6035,-3.6035,-3.6309,-3.6953,-3.7637,-3.8164,-3.8535,-3.8574,-3.8574,-3.8574,-3.8574,-3.8574,-3.8613,-3.8769,-3.8945,-3.8984,-3.9453,-4.0373,-4.1012,-4.1203,-4.2657,-4.4591,-4.502,-4.549,-4.8766,-4.9365,-4.9961,-5.0554,-5.1008,-5.1321,-5.1947,-5.2525,-5.298,-5.3678,-5.3991,-5.4327,-4.0395,-4.0152,-3.993,-3.9696,-3.9481,-3.9481,-3.9119,-3.8575,-3.8501,-3.8023,-3.7281,-3.7281,-3.6031,-3.4043,-3.3463,-3.3304,-3.3378,-3.3118,-3.3587,-3.4388,-3.4492,-3.4879,-3.5376,-3.5521,-3.548,-3.5476,-3.5452,-3.5699,-3.6053,-3.6239,-3.7,-3.7976,-3.7567,-3.7183,-3.6844,-3.6688,-3.5816,-3.4481,-3.4082,-3.3589,-3.2797,-3.2568,-3.2325,-3.2051,-3.2418,-3.2731,-3.2731,-3.3329,-3.3594,-3.3501,-3.4076,-3.4414,-3.4511,-3.5404,-3.6036,-3.6098,-3.6994,-3.7774,-3.8291,-3.8104,-3.7655,-3.6796,-3.6449,-3.5817,-3.4935,-3.4247,-3.4286,-3.5002,-3.386,-3.299,-3.293,-3.334,-3.3769,-3.4199,-3.4629,-3.5078,-3.5527,-3.5859,-3.6035,-3.6035,-3.6152,-3.6523,-3.7344,-3.8066,-3.8555,-3.8574,-3.8574,-3.8574,-3.8574,-3.8574,-3.8574,-3.8594,-3.922,-3.9583,-3.9386,-4.0306,-4.0591,-4.0754,-4.1475,-4.3096,-4.4138,-4.444,-4.549,-4.9365,-4.891,-4.9221,-5.046,-5.1105,-5.1706,-5.2067,-5.2644,-5.3341,-5.3726,-5.3894,-5.4423,-4.124,-4.1148,-4.0325,-3.9899,-3.9696,-3.9696,-3.9553,-3.9265,-3.9337,-3.89,-3.8202,-3.8127,-3.7587,-3.6543,-3.5343,-3.4871,-3.4929,-3.4251,-3.4706,-3.5939,-3.5967,-3.6276,-3.681,-3.7409,-3.7275,-3.6676,-3.6949,-3.7186,-3.7175,-3.772,-3.8127,-3.8202,-3.8127,-3.7749,-3.7056,-3.635,-3.5359,-3.4721,-3.4289,-3.3847,-3.3568,-3.3744,-3.3405,-3.2702,-3.2971,-3.326,-3.3308,-3.3929,-3.4219,-3.403,-3.4919,-3.5502,-3.5572,-3.5815,-3.6424,-3.7115,-3.7823,-3.8267,-3.808,-3.7974,-3.7974,-3.7761,-3.6928,-3.6951,-3.7933,-3.6432,-3.5526,-3.599,-3.5239,-3.4371,-3.3717,-3.3858,-3.4289,-3.4701,-3.5059,-3.5488,-3.5918,-3.5976,-3.6016,-3.6094,-3.6387,-3.6953,-3.7754,-3.8281,-3.8535,-3.8574,-3.8574,-3.872,-3.8865,-3.872,-3.872,-3.9235,-4.0202,-4.0922,-3.9869,-4.0873,-4.1676,-4.1695,-4.3022,-4.5341,-4.6211,-4.7118,-4.8453,-4.9652,-4.9795,-4.9985,-5.065,-5.1249,-5.1994,-5.2548,-5.3173,-5.375,-5.3798,-5.4255,-5.4712,-4.2457,-4.1851,-4.0994,-4.0546,-4.0269,-3.9877,-3.9553,-3.9409,-3.9439,-3.9265,-3.9046,-3.8973,-3.8797,-3.8442,-3.7386,-3.6702,-3.6324,-3.5913,-3.6437,-3.7376,-3.748,-3.782,-3.8442,-3.8251,-3.8206,-3.8161,-3.7886,-3.7841,-3.8069,-3.8277,-3.8352,-3.8202,-3.8202,-3.8254,-3.8265,-3.8118,-3.739,-3.6434,-3.6194,-3.5522,-3.4295,-3.452,-3.4416,-3.378,-3.3763,-3.3859,-3.3978,-3.4556,-3.5089,-3.5527,-3.5746,-3.6063,-3.67,-3.6864,-3.7453,-3.8344,-3.8299,-3.821,-3.8396,-3.8185,-3.7974,-3.7998,-3.7989,-3.8082,-3.8618,-3.7881,-3.7331,-3.7361,-3.6839,-3.603,-3.5207,-3.4477,-3.4626,-3.567,-3.5627,-3.5566,-3.5898,-3.6035,-3.6035,-3.6133,-3.6621,-3.7305,-3.7975,-3.8301,-3.8574,-3.8574,-3.8574,-3.8991,-3.9694,-3.9281,-3.9281,-4.0944,-4.1709,-4.221,-4.2771,-4.2562,-4.2782,-4.2919,-4.3773,-4.5617,-4.6677,-4.6824,-4.7872,-4.9795,-5.0246,-5.0199,-5.0627,-5.1441,-5.2187,-5.3149,-5.3774,-5.3702,-5.3822,-5.4111,-5.4568,-4.3763,-4.2767,-4.2119,-4.1648,-4.1152,-4.0656,-4.0209,-3.9811,-3.9738,-3.9619,-3.9469,-3.9439,-3.9439,-3.9337,-3.8826,-3.8323,-3.7663,-3.7434,-3.7767,-3.8501,-3.8575,-3.887,-3.9205,-3.8822,-3.8822,-3.903,-3.8604,-3.8385,-3.8546,-3.853,-3.8498,-3.8522,-3.8522,-3.8688,-3.9081,-3.9089,-3.8573,-3.7645,-3.7353,-3.6534,-3.5415,-3.5344,-3.5268,-3.501,-3.4846,-3.475,-3.47,-3.5283,-3.5917,-3.6383,-3.6579,-3.6899,-3.754,-3.8005,-3.8447,-3.8896,-3.8526,-3.8315,-3.8526,-3.8185,-3.807,-3.8238,-3.8599,-3.8912,-3.9187,-3.916,-3.8965,-3.8618,-3.8281,-3.7626,-3.7181,-3.6289,-3.5834,-3.6282,-3.5845,-3.5684,-3.5976,-3.6423,-3.6813,-3.7132,-3.7173,-3.7602,-3.8581,-3.8649,-3.9096,-3.9818,-3.9694,-3.9962,-4.0942,-4.08,-4.0596,-4.2873,-4.3664,-4.4019,-4.4569,-4.4755,-4.4613,-4.4592,-4.5723,-4.6949,-4.7265,-4.7265,-4.785,-4.9652,-5.0318,-5.0294,-5.0627,-5.1561,-5.2524,-5.3534,-5.363,-5.3461,-5.363,-5.3822,-5.4423,-4.5034,-4.3838,-4.3712,-4.3153,-4.2395,-4.2053,-4.1455,-4.0721,-4.0471,-4.0068,-3.9589,-3.9499,-3.9499,-3.9337,-3.9265,-3.9265,-3.9119,-3.8501,-3.8575,-3.9265,-3.9265,-3.9337,-3.9409,-3.9307,-3.9277,-3.9337,-3.9162,-3.9017,-3.8885,-3.8722,-3.8835,-3.9179,-3.9218,-3.9197,-3.8996,-3.9159,-3.8669,-3.803,-3.7578,-3.7227,-3.6921,-3.6405,-3.6048,-3.5957,-3.616,-3.599,-3.5381,-3.6234,-3.675,-3.6678,-3.7468,-3.8042,-3.8388,-3.891,-3.9025,-3.8712,-3.8631,-3.8526,-3.8185,-3.8104,-3.8321,-3.8647,-3.8839,-3.9296,-4.0042,-4.0242,-4.005,-3.9546,-3.9311,-3.9327,-3.9613,-3.8918,-3.7848,-3.5958,-3.6336,-3.6479,-3.6519,-3.7327,-3.846,-3.887,-3.8306,-3.8266,-3.9658,-3.9962,-4.0105,-4.1651,-4.163,-4.1368,-4.2635,-4.2678,-4.3132,-4.4066,-4.5207,-4.6029,-4.6478,-4.676,-4.6646,-4.6802,-4.814,-4.9365,-4.891,-4.8766,-4.9198,-5.0578,-5.077,-5.0771,-5.1369,-5.2163,-5.262,-5.3341,-5.3245,-5.3389,-5.363,-5.3918,-5.4399,-4.668,-4.581,-4.5359,-4.4617,-4.3706,-4.323,-4.2386,-4.1428,-4.128,-4.0845,-4.0157,-4.0098,-3.9858,-3.9499,-3.9439,-3.9439,-3.9337,-3.9119,-3.9192,-3.9397,-3.9439,-3.9439,-3.9439,-3.9439,-3.9439,-3.9409,-3.9337,-3.943,-3.9639,-3.9475,-3.9601,-3.9974,-3.9906,-4.0068,-4.0354,-4.0383,-4.0117,-3.9732,-3.9526,-3.8939,-3.7715,-3.735,-3.6981,-3.6596,-3.6821,-3.6848,-3.6875,-3.7147,-3.7618,-3.7991,-3.8191,-3.8515,-3.891,-3.9158,-3.9258,-3.9258,-3.8945,-3.8736,-3.8526,-3.8421,-3.8476,-3.8767,-3.9152,-3.9657,-4.0331,-4.0739,-4.0865,-4.0548,-4.0571,-4.0646,-4.0439,-4.025,-3.9846,-3.966,-3.9239,-3.8772,-3.8772,-3.9167,-3.9991,-4.0721,-4.0371,-4.0933,-4.1775,-4.1651,-4.1933,-4.2892,-4.2731,-4.2892,-4.4045,-4.4108,-4.4654,-4.6472,-4.7284,-4.7723,-4.8283,-4.8608,-4.865,-4.8308,-4.9198,-5.0246,-4.9961,-4.9961,-5.0412,-5.0792,-5.1008,-5.1417,-5.2043,-5.2475,-5.286,-5.3293,-5.3534,-5.3678,-5.3798,-5.4063,-5.4399,-4.7967,-4.7172,-4.6714,-4.5911,-4.4858,-4.4346,-4.3459,-4.2348,-4.2123,-4.1611,-4.0995,-4.083,-4.0546,-4.0157,-3.9918,-3.9948,-4.0098,-3.9918,-3.9918,-4.0008,-3.9559,-3.9439,-3.9469,-3.9709,-3.9798,-3.9858,-4.0038,-4.0293,-4.0426,-4.0334,-4.043,-4.0724,-4.0546,-4.0786,-4.1395,-4.1482,-4.1357,-4.1113,-4.0774,-4.0198,-3.924,-3.8477,-3.8023,-3.7871,-3.7884,-3.7866,-3.8116,-3.8291,-3.8491,-3.8894,-3.8816,-3.9116,-3.944,-3.9465,-3.9465,-3.9387,-3.905,-3.8736,-3.8656,-3.8721,-3.8956,-3.9274,-3.9695,-4.0226,-4.0708,-4.1167,-4.1172,-4.1196,-4.1389,-4.1447,-4.1442,-4.1672,-4.1999,-4.2514,-4.1046,-4.0581,-4.0732,-4.0627,-4.1177,-4.186,-4.2279,-4.2901,-4.364,-4.3858,-4.425,-4.4732,-4.455,-4.455,-4.5595,-4.5667,-4.6923,-4.7892,-4.8163,-4.887,-4.9838,-5.029,-5.0506,-5.0104,-4.9795,-5.027,-5.0412,-5.0412,-5.072,-5.084,-5.1032,-5.1537,-5.2115,-5.2403,-5.274,-5.3221,-5.375,-5.3654,-5.3654,-5.3798,-5.4183,-4.8702,-4.8032,-4.7933,-4.7139,-4.5921,-4.5642,-4.4789,-4.353,-4.3047,-4.2501,-4.1836,-4.149,-4.1354,-4.1205,-4.0666,-4.0726,-4.1175,-4.0726,-4.0696,-4.0786,-4.0247,-3.9738,-3.9828,-4.0247,-4.0457,-4.0546,-4.0995,-4.1249,-4.1216,-4.0985,-4.1048,-4.1477,-4.1324,-4.1424,-4.1889,-4.2063,-4.2063,-4.193,-4.1255,-4.1083,-4.1383,-3.9887,-3.9066,-3.9547,-3.9162,-3.8995,-3.8969,-3.9295,-3.9346,-3.9069,-3.9396,-3.9622,-3.9697,-3.9697,-3.9594,-3.9387,-3.9074,-3.8834,-3.8697,-3.9111,-3.9623,-4.0026,-4.0488,-4.1023,-4.1322,-4.1402,-4.1293,-4.1341,-4.1725,-4.2206,-4.2664,-4.3048,-4.3551,-4.3831,-4.2247,-4.1505,-4.2234,-4.1826,-4.2429,-4.3522,-4.3916,-4.446,-4.575,-4.5621,-4.6459,-4.7303,-4.6784,-4.6784,-4.7279,-4.7518,-4.8147,-4.8652,-4.9115,-4.9667,-5.0548,-5.0503,-5.0696,-5.0554,-5.0246,-5.0412,-5.0554,-5.0696,-5.0696,-5.0864,-5.1249,-5.173,-5.2163,-5.2524,-5.2932,-5.351,-5.3678,-5.351,-5.3582,-5.3822,-5.4255,-4.9046,-4.8736,-4.8736,-4.8161,-4.7406,-4.7272,-4.6282,-4.4934,-4.4564,-4.3714,-4.2682,-4.2179,-4.194,-4.1384,-4.1235,-4.1235,-4.1354,-4.1205,-4.1175,-4.1324,-4.1085,-4.0876,-4.0876,-4.1025,-4.1115,-4.1175,-4.1384,-4.1624,-4.1995,-4.1763,-4.1853,-4.2313,-4.207,-4.2024,-4.2092,-4.2121,-4.2353,-4.2702,-4.2562,-4.2338,-4.2209,-4.1786,-4.1055,-4.0193,-4.0037,-3.985,-3.9523,-3.9622,-3.9647,-3.9521,-3.9597,-3.9697,-3.9697,-3.9697,-3.9722,-3.9669,-3.9631,-3.9749,-3.9742,-3.9972,-4.0403,-4.0893,-4.109,-4.1296,-4.1558,-4.1644,-4.1721,-4.1774,-4.204,-4.252,-4.3168,-4.3433,-4.3794,-4.4103,-4.3498,-4.3364,-4.4049,-4.4286,-4.4536,-4.5646,-4.6001,-4.6621,-4.7088,-4.7545,-4.7883,-4.8338,-4.8158,-4.7786,-4.8328,-4.8792,-4.8985,-4.9655,-5.0077,-5.0471,-5.0857,-5.0789,-5.0696,-5.0696,-5.0554,-5.0554,-5.0696,-5.0696,-5.0696,-5.0768,-5.1537,-5.2091,-5.2499,-5.286,-5.3365,-5.3798,-5.375,-5.3678,-5.3846,-5.4063,-5.4568,-4.9229,-4.9046,-4.9018,-4.8576,-4.7967,-4.7901,-4.7137,-4.6095,-4.5737,-4.5039,-4.3943,-4.3503,-4.3015,-4.2376,-4.2,-4.1953,-4.2162,-4.1923,-4.1953,-4.2222,-4.2222,-4.1893,-4.1564,-4.1594,-4.1803,-4.1833,-4.2073,-4.2432,-4.2701,-4.2495,-4.2574,-4.268,-4.2555,-4.231,-4.2257,-4.2382,-4.2615,-4.2992,-4.3253,-4.343,-4.345,-4.306,-4.2361,-4.1469,-4.1018,-4.0459,-3.9853,-3.9697,-3.9697,-3.9697,-3.9697,-3.9697,-3.9697,-3.9697,-3.9798,-3.9998,-4.014,-4.0152,-4.0475,-4.0814,-4.115,-4.1472,-4.1669,-4.1889,-4.2079,-4.2001,-4.1938,-4.2279,-4.2663,-4.3216,-4.3554,-4.3819,-4.4352,-4.4836,-4.4933,-4.5053,-4.5368,-4.5803,-4.6391,-4.7078,-4.7572,-4.7922,-4.8396,-4.8682,-4.8837,-4.8967,-4.8837,-4.883,-4.9076,-4.9401,-4.9829,-5.0455,-5.0661,-5.0937,-5.1114,-5.1095,-5.0837,-5.0837,-5.0696,-5.0696,-5.0696,-5.0696,-5.0696,-5.0912,-5.173,-5.2355,-5.262,-5.298,-5.3534,-5.3822,-5.3822,-5.3846,-5.3966,-5.4351,-5.4856,-4.9411,-4.9229,-4.9046,-4.8639,-4.8096,-4.8032,-4.7605,-4.6932,-4.6657,-4.6134,-4.5384,-4.5005,-4.4311,-4.3771,-4.2982,-4.2839,-4.324,-4.2749,-4.2821,-4.303,-4.309,-4.2671,-4.1953,-4.2252,-4.2462,-4.2521,-4.309,-4.321,-4.313,-4.3001,-4.2951,-4.296,-4.2695,-4.2591,-4.2631,-4.2956,-4.3193,-4.3398,-4.3834,-4.4385,-4.4585,-4.4162,-4.3538,-4.2863,-4.161,-4.0841,-4.016,-3.98,-3.9697,-3.9697,-3.9697,-3.9697,-3.9697,-3.9722,-3.9998,-4.0345,-4.0464,-4.0575,-4.0947,-4.1469,-4.1792,-4.1941,-4.2339,-4.2673,-4.2725,-4.2525,-4.2466,-4.3022,-4.365,-4.4038,-4.4208,-4.4597,-4.5059,-4.5497,-4.5768,-4.5939,-4.6211,-4.7023,-4.7764,-4.7967,-4.8305,-4.8787,-4.8942,-4.9202,-4.9202,-4.9357,-4.9252,-4.9426,-4.9619,-4.985,-5.0333,-5.1086,-5.122,-5.1141,-5.1436,-5.1516,-5.1236,-5.0978,-5.0978,-5.0837,-5.0696,-5.0696,-5.0696,-5.1008,-5.173,-5.2139,-5.2379,-5.2884,-5.3606,-5.3822,-5.3822,-5.3822,-5.3894,-5.452,-5.5073,-4.959,-4.9411,-4.9229,-4.9107,-4.8889,-4.8765,-4.8289,-4.7671,-4.7473,-4.7001,-4.6237,-4.5447,-4.5036,-4.4737,-4.4052,-4.3633,-4.3675,-4.3386,-4.3397,-4.3299,-4.3329,-4.324,-4.291,-4.303,-4.309,-4.315,-4.324,-4.3329,-4.325,-4.328,-4.317,-4.307,-4.3493,-4.3455,-4.324,-4.3682,-4.418,-4.4502,-4.4618,-4.4995,-4.5488,-4.5425,-4.4726,-4.3843,-4.2181,-4.1219,-4.0743,-4.0058,-3.9697,-3.9697,-3.9722,-3.9772,-3.9823,-4.0099,-4.04,-4.0621,-4.1139,-4.1479,-4.1923,-4.2102,-4.2451,-4.2724,-4.3125,-4.3462,-4.3268,-4.3321,-4.3476,-4.4083,-4.4669,-4.4817,-4.4817,-4.5355,-4.5746,-4.6039,-4.6855,-4.7576,-4.7675,-4.7848,-4.8065,-4.8411,-4.8713,-4.9072,-4.9072,-4.9382,-4.9511,-4.9615,-4.9741,-4.9761,-5.0056,-5.0448,-5.0911,-5.1632,-5.1743,-5.1803,-5.1738,-5.1796,-5.1516,-5.1401,-5.1236,-5.1119,-5.0978,-5.0696,-5.0837,-5.1056,-5.1634,-5.197,-5.2283,-5.3053,-5.3822,-5.3822,-5.3822,-5.3822,-5.4015,-5.464,-5.5145,-4.9649,-4.959,-4.929,-4.9229,-4.9168,-4.908,-4.8798,-4.845,-4.8322,-4.7836,-4.7137,-4.6486,-4.6095,-4.5737,-4.5227,-4.4812,-4.4189,-4.3645,-4.3409,-4.3329,-4.3329,-4.3329,-4.3329,-4.3329,-4.3329,-4.3359,-4.3329,-4.3329,-4.3389,-4.3629,-4.3728,-4.3677,-4.4221,-4.4241,-4.4053,-4.4496,-4.4792,-4.4938,-4.5227,-4.5547,-4.5837,-4.5895,-4.5384,-4.4097,-4.2377,-4.1219,-4.1119,-4.0262,-3.98,-3.9772,-3.9923,-4.0074,-4.0099,-4.0375,-4.0727,-4.1354,-4.1622,-4.2198,-4.2424,-4.2699,-4.2975,-4.3338,-4.3639,-4.3861,-4.3979,-4.4146,-4.4372,-4.4814,-4.5305,-4.5723,-4.5699,-4.602,-4.6365,-4.7006,-4.7753,-4.8455,-4.8832,-4.8779,-4.8724,-4.9023,-4.9202,-4.9332,-4.9486,-4.9611,-4.9941,-5.0017,-5.0494,-5.0695,-5.1147,-5.1355,-5.179,-5.2154,-5.2291,-5.2327,-5.2189,-5.2099,-5.196,-5.1681,-5.1681,-5.1541,-5.1401,-5.1119,-5.0837,-5.1247,-5.1537,-5.2018,-5.2427,-5.3245,-5.3798,-5.3822,-5.3822,-5.3822,-5.4087,-5.4688,-5.5097,-4.988,-4.988,-4.9445,-4.929,-4.9229,-4.9141,-4.9018,-4.8984,-4.9018,-4.8576,-4.8096,-4.7803,-4.7104,-4.6694,-4.6346,-4.5706,-4.4812,-4.3771,-4.3329,-4.3438,-4.3329,-4.3329,-4.3359,-4.3419,-4.3509,-4.3449,-4.3359,-4.3359,-4.3658,-4.3988,-4.4257,-4.4445,-4.4989,-4.5005,-4.4929,-4.5228,-4.5435,-4.5287,-4.5547,-4.5808,-4.5866,-4.5895,-4.5384,-4.4499,-4.3054,-4.1914,-4.1518,-4.0668,-3.9928,-3.9848,-4.0275,-4.0576,-4.0752,-4.0827,-4.1103,-4.2082,-4.2233,-4.2509,-4.2836,-4.3062,-4.3338,-4.379,-4.4041,-4.4377,-4.4817,-4.4997,-4.5151,-4.5498,-4.5991,-4.6387,-4.6588,-4.6936,-4.7383,-4.7979,-4.8277,-4.8857,-4.9336,-4.959,-4.9436,-4.9565,-4.9461,-4.9461,-4.9636,-4.9941,-5.0193,-5.0519,-5.1021,-5.1473,-5.19,-5.2176,-5.2352,-5.2578,-5.2554,-5.2654,-5.2515,-5.2515,-5.2238,-5.2099,-5.2099,-5.196,-5.182,-5.1541,-5.1309,-5.1244,-5.1512,-5.2067,-5.2524,-5.3221,-5.363,-5.375,-5.3822,-5.3822,-5.4207,-5.476,-5.5097,-5.0848,-5.0814,-4.9983,-4.953,-4.9411,-4.9263,-4.9209,-4.9018,-4.9086,-4.8956,-4.8769,-4.8161,-4.7803,-4.7539,-4.6932,-4.6166,-4.5227,-4.4128,-4.3488,-4.3596,-4.3468,-4.3419,-4.3479,-4.3957,-4.4088,-4.3928,-4.3728,-4.3728,-4.4077,-4.4287,-4.4766,-4.5185,-4.5729,-4.5888,-4.5723,-4.5991,-4.605,-4.5665,-4.5779,-4.5866,-4.5895,-4.5866,-4.5776,-4.5384,-4.4125,-4.315,-4.2377,-4.1544,-4.0772,-4.043,-4.0475,-4.1003,-4.158,-4.1781,-4.1957,-4.2208,-4.2559,-4.2836,-4.3062,-4.3413,-4.3639,-4.3991,-4.4568,-4.5121,-4.5429,-4.5729,-4.5835,-4.6084,-4.6459,-4.6809,-4.6637,-4.7583,-4.8183,-4.8607,-4.8907,-4.9311,-4.9565,-4.959,-4.959,-4.959,-4.959,-4.969,-4.9941,-5.0218,-5.0569,-5.0921,-5.1373,-5.1774,-5.2151,-5.2327,-5.2402,-5.2628,-5.2904,-5.2792,-5.2792,-5.2792,-5.2654,-5.2377,-5.2377,-5.2238,-5.2099,-5.182,-5.1639,-5.162,-5.1656,-5.2139,-5.262,-5.3197,-5.3558,-5.3774,-5.3798,-5.3822,-5.4207,-5.4616,-5.5145,-5.1701,-5.1632,-5.1107,-5.0754,-5.0632,-5.0447,-5.026,-5.0067,-4.9729,-4.956,-4.9396,-4.8841,-4.845,-4.8386,-4.8194,-4.7204,-4.5881,-4.4812,-4.4159,-4.394,-4.3897,-4.3998,-4.3998,-4.4618,-4.479,-4.4736,-4.4519,-4.4459,-4.4855,-4.5244,-4.5484,-4.5873,-4.6501,-4.6658,-4.6342,-4.6403,-4.6403,-4.6135,-4.5956,-4.5895,-4.5895,-4.5895,-4.5895,-4.5595,-4.4897,-4.3843,-4.2765,-4.1815,-4.1027,-4.0635,-4.0777,-4.1379,-4.2091,-4.2409,-4.2559,-4.261,-4.2836,-4.3137,-4.3338,-4.3714,-4.4016,-4.4669,-4.5246,-4.5623,-4.5874,-4.615,-4.6301,-4.6426,-4.6803,-4.7132,-4.7283,-4.8184,-4.8685,-4.9035,-4.9311,-4.9565,-4.959,-4.959,-4.9615,-4.964,-4.964,-4.9816,-5.0167,-5.0519,-5.0946,-5.1348,-5.1749,-5.2101,-5.2427,-5.2503,-5.2578,-5.2703,-5.2929,-5.2929,-5.2929,-5.2929,-5.2929,-5.2654,-5.2515,-5.2515,-5.2377,-5.2238,-5.2099,-5.2009,-5.2176,-5.2308,-5.2574,-5.2908,-5.3341,-5.375,-5.3798,-5.387,-5.4111,-5.4471,-5.5073,-5.2459,-5.2459,-5.2165,-5.1912,-5.1725,-5.16,-5.1376,-5.1082,-5.0574,-5.0338,-5.0236,-4.9763,-4.9362,-4.9159,-4.8677,-4.7902,-4.6679,-4.5772,-4.5032,-4.4752,-4.4769,-4.4901,-4.5042,-4.5364,-4.5616,-4.5597,-4.5798,-4.5658,-4.558,-4.5903,-4.6292,-4.6591,-4.71,-4.7222,-4.6901,-4.6726,-4.6491,-4.6225,-4.6046,-4.5956,-4.5895,-4.5895,-4.5895,-4.5866,-4.511,-4.4219,-4.3273,-4.2396,-4.197,-4.162,-4.1631,-4.1864,-4.2587,-4.2846,-4.2961,-4.2986,-4.3087,-4.3413,-4.3689,-4.4166,-4.4644,-4.5246,-4.5547,-4.5899,-4.6125,-4.6276,-4.6326,-4.6401,-4.6954,-4.7456,-4.7857,-4.8535,-4.9088,-4.9414,-4.9565,-4.959,-4.959,-4.964,-4.9715,-4.9741,-4.9741,-4.9992,-5.0368,-5.1021,-5.1498,-5.1749,-5.2151,-5.2427,-5.2729,-5.2754,-5.2804,-5.2854,-5.2929,-5.2929,-5.2929,-5.2929,-5.2929,-5.2792,-5.2792,-5.2654,-5.2654,-5.2654,-5.2515,-5.2238,-5.2157,-5.2274,-5.2453,-5.2839,-5.3245,-5.363,-5.375,-5.3894,-5.4015,-5.4544,-5.5217,-5.3253,-5.3184,-5.2528,-5.1974,-5.176,-5.1765,-5.1507,-5.1285,-5.1183,-5.1082,-5.1082,-5.0913,-5.0473,-4.9839,-4.8559,-4.7933,-4.7432,-4.6834,-4.6188,-4.5971,-4.5959,-4.592,-4.593,-4.6507,-4.6576,-4.6485,-4.6976,-4.683,-4.6411,-4.6352,-4.6651,-4.707,-4.7189,-4.7222,-4.7019,-4.6844,-4.6668,-4.6314,-4.6225,-4.6046,-4.5895,-4.5895,-4.5895,-4.5866,-4.5743,-4.5195,-4.4132,-4.3503,-4.3352,-4.3712,-4.2674,-4.2939,-4.3945,-4.3441,-4.3073,-4.3137,-4.3388,-4.374,-4.3991,-4.4618,-4.5196,-4.5598,-4.5899,-4.6175,-4.6301,-4.6376,-4.6426,-4.6351,-4.7205,-4.7807,-4.8159,-4.8887,-4.9389,-4.954,-4.959,-4.9615,-4.964,-4.9841,-4.9916,-5.0318,-5.0469,-5.0444,-5.0619,-5.1373,-5.2051,-5.2277,-5.2528,-5.2779,-5.2929,-5.2929,-5.2929,-5.2929,-5.2929,-5.2929,-5.2929,-5.2929,-5.2929,-5.2929,-5.2929,-5.2929,-5.2792,-5.2792,-5.2654,-5.254,-5.2412,-5.2428,-5.2714,-5.2962,-5.3321,-5.351,-5.3678,-5.3774,-5.3846,-5.452,-5.5337,-5.4875,-5.4495,-5.3756,-5.3307,-5.299,-5.299,-5.283,-5.2501,-5.2029,-5.1826,-5.1725,-5.1352,-5.1014,-5.0514,-4.9854,-4.9427,-4.9079,-4.8518,-4.785,-4.734,-4.7308,-4.7207,-4.6936,-4.7258,-4.7425,-4.7262,-4.7362,-4.7249,-4.695,-4.686,-4.707,-4.7219,-4.7309,-4.7309,-4.7106,-4.6901,-4.6814,-4.655,-4.6403,-4.6135,-4.5956,-4.5895,-4.5895,-4.5924,-4.6243,-4.578,-4.5081,-4.4468,-4.4447,-4.4759,-4.3834,-4.364,-4.4513,-4.4696,-4.4557,-4.3601,-4.4622,-4.4903,-4.4483,-4.507,-4.5547,-4.5899,-4.6175,-4.6276,-4.6376,-4.6602,-4.6778,-4.7,-4.7807,-4.8284,-4.846,-4.9113,-4.9439,-4.959,-4.959,-4.9841,-4.9941,-5.0067,-5.0293,-5.0745,-5.1172,-5.1172,-5.1222,-5.1699,-5.2302,-5.2578,-5.2703,-5.2829,-5.2929,-5.2929,-5.2929,-5.2929,-5.2929,-5.2929,-5.2929,-5.2929,-5.2929,-5.2929,-5.2929,-5.2929,-5.2929,-5.2792,-5.2792,-5.2654,-5.2565,-5.2569,-5.2902,-5.2985,-5.3229,-5.3369,-5.363,-5.3726,-5.3894,-5.4688,-5.5482,-5.6313,-5.583,-5.5044,-5.4494,-5.4045,-5.4045,-5.3815,-5.3449,-5.2907,-5.267,-5.2401,-5.1894,-5.1522,-5.1386,-5.1186,-5.0693,-5.0286,-5.032,-4.9681,-4.9064,-4.8885,-4.8624,-4.8345,-4.8398,-4.8225,-4.7709,-4.7688,-4.7486,-4.7309,-4.7279,-4.7249,-4.7309,-4.7309,-4.7309,-4.7193,-4.7106,-4.6931,-4.6756,-4.6403,-4.6135,-4.5985,-4.5895,-4.5982,-4.6214,-4.6442,-4.6512,-4.5959,-4.5496,-4.5578,-4.5999,-4.52,-4.4917,-4.5661,-4.6035,-4.5928,-4.5448,-4.6219,-4.6491,-4.5873,-4.575,-4.5993,-4.615,-4.6351,-4.6376,-4.6602,-4.6954,-4.728,-4.7503,-4.8159,-4.8636,-4.8887,-4.9264,-4.9515,-4.959,-4.9615,-4.9967,-5.0268,-5.0393,-5.072,-5.1297,-5.1724,-5.2,-5.2076,-5.2226,-5.2528,-5.2829,-5.2929,-5.2929,-5.2929,-5.2929,-5.2929,-5.2929,-5.2929,-5.2929,-5.2929,-5.2929,-5.2929,-5.2929,-5.2929,-5.2929,-5.2929,-5.2929,-5.2792,-5.2792,-5.2654,-5.265,-5.2699,-5.2907,-5.3132,-5.3594,-5.3981,-5.4025,-5.4213,-5.4856,-5.5674,-5.7216,-5.7029,-5.5887,-5.4922,-5.4205,-5.4175,-5.3946,-5.3717,-5.3549,-5.3448,-5.3213,-5.2638,-5.2232,-5.2131,-5.1727,-5.1329,-5.1048,-5.1048,-5.0851,-5.0839,-5.0822,-5.0192,-4.971,-4.9346,-4.9066,-4.814,-4.792,-4.7748,-4.7456,-4.7396,-4.7309,-4.7309,-4.7309,-4.7309,-4.7309,-4.7222,-4.7019,-4.6756,-4.6403,-4.6135,-4.5985,-4.5982,-4.6214,-4.665,-4.6853,-4.7021,-4.7507,-4.7023,-4.7165,-4.8052,-4.6837,-4.6338,-4.6998,-4.7543,-4.7346,-4.7109,-4.7972,-4.8012,-4.7398,-4.6601,-4.627,-4.6301,-4.6401,-4.6577,-4.6903,-4.7079,-4.738,-4.7883,-4.856,-4.8812,-4.9012,-4.9213,-4.954,-4.964,-4.9741,-5.0142,-5.0444,-5.067,-5.1071,-5.1774,-5.2201,-5.2427,-5.2553,-5.2603,-5.2628,-5.2904,-5.2929,-5.2929,-5.2929,-5.2929,-5.2929,-5.2929,-5.2929,-5.2929,-5.2929,-5.2929,-5.2929,-5.2929,-5.2929,-5.2929,-5.2929,-5.2929,-5.2929,-5.2929,-5.2817,-5.2576,-5.2569,-5.3069,-5.3566,-5.4205,-5.4525,-5.4248,-5.4406,-5.5082,-5.5818,-5.7747,-5.7266,-5.6773,-5.5851,-5.4738,-5.4333,-5.411,-5.3915,-5.3783,-5.3584,-5.3484,-5.3179,-5.3044,-5.2942,-5.2841,-5.2606,-5.2571,-5.2605,-5.2287,-5.196,-5.1736,-5.107,-5.0373,-4.9797,-4.9325,-4.8424,-4.8147,-4.792,-4.7568,-4.7482,-4.7396,-4.7309,-4.7309,-4.7309,-4.7309,-4.7309,-4.7048,-4.6844,-4.6668,-4.6491,-4.6223,-4.6483,-4.6774,-4.6795,-4.7782,-4.8043,-4.823,-4.7871,-4.8395,-4.8636,-4.7909,-4.792,-4.832,-4.8826,-4.8862,-4.8349,-4.9417,-4.9584,-4.8905,-4.7963,-4.7205,-4.6522,-4.6602,-4.6903,-4.7352,-4.7682,-4.8109,-4.856,-4.8912,-4.9188,-4.9339,-4.9464,-4.9615,-4.969,-4.9916,-5.0318,-5.0745,-5.1046,-5.1498,-5.2251,-5.2528,-5.2729,-5.2804,-5.2879,-5.2904,-5.2929,-5.2929,-5.2929,-5.2929,-5.2929,-5.2929,-5.2929,-5.2929,-5.2929,-5.2929,-5.2929,-5.2929,-5.2929,-5.2929,-5.2929,-5.2929,-5.2929,-5.2929,-5.2929,-5.2842,-5.2715,-5.2924,-5.3661,-5.4166,-5.4642,-5.4623,-5.4514,-5.4848,-5.5226,-5.589,-5.815,-5.7653,-5.7413,-5.6474,-5.5189,-5.4738,-5.4333,-5.4045,-5.3915,-5.3717,-5.3551,-5.3484,-5.3518,-5.3518,-5.3484,-5.345,-5.3349,-5.3315,-5.311,-5.2834,-5.252,-5.1769,-5.1005,-5.0279,-4.9784,-4.8883,-4.8301,-4.8049,-4.7538,-4.7654,-4.7482,-4.7396,-4.7309,-4.7309,-4.7309,-4.7309,-4.7135,-4.6931,-4.6844,-4.6816,-4.6636,-4.6927,-4.7386,-4.7404,-4.8275,-4.874,-4.8876,-4.8763,-4.8936,-4.9277,-4.9123,-4.8937,-4.9423,-4.9982,-5.0406,-5.0396,-5.0477,-5.1173,-5.0325,-4.9335,-4.8094,-4.7257,-4.8076,-4.7905,-4.7778,-4.8584,-4.9365,-4.9012,-4.9389,-4.959,-4.9615,-4.959,-4.9766,-4.9891,-5.0117,-5.0494,-5.1222,-5.1699,-5.2176,-5.2729,-5.2829,-5.2879,-5.2879,-5.2929,-5.2929,-5.2929,-5.2929,-5.2929,-5.2929,-5.2929,-5.2929,-5.2929,-5.2929,-5.2929,-5.2929,-5.2929,-5.2929,-5.2929,-5.2929,-5.2929,-5.2929,-5.2929,-5.2929,-5.2929,-5.2867,-5.2854,-5.3303,-5.3761,-5.4359,-5.4957,-5.4918,-5.4964,-5.529,-5.567,-5.6095,-5.8449,-5.8363,-5.7653,-5.6616,-5.5543,-5.5402,-5.4922,-5.4333,-5.4175,-5.398,-5.3651,-5.3551,-5.3518,-5.3518,-5.3518,-5.3518,-5.3518,-5.3518,-5.3416,-5.328,-5.3212,-5.2834,-5.2131,-5.1327,-5.0538,-4.9487,-4.8934,-4.8393,-4.7794,-4.7709,-4.7568,-4.7396,-4.7309,-4.7309,-4.7309,-4.7309,-4.7106,-4.6931,-4.6991,-4.7081,-4.7284,-4.7457,-4.8038,-4.8312,-4.8711,-4.9213,-4.931,-4.9455,-4.9473,-4.9629,-5.015,-5.0125,-5.0369,-5.1541,-5.2046,-5.2116,-5.2722,-5.2615,-5.1674,-5.0573,-4.9529,-4.8653,-4.9414,-4.9745,-4.882,-4.9435,-5.0597,-5.0432,-5.0053,-4.9873,-4.9744,-4.9665,-4.9967,-5.0293,-5.0544,-5.0896,-5.1649,-5.2176,-5.2628,-5.2854,-5.2879,-5.2929,-5.2929,-5.2929,-5.2929,-5.2929,-5.2929,-5.2929,-5.2929,-5.2929,-5.2929,-5.2929,-5.2929,-5.2929,-5.2929,-5.2929,-5.2929,-5.2929,-5.2929,-5.2929,-5.2929,-5.2929,-5.2929,-5.2929,-5.2867,-5.2829,-5.3378,-5.3861,-5.4727,-5.5426,-5.5505,-5.5584,-5.5795,-5.6018,-5.6503,-5.8572,-5.8449,-5.8142,-5.751,-5.6616,-5.5716,-5.5224,-5.4922,-5.446,-5.4045,-5.3717,-5.3651,-5.3551,-5.3484,-5.3518,-5.3518,-5.3518,-5.3518,-5.3518,-5.3518,-5.3518,-5.2972,-5.2383,-5.1938,-5.1368,-5.0538,-4.9739,-4.914,-4.8872,-4.8271,-4.7709,-4.7538,-4.7396,-4.7309,-4.7309,-4.7339,-4.7372,-4.779,-4.7821,-4.7971,-4.8324,-4.8676,-4.8933,-4.9026,-4.9406,-4.963,-4.9737,-4.9669,-4.9795,-4.9843,-5.0423,-5.0743,-5.0975,-5.1991,-5.2572,-5.2717,-5.3152,-5.3366,-5.3087,-5.2585,-5.1989,-5.1144,-5.0926,-5.1521,-5.1136,-5.1869,-5.2269,-5.1962,-5.1168,-5.1198,-5.1381,-5.0482,-5.055,-5.0946,-5.1272,-5.1574,-5.2101,-5.2477,-5.2829,-5.2879,-5.2929,-5.2929,-5.2929,-5.2929,-5.2929,-5.2929,-5.2929,-5.2929,-5.2929,-5.2929,-5.2929,-5.2929,-5.2929,-5.2929,-5.2929,-5.2929,-5.2929,-5.2929,-5.2929,-5.2929,-5.2929,-5.2929,-5.3042,-5.3179,-5.298,-5.2992,-5.3793,-5.457,-5.5321,-5.5897,-5.634,-5.6202,-5.6295,-5.6504,-5.6692,-5.8656,-5.8572,-5.8443,-5.8142,-5.7546,-5.6456,-5.5887,-5.5601,-5.4861,-5.4397,-5.4141,-5.3815,-5.3618,-5.3585,-5.3518,-5.3518,-5.3518,-5.3518,-5.3518,-5.3518,-5.3518,-5.3212,-5.2805,-5.2434,-5.1947,-5.1303,-5.048,-4.9741,-4.9358,-4.849,-4.7964,-4.7624,-4.7366,-4.7309,-4.7369,-4.7549,-4.7848,-4.8237,-4.8416,-4.8835,-4.9221,-4.9482,-4.9651,-4.9692,-4.9794,-5.0086,-4.9863,-4.9795,-4.9882,-5.0202,-5.0569,-5.1091,-5.1527,-5.2165,-5.2833,-5.3065,-5.321,-5.3617,-5.383,-5.4062,-5.3461,-5.3248,-5.3215,-5.2889,-5.2834,-5.3206,-5.367,-5.3619,-5.2807,-5.2731,-5.2754,-5.1768,-5.1663,-5.2199,-5.2311,-5.259,-5.3055,-5.3436,-5.2991,-5.3042,-5.2929,-5.2929,-5.2929,-5.2929,-5.2929,-5.2929,-5.2929,-5.2929,-5.2929,-5.2929,-5.2929,-5.2929,-5.2929,-5.2929,-5.2929,-5.2929,-5.2929,-5.2929,-5.2929,-5.3067,-5.2929,-5.2929,-5.3179,-5.3366,-5.3406,-5.3646,-5.4527,-5.5333,-5.6775,-5.7472,-5.7677,-5.7512,-5.6971,-5.7062,-5.7512,-5.8698,-5.8656,-5.8535,-5.8443,-5.8223,-5.7413,-5.6809,-5.6221,-5.5391,-5.5009,-5.4826,-5.4076,-5.3651,-5.3551,-5.3518,-5.3518,-5.3518,-5.3518,-5.3518,-5.3518,-5.3518,-5.3348,-5.3213,-5.2775,-5.2466,-5.1905,-5.1108,-5.0358,-4.9663,-4.8903,-4.8271,-4.7709,-4.7452,-4.7396,-4.7459,-4.7938,-4.8297,-4.8596,-4.9045,-4.9522,-4.9935,-5.0084,-5.0129,-5.0206,-5.0346,-5.0183,-4.996,-4.9892,-5.0242,-5.0639,-5.1178,-5.1846,-5.2484,-5.3152,-5.3384,-5.35,-5.35,-5.3849,-5.4313,-5.4517,-5.5076,-5.516,-5.5814,-5.4345,-5.3652,-5.4352,-5.5032,-5.4873,-5.4249,-5.4336,-5.4174,-5.3905,-5.3493,-5.3556,-5.3605,-5.3967,-5.4304,-5.4216,-5.3427,-5.3204,-5.2929,-5.2929,-5.2929,-5.2929,-5.3179,-5.2929,-5.2929,-5.2929,-5.2929,-5.2929,-5.2929,-5.2929,-5.2929,-5.2929,-5.2929,-5.2929,-5.2929,-5.2929,-5.3316,-5.3452,-5.3179,-5.3316,-5.3971,-5.4344,-5.4021,-5.4581,-5.6096,-5.7354,-5.8657,-5.9114,-5.9184,-5.8491,-5.7725,-5.8252,-5.8654,-5.8698,-5.8656,-5.8572,-5.8449,-5.8443,-5.8051,-5.7302,-5.6276,-5.5601,-5.5189,-5.5009,-5.4333,-5.3881,-5.3651,-5.3651,-5.3618,-5.3484,-5.3518,-5.3518,-5.3518,-5.3518,-5.3518,-5.3382,-5.3247,-5.3146,-5.2773,-5.2088,-5.1355,-5.109,-5.0041,-4.849,-4.7709,-4.7538,-4.7452,-4.7785,-4.8416,-4.8745,-4.9164,-4.9643,-5.015,-5.0627,-5.0683,-5.0674,-5.0573,-5.0662,-5.0442,-5.0183,-5.0145,-5.0427,-5.0784,-5.1294,-5.1904,-5.2543,-5.3152,-5.35,-5.35,-5.3559,-5.3791,-5.4429,-5.4923,-5.5533,-5.6345,-5.6752,-5.6872,-5.6023,-5.5966,-5.6537,-5.599,-5.5575,-5.5646,-5.5723,-5.5552,-5.5671,-5.5915,-5.5572,-5.5366,-5.5631,-5.5525,-5.4727,-5.3835,-5.3563,-5.37,-5.3563,-5.3452,-5.37,-5.3179,-5.2929,-5.3179,-5.2929,-5.2929,-5.2929,-5.2929,-5.2929,-5.2929,-5.3067,-5.3042,-5.2929,-5.2929,-5.37,-5.4216,-5.3971,-5.4216,-5.4994,-5.5496,-5.5782,-5.6924,-5.8343,-5.9505,-6.0729,-6.0396,-6.0334,-5.9411,-5.8891,-5.9579,-6.0118,-5.8698,-5.8698,-5.8614,-5.8529,-5.8443,-5.8268,-5.7679,-5.6912,-5.6295,-5.5851,-5.5391,-5.4826,-5.4269,-5.3849,-5.3717,-5.3651,-5.3618,-5.3518,-5.3518,-5.3518,-5.3518,-5.3518,-5.3518,-5.3518,-5.3416,-5.3213,-5.2808,-5.2058,-5.1855,-5.0506,-4.8953,-4.8355,-4.7934,-4.7718,-4.7995,-4.8656,-4.9314,-4.9763,-5.0242,-5.078,-5.105,-5.1229,-5.1011,-5.0887,-5.0917,-5.0632,-5.0338,-5.0455,-5.0886,-5.1133,-5.1643,-5.2384,-5.2936,-5.3326,-5.35,-5.35,-5.353,-5.4052,-5.4749,-5.5184,-5.5881,-5.6549,-5.7071,-5.7075,-5.7133,-5.702,-5.7107,-5.7022,-5.6852,-5.6875,-5.7084,-5.7276,-5.788,-5.8453,-5.7751,-5.6882,-5.6909,-5.6909,-5.6025,-5.4994,-5.4727,-5.4727,-5.4593,-5.4459,-5.435,-5.4216,-5.435,-5.4619,-5.3971,-5.3179,-5.3067,-5.2929,-5.3067,-5.3042,-5.3316,-5.3835,-5.4081,-5.4459,-5.5234,-5.5499,-5.4994,-5.5365,-5.6396,-5.7243,-5.7883,-5.9176,-6.0292,-6.1558,-6.2564,-6.2034,-6.1904,-6.179,-6.1256,-6.1291,-6.1847,-5.8698,-5.8698,-5.8698,-5.8572,-5.8393,-5.8305,-5.8088,-5.795,-5.7351,-5.6773,-5.6039,-5.5391,-5.4738,-5.4269,-5.3946,-5.3783,-5.3651,-5.3618,-5.3518,-5.3518,-5.3518,-5.3518,-5.3518,-5.3518,-5.3518,-5.3247,-5.2876,-5.2535,-5.1855,-5.0887,-4.9962,-4.9278,-4.8355,-4.8092,-4.8555,-4.8925,-4.9494,-5.0092,-5.0631,-5.1139,-5.1169,-5.1229,-5.1105,-5.0917,-5.0917,-5.0976,-5.0707,-5.1052,-5.1768,-5.2046,-5.2428,-5.3114,-5.3344,-5.3471,-5.35,-5.3617,-5.3646,-5.4313,-5.501,-5.5503,-5.62,-5.6839,-5.7303,-5.7303,-5.7303,-5.7303,-5.7303,-5.7448,-5.7254,-5.783,-5.8169,-5.844,-5.9002,-5.939,-5.9217,-5.8467,-5.8088,-5.7834,-5.6909,-5.6156,-5.6025,-5.6025,-5.5894,-5.5762,-5.5499,-5.5499,-5.5525,-5.5762,-5.5366,-5.435,-5.4081,-5.3835,-5.4081,-5.4459,-5.4727,-5.5234,-5.5762,-5.626,-5.678,-5.665,-5.6129,-5.6762,-5.771,-5.9063,-6.0477,-6.11,-6.2173,-6.3243,-6.3488,-6.2886,-6.2956,-6.411,-6.4023,-6.3496,-6.353,-5.8698,-5.8698,-5.8698,-5.8614,-5.8486,-5.8393,-5.8305,-5.8133,-5.7867,-5.7449,-5.6721,-5.5794,-5.5129,-5.4765,-5.4205,-5.398,-5.3717,-5.3651,-5.3618,-5.3518,-5.3518,-5.3518,-5.3518,-5.3518,-5.3518,-5.3484,-5.3247,-5.2874,-5.2312,-5.1663,-5.107,-5.0274,-4.934,-4.8921,-4.931,-4.9607,-4.9703,-5.0361,-5.087,-5.1199,-5.1229,-5.1229,-5.1135,-5.1105,-5.1135,-5.1309,-5.1291,-5.155,-5.2181,-5.2674,-5.304,-5.3407,-5.3756,-5.3605,-5.35,-5.3588,-5.3936,-5.4604,-5.5242,-5.5823,-5.649,-5.6955,-5.7303,-5.7303,-5.7303,-5.7303,-5.739,-5.7536,-5.7942,-5.861,-5.9132,-5.9475,-5.9904,-6.0215,-6.056,-5.9891,-5.9245,-5.8592,-5.7806,-5.7679,-5.7551,-5.7423,-5.7295,-5.7167,-5.678,-5.665,-5.665,-5.678,-5.678,-5.6287,-5.6417,-5.6287,-5.5998,-5.626,-5.652,-5.665,-5.7038,-5.7578,-5.8088,-5.7806,-5.7322,-5.8457,-5.9779,-6.1699,-6.3106,-6.3236,-6.3549,-6.421,-6.4325,-6.3675,-6.396,-6.4822,-6.5687,-6.5482,-6.5693,-5.8777,-5.8698,-5.8698,-5.8614,-5.8492,-5.8443,-5.8356,-5.8179,-5.8088,-5.7867,-5.7351,-5.6349,-5.5601,-5.5189,-5.4523,-5.411,-5.3915,-5.3717,-5.3618,-5.3585,-5.3518,-5.3518,-5.3518,-5.3518,-5.3518,-5.3518,-5.3518,-5.3179,-5.2764,-5.2307,-5.1769,-5.1177,-5.0263,-4.9864,-5.0182,-4.9998,-5.0002,-5.0661,-5.105,-5.1199,-5.1229,-5.1229,-5.1229,-5.1229,-5.1225,-5.1429,-5.181,-5.207,-5.2674,-5.304,-5.3217,-5.3509,-5.3756,-5.3605,-5.35,-5.3704,-5.411,-5.4778,-5.5387,-5.6055,-5.6694,-5.71,-5.7303,-5.7303,-5.7303,-5.7303,-5.7303,-5.7507,-5.8118,-5.8668,-5.9451,-5.9796,-6.0374,-6.0837,-6.0923,-6.0531,-6.0287,-6.0014,-5.9617,-5.9617,-5.9493,-5.9493,-5.9369,-5.9369,-5.8996,-5.834,-5.8214,-5.8214,-5.8214,-5.8214,-5.834,-5.834,-5.7933,-5.7806,-5.7961,-5.8088,-5.834,-5.8871,-5.9369,-5.9595,-5.9792,-6.0762,-6.2073,-6.3255,-6.4115,-6.4463,-6.4723,-6.4967,-6.4996,-6.4454,-6.4958,-6.565,-6.6418,-6.7086,-6.7142,-5.8818,-5.8698,-5.8698,-5.8656,-5.8529,-5.8492,-5.84,-5.8223,-5.8179,-5.8133,-5.7821,-5.6861,-5.6075,-5.5484,-5.4738,-5.4397,-5.411,-5.3946,-5.3717,-5.3551,-5.3585,-5.3484,-5.3518,-5.3518,-5.3518,-5.3518,-5.3518,-5.3518,-5.3348,-5.2903,-5.2412,-5.1868,-5.1257,-5.059,-5.0886,-5.0634,-5.0451,-5.1086,-5.1386,-5.1229,-5.1229,-5.1229,-5.1229,-5.1229,-5.1289,-5.1429,-5.2085,-5.2583,-5.304,-5.3419,-5.3568,-5.3743,-5.386,-5.3815,-5.3605,-5.3704,-5.4342,-5.4894,-5.5445,-5.6171,-5.6752,-5.7158,-5.7274,-5.7303,-5.7303,-5.7303,-5.7303,-5.7567,-5.8147,-5.8841,-5.9508,-6.0293,-6.0845,-6.1193,-6.1193,-6.1193,-6.1073,-6.1044,-6.1044,-6.1073,-6.1044,-6.0923,-6.0923,-6.1044,-6.0681,-6.0014,-5.9768,-5.9891,-5.9891,-5.9768,-5.9891,-5.9645,-5.9245,-5.9245,-5.9369,-5.9369,-5.9493,-6.0014,-6.0467,-6.1357,-6.2093,-6.2361,-6.2996,-6.3757,-6.4561,-6.4793,-6.4909,-6.4967,-6.4996,-6.4996,-6.546,-6.5925,-6.6593,-6.7289,-6.7986,-5.8818,-5.8698,-5.8698,-5.8656,-5.8656,-5.8572,-5.8443,-5.8349,-5.826,-5.8133,-5.7867,-5.7315,-5.6825,-5.6704,-5.5601,-5.5104,-5.4765,-5.4425,-5.3946,-5.3717,-5.3651,-5.3618,-5.3551,-5.3518,-5.3518,-5.3518,-5.3518,-5.3518,-5.3518,-5.328,-5.3246,-5.3107,-5.1858,-5.1758,-5.2669,-5.2081,-5.1213,-5.182,-5.1665,-5.1386,-5.1293,-5.1199,-5.1229,-5.1229,-5.1229,-5.1977,-5.2695,-5.3054,-5.3724,-5.4137,-5.4245,-5.42,-5.4097,-5.3919,-5.371,-5.3896,-5.4565,-5.5068,-5.5649,-5.6461,-5.7071,-5.7245,-5.7303,-5.7303,-5.7303,-5.7303,-5.7361,-5.7536,-5.8118,-5.8871,-5.9655,-6.0555,-6.1164,-6.1193,-6.1193,-6.1193,-6.1193,-6.1193,-6.1193,-6.1193,-6.1193,-6.1073,-6.1073,-6.1193,-6.1073,-6.0652,-6.0652,-6.0681,-6.0681,-6.0923,-6.1193,-6.0802,-6.0287,-6.0681,-6.0802,-6.0531,-6.0652,-6.1044,-6.1367,-6.1861,-6.2529,-6.3399,-6.4038,-6.4473,-6.4706,-6.4909,-6.4996,-6.4996,-6.4996,-6.5054,-6.5577,-6.6099,-6.6767,-6.7492,-6.8189]}]]